<?xml version="1.0"?>
<gpx xmlns="http://www.topografix.com/GPX/1/1" xmlns:xsi="http://www.w3.org/2001/XMLSchema-instance" xmlns:wptx1="http://www.garmin.com/xmlschemas/WaypointExtension/v1" xmlns:gpxtrx="http://www.garmin.com/xmlschemas/GpxExtensions/v3" xmlns:gpxtpx="http://www.garmin.com/xmlschemas/TrackPointExtension/v1" xmlns:gpxx="http://www.garmin.com/xmlschemas/GpxExtensions/v3" xmlns:trp="http://www.garmin.com/xmlschemas/TripExtensions/v1" xmlns:adv="http://www.garmin.com/xmlschemas/AdventuresExtensions/v1" xmlns:prs="http://www.garmin.com/xmlschemas/PressureExtension/v1" xmlns:tmd="http://www.garmin.com/xmlschemas/TripMetaDataExtensions/v1" xmlns:vptm="http://www.garmin.com/xmlschemas/ViaPointTransportationModeExtensions/v1" xmlns:ctx="http://www.garmin.com/xmlschemas/CreationTimeExtension/v1" creator="Garmin Desktop App" version="1.1" xsi:schemaLocation="http://www.topografix.com/GPX/1/1 http://www.topografix.com/GPX/1/1/gpx.xsd http://www.garmin.com/xmlschemas/WaypointExtension/v1 http://www8.garmin.com/xmlschemas/WaypointExtensionv1.xsd http://www.garmin.com/xmlschemas/TrackPointExtension/v1 http://www.garmin.com/xmlschemas/TrackPointExtensionv1.xsd http://www.garmin.com/xmlschemas/GpxExtensions/v3 http://www8.garmin.com/xmlschemas/GpxExtensionsv3.xsd http://www.garmin.com/xmlschemas/ActivityExtension/v1 http://www8.garmin.com/xmlschemas/ActivityExtensionv1.xsd http://www.garmin.com/xmlschemas/AdventuresExtensions/v1 http://www8.garmin.com/xmlschemas/AdventuresExtensionv1.xsd http://www.garmin.com/xmlschemas/PressureExtension/v1 http://www.garmin.com/xmlschemas/PressureExtensionv1.xsd http://www.garmin.com/xmlschemas/TripExtensions/v1 http://www.garmin.com/xmlschemas/TripExtensionsv1.xsd http://www.garmin.com/xmlschemas/TripMetaDataExtensions/v1 http://www.garmin.com/xmlschemas/TripMetaDataExtensionsv1.xsd http://www.garmin.com/xmlschemas/ViaPointTransportationModeExtensions/v1 http://www.garmin.com/xmlschemas/ViaPointTransportationModeExtensionsv1.xsd http://www.garmin.com/xmlschemas/CreationTimeExtensions/v1 http://www.garmin.com/xmlschemas/CreationTimeExtensionsv1.xsd">

  <metadata>
    <link href="http://www.garmin.com">
      <text>Garmin International</text>
    </link>
    <time>2014-03-08T16:56:07Z</time>
    <bounds maxlat="47.376496866345406" maxlon="11.279049078002572" minlat="47.317131534218788" minlon="11.23746863566339"/>
  </metadata>

  <trk>
    <name>Eppzirler Scharte 2014.03.08</name>
    <extensions>
      <gpxx:TrackExtension>
        <gpxx:DisplayColor>DarkMagenta</gpxx:DisplayColor>
      </gpxx:TrackExtension>
    </extensions>
    <trkseg>
      <trkpt lat="47.376392260193825" lon="11.23746863566339">
        <ele>873.9755859375</ele>
        <time>2014-03-08T08:41:17Z</time>
      </trkpt>
      <trkpt lat="47.37642771564424" lon="11.237490009516478">
        <ele>873.9755859375</ele>
        <time>2014-03-08T08:41:18Z</time>
      </trkpt>
      <trkpt lat="47.376454034820199" lon="11.237504342570901">
        <ele>873.4951171875</ele>
        <time>2014-03-08T08:41:19Z</time>
      </trkpt>
      <trkpt lat="47.376496866345406" lon="11.237545162439346">
        <ele>873.014404296875</ele>
        <time>2014-03-08T08:41:21Z</time>
      </trkpt>
      <trkpt lat="47.376376502215862" lon="11.237706681713462">
        <ele>872.052978515625</ele>
        <time>2014-03-08T08:42:02Z</time>
      </trkpt>
      <trkpt lat="47.376364599913359" lon="11.237655719742179">
        <ele>872.052978515625</ele>
        <time>2014-03-08T08:42:08Z</time>
      </trkpt>
      <trkpt lat="47.376357559114695" lon="11.23765672557056">
        <ele>873.014404296875</ele>
        <time>2014-03-08T08:42:23Z</time>
      </trkpt>
      <trkpt lat="47.376319672912359" lon="11.237708274275064">
        <ele>873.4951171875</ele>
        <time>2014-03-08T08:42:34Z</time>
      </trkpt>
      <trkpt lat="47.376310955733061" lon="11.237731659784913">
        <ele>873.4951171875</ele>
        <time>2014-03-08T08:42:49Z</time>
      </trkpt>
      <trkpt lat="47.376287821680307" lon="11.237782621756196">
        <ele>874.93701171875</ele>
        <time>2014-03-08T08:43:05Z</time>
      </trkpt>
      <trkpt lat="47.37628354690969" lon="11.237797709181905">
        <ele>876.379150390625</ele>
        <time>2014-03-08T08:43:13Z</time>
      </trkpt>
      <trkpt lat="47.376266280189157" lon="11.237827548757195">
        <ele>878.3017578125</ele>
        <time>2014-03-08T08:43:26Z</time>
      </trkpt>
      <trkpt lat="47.376258987933397" lon="11.237838948145509">
        <ele>881.185791015625</ele>
        <time>2014-03-08T08:43:54Z</time>
      </trkpt>
      <trkpt lat="47.3762571439147" lon="11.237843139097095">
        <ele>884.55029296875</ele>
        <time>2014-03-08T08:44:26Z</time>
      </trkpt>
      <trkpt lat="47.376260496675968" lon="11.23791572637856">
        <ele>885.9921875</ele>
        <time>2014-03-08T08:44:36Z</time>
      </trkpt>
      <trkpt lat="47.376236859709024" lon="11.238037934526801">
        <ele>886.953369140625</ele>
        <time>2014-03-08T08:44:47Z</time>
      </trkpt>
      <trkpt lat="47.376231160014868" lon="11.238065762445331">
        <ele>888.3955078125</ele>
        <time>2014-03-08T08:45:00Z</time>
      </trkpt>
      <trkpt lat="47.37622001208365" lon="11.238069785758853">
        <ele>888.876220703125</ele>
        <time>2014-03-08T08:45:08Z</time>
      </trkpt>
      <trkpt lat="47.376213474199176" lon="11.238133991137147">
        <ele>891.760009765625</ele>
        <time>2014-03-08T08:45:35Z</time>
      </trkpt>
      <trkpt lat="47.376182293519378" lon="11.238357871770859">
        <ele>893.2021484375</ele>
        <time>2014-03-08T08:45:47Z</time>
      </trkpt>
      <trkpt lat="47.376136025413871" lon="11.238611843436956">
        <ele>896.56689453125</ele>
        <time>2014-03-08T08:46:03Z</time>
      </trkpt>
      <trkpt lat="47.376127811148763" lon="11.238928511738777">
        <ele>899.45068359375</ele>
        <time>2014-03-08T08:46:23Z</time>
      </trkpt>
      <trkpt lat="47.3761379532516" lon="11.239141244441271">
        <ele>901.373291015625</ele>
        <time>2014-03-08T08:46:37Z</time>
      </trkpt>
      <trkpt lat="47.376125799492002" lon="11.239385409280658">
        <ele>902.815185546875</ele>
        <time>2014-03-08T08:46:51Z</time>
      </trkpt>
      <trkpt lat="47.376137617975473" lon="11.239604596048594">
        <ele>905.69921875</ele>
        <time>2014-03-08T08:47:05Z</time>
      </trkpt>
      <trkpt lat="47.376138623803854" lon="11.23978229239583">
        <ele>908.583251953125</ele>
        <time>2014-03-08T08:47:17Z</time>
      </trkpt>
      <trkpt lat="47.376116160303354" lon="11.239973651245236">
        <ele>911.46728515625</ele>
        <time>2014-03-08T08:47:32Z</time>
      </trkpt>
      <trkpt lat="47.376106856390834" lon="11.240001982077956">
        <ele>911.947998046875</ele>
        <time>2014-03-08T08:47:34Z</time>
      </trkpt>
      <trkpt lat="47.376029742881656" lon="11.24021865427494">
        <ele>915.3125</ele>
        <time>2014-03-08T08:47:50Z</time>
      </trkpt>
      <trkpt lat="47.37596302293241" lon="11.240384867414832">
        <ele>918.677001953125</ele>
        <time>2014-03-08T08:48:04Z</time>
      </trkpt>
      <trkpt lat="47.375904181972146" lon="11.240452090278268">
        <ele>920.599609375</ele>
        <time>2014-03-08T08:48:17Z</time>
      </trkpt>
      <trkpt lat="47.375910300761461" lon="11.240448988974094">
        <ele>920.599609375</ele>
        <time>2014-03-08T08:48:26Z</time>
      </trkpt>
      <trkpt lat="47.375902840867639" lon="11.240468267351389">
        <ele>922.04150390625</ele>
        <time>2014-03-08T08:48:38Z</time>
      </trkpt>
      <trkpt lat="47.375795468688011" lon="11.240619728341699">
        <ele>925.40625</ele>
        <time>2014-03-08T08:48:51Z</time>
      </trkpt>
      <trkpt lat="47.37578708678484" lon="11.240630708634853">
        <ele>925.40625</ele>
        <time>2014-03-08T08:48:52Z</time>
      </trkpt>
      <trkpt lat="47.375697651877999" lon="11.240760209038854">
        <ele>928.290283203125</ele>
        <time>2014-03-08T08:49:03Z</time>
      </trkpt>
      <trkpt lat="47.375657334923744" lon="11.240808656439185">
        <ele>929.732177734375</ele>
        <time>2014-03-08T08:49:08Z</time>
      </trkpt>
      <trkpt lat="47.375608468428254" lon="11.240899600088596">
        <ele>931.65478515625</ele>
        <time>2014-03-08T08:49:17Z</time>
      </trkpt>
      <trkpt lat="47.375606456771493" lon="11.240902366116643">
        <ele>932.6162109375</ele>
        <time>2014-03-08T08:49:25Z</time>
      </trkpt>
      <trkpt lat="47.375602768734097" lon="11.240908904001117">
        <ele>933.0966796875</ele>
        <time>2014-03-08T08:49:35Z</time>
      </trkpt>
      <trkpt lat="47.375582652166486" lon="11.240929272025824">
        <ele>933.577392578125</ele>
        <time>2014-03-08T08:49:43Z</time>
      </trkpt>
      <trkpt lat="47.375566978007555" lon="11.240949220955372">
        <ele>934.05810546875</ele>
        <time>2014-03-08T08:49:47Z</time>
      </trkpt>
      <trkpt lat="47.375429263338447" lon="11.241050725802779">
        <ele>937.422607421875</ele>
        <time>2014-03-08T08:50:03Z</time>
      </trkpt>
      <trkpt lat="47.375325746834278" lon="11.241111326962709">
        <ele>941.26806640625</ele>
        <time>2014-03-08T08:50:14Z</time>
      </trkpt>
      <trkpt lat="47.37518803216517" lon="11.241256669163704">
        <ele>943.190673828125</ele>
        <time>2014-03-08T08:50:31Z</time>
      </trkpt>
      <trkpt lat="47.375199012458324" lon="11.241244599223137">
        <ele>944.632568359375</ele>
        <time>2014-03-08T08:50:41Z</time>
      </trkpt>
      <trkpt lat="47.375194067135453" lon="11.241279384121299">
        <ele>945.593994140625</ele>
        <time>2014-03-08T08:50:54Z</time>
      </trkpt>
      <trkpt lat="47.375106811523438" lon="11.241420367732644">
        <ele>948.95849609375</ele>
        <time>2014-03-08T08:51:04Z</time>
      </trkpt>
      <trkpt lat="47.375053502619267" lon="11.241520866751671">
        <ele>949.439208984375</ele>
        <time>2014-03-08T08:51:13Z</time>
      </trkpt>
      <trkpt lat="47.375052748247981" lon="11.241507204249501">
        <ele>948.95849609375</ele>
        <time>2014-03-08T08:51:19Z</time>
      </trkpt>
      <trkpt lat="47.375039421021938" lon="11.241505611687899">
        <ele>950.881103515625</ele>
        <time>2014-03-08T08:51:27Z</time>
      </trkpt>
      <trkpt lat="47.374909501522779" lon="11.241535618901253">
        <ele>951.842529296875</ele>
        <time>2014-03-08T08:51:39Z</time>
      </trkpt>
      <trkpt lat="47.374905645847321" lon="11.241542659699917">
        <ele>952.322998046875</ele>
        <time>2014-03-08T08:51:54Z</time>
      </trkpt>
      <trkpt lat="47.374898353591561" lon="11.241534780710936">
        <ele>953.76513671875</ele>
        <time>2014-03-08T08:52:11Z</time>
      </trkpt>
      <trkpt lat="47.374898605048656" lon="11.241544503718615">
        <ele>956.649169921875</ele>
        <time>2014-03-08T08:52:43Z</time>
      </trkpt>
      <trkpt lat="47.374856108799577" lon="11.241579372435808">
        <ele>957.1298828125</ele>
        <time>2014-03-08T08:52:48Z</time>
      </trkpt>
      <trkpt lat="47.374712778255343" lon="11.241790344938636">
        <ele>958.57177734375</ele>
        <time>2014-03-08T08:53:02Z</time>
      </trkpt>
      <trkpt lat="47.374529717490077" lon="11.241889502853155">
        <ele>961.9365234375</ele>
        <time>2014-03-08T08:53:15Z</time>
      </trkpt>
      <trkpt lat="47.374357637017965" lon="11.241967203095555">
        <ele>964.8203125</ele>
        <time>2014-03-08T08:53:31Z</time>
      </trkpt>
      <trkpt lat="47.374231573194265" lon="11.242091674357653">
        <ele>968.184814453125</ele>
        <time>2014-03-08T08:53:44Z</time>
      </trkpt>
      <trkpt lat="47.374069131910801" lon="11.242265095934272">
        <ele>969.626953125</ele>
        <time>2014-03-08T08:54:01Z</time>
      </trkpt>
      <trkpt lat="47.373940637335181" lon="11.242360062897205">
        <ele>972.99169921875</ele>
        <time>2014-03-08T08:54:12Z</time>
      </trkpt>
      <trkpt lat="47.373808454722166" lon="11.242435164749622">
        <ele>974.43359375</ele>
        <time>2014-03-08T08:54:25Z</time>
      </trkpt>
      <trkpt lat="47.373761180788279" lon="11.242454191669822">
        <ele>975.87548828125</ele>
        <time>2014-03-08T08:54:36Z</time>
      </trkpt>
      <trkpt lat="47.373758666217327" lon="11.242462154477835">
        <ele>979.239990234375</ele>
        <time>2014-03-08T08:55:29Z</time>
      </trkpt>
      <trkpt lat="47.373704770579934" lon="11.242447989061475">
        <ele>980.201416015625</ele>
        <time>2014-03-08T08:55:59Z</time>
      </trkpt>
      <trkpt lat="47.373549453914165" lon="11.242592157796025">
        <ele>982.1240234375</ele>
        <time>2014-03-08T08:56:13Z</time>
      </trkpt>
      <trkpt lat="47.373337559401989" lon="11.242748312652111">
        <ele>984.52734375</ele>
        <time>2014-03-08T08:56:28Z</time>
      </trkpt>
      <trkpt lat="47.37318123690784" lon="11.242771362885833">
        <ele>985.488525390625</ele>
        <time>2014-03-08T08:56:38Z</time>
      </trkpt>
      <trkpt lat="47.373053329065442" lon="11.242813775315881">
        <ele>987.891845703125</ele>
        <time>2014-03-08T08:56:51Z</time>
      </trkpt>
      <trkpt lat="47.373005719855428" lon="11.242837747558951">
        <ele>988.853515625</ele>
        <time>2014-03-08T08:56:57Z</time>
      </trkpt>
      <trkpt lat="47.372864317148924" lon="11.242920141667128">
        <ele>991.256591796875</ele>
        <time>2014-03-08T08:57:13Z</time>
      </trkpt>
      <trkpt lat="47.37275954335928" lon="11.243059113621712">
        <ele>992.69873046875</ele>
        <time>2014-03-08T08:57:26Z</time>
      </trkpt>
      <trkpt lat="47.372640604153275" lon="11.243162546306849">
        <ele>995.58251953125</ele>
        <time>2014-03-08T08:57:41Z</time>
      </trkpt>
      <trkpt lat="47.372497860342264" lon="11.243247790262103">
        <ele>996.5439453125</ele>
        <time>2014-03-08T08:57:56Z</time>
      </trkpt>
      <trkpt lat="47.372354362159967" lon="11.243324317038059">
        <ele>998.947021484375</ele>
        <time>2014-03-08T08:58:11Z</time>
      </trkpt>
      <trkpt lat="47.372164512053132" lon="11.243330603465438">
        <ele>1001.8310546875</ele>
        <time>2014-03-08T08:58:29Z</time>
      </trkpt>
      <trkpt lat="47.372014978900552" lon="11.24343822710216">
        <ele>1004.715087890625</ele>
        <time>2014-03-08T08:58:46Z</time>
      </trkpt>
      <trkpt lat="47.371820854023099" lon="11.243514837697148">
        <ele>1006.156982421875</ele>
        <time>2014-03-08T08:59:05Z</time>
      </trkpt>
      <trkpt lat="47.371669141575694" lon="11.24356278218329">
        <ele>1008.560302734375</ele>
        <time>2014-03-08T08:59:20Z</time>
      </trkpt>
      <trkpt lat="47.371516842395067" lon="11.243687001988292">
        <ele>1010.48291015625</ele>
        <time>2014-03-08T08:59:37Z</time>
      </trkpt>
      <trkpt lat="47.371411146596074" lon="11.243824465200305">
        <ele>1011.925048828125</ele>
        <time>2014-03-08T08:59:52Z</time>
      </trkpt>
      <trkpt lat="47.371258093044162" lon="11.24397911131382">
        <ele>1014.328125</ele>
        <time>2014-03-08T09:00:10Z</time>
      </trkpt>
      <trkpt lat="47.371140327304602" lon="11.244115903973579">
        <ele>1017.212158203125</ele>
        <time>2014-03-08T09:00:26Z</time>
      </trkpt>
      <trkpt lat="47.371052652597427" lon="11.244310950860381">
        <ele>1018.654052734375</ele>
        <time>2014-03-08T09:00:41Z</time>
      </trkpt>
      <trkpt lat="47.370981071144342" lon="11.244503734633327">
        <ele>1019.615478515625</ele>
        <time>2014-03-08T09:00:55Z</time>
      </trkpt>
      <trkpt lat="47.370848134160042" lon="11.244649663567543">
        <ele>1022.018798828125</ele>
        <time>2014-03-08T09:01:10Z</time>
      </trkpt>
      <trkpt lat="47.370724165812135" lon="11.244772961363196">
        <ele>1024.422119140625</ele>
        <time>2014-03-08T09:01:24Z</time>
      </trkpt>
      <trkpt lat="47.37065258435905" lon="11.244942946359515">
        <ele>1025.38330078125</ele>
        <time>2014-03-08T09:01:38Z</time>
      </trkpt>
      <trkpt lat="47.370628025382757" lon="11.245045624673367">
        <ele>1027.30615234375</ele>
        <time>2014-03-08T09:01:46Z</time>
      </trkpt>
      <trkpt lat="47.370559712871909" lon="11.245182668790221">
        <ele>1028.748046875</ele>
        <time>2014-03-08T09:01:56Z</time>
      </trkpt>
      <trkpt lat="47.370433229953051" lon="11.245334800332785">
        <ele>1030.18994140625</ele>
        <time>2014-03-08T09:02:10Z</time>
      </trkpt>
      <trkpt lat="47.370297946035862" lon="11.245500845834613">
        <ele>1032.59326171875</ele>
        <time>2014-03-08T09:02:27Z</time>
      </trkpt>
      <trkpt lat="47.370240781456232" lon="11.245697652921081">
        <ele>1034.99658203125</ele>
        <time>2014-03-08T09:02:41Z</time>
      </trkpt>
      <trkpt lat="47.370249582454562" lon="11.245898315683007">
        <ele>1036.919189453125</ele>
        <time>2014-03-08T09:02:55Z</time>
      </trkpt>
      <trkpt lat="47.370269615203142" lon="11.246147006750107">
        <ele>1038.361328125</ele>
        <time>2014-03-08T09:03:12Z</time>
      </trkpt>
      <trkpt lat="47.370263580232859" lon="11.246398044750094">
        <ele>1040.764404296875</ele>
        <time>2014-03-08T09:03:28Z</time>
      </trkpt>
      <trkpt lat="47.370230387896299" lon="11.246638102456927">
        <ele>1043.6484375</ele>
        <time>2014-03-08T09:03:44Z</time>
      </trkpt>
      <trkpt lat="47.37019082531333" lon="11.246861899271607">
        <ele>1046.0517578125</ele>
        <time>2014-03-08T09:04:00Z</time>
      </trkpt>
      <trkpt lat="47.370146820321679" lon="11.2470349855721">
        <ele>1048.454833984375</ele>
        <time>2014-03-08T09:04:13Z</time>
      </trkpt>
      <trkpt lat="47.370040118694305" lon="11.247168174013495">
        <ele>1048.935546875</ele>
        <time>2014-03-08T09:04:26Z</time>
      </trkpt>
      <trkpt lat="47.36992109566927" lon="11.2472680862993">
        <ele>1050.858154296875</ele>
        <time>2014-03-08T09:04:38Z</time>
      </trkpt>
      <trkpt lat="47.369837528094649" lon="11.247343607246876">
        <ele>1050.858154296875</ele>
        <time>2014-03-08T09:04:46Z</time>
      </trkpt>
      <trkpt lat="47.369807856157422" lon="11.247374787926674">
        <ele>1050.858154296875</ele>
        <time>2014-03-08T09:04:49Z</time>
      </trkpt>
      <trkpt lat="47.369757983833551" lon="11.247462881729007">
        <ele>1051.3388671875</ele>
        <time>2014-03-08T09:04:56Z</time>
      </trkpt>
      <trkpt lat="47.369734095409513" lon="11.247485177591443">
        <ele>1051.3388671875</ele>
        <time>2014-03-08T09:04:58Z</time>
      </trkpt>
      <trkpt lat="47.369590681046247" lon="11.247628005221486">
        <ele>1053.742431640625</ele>
        <time>2014-03-08T09:05:12Z</time>
      </trkpt>
      <trkpt lat="47.369467886164784" lon="11.247824309393764">
        <ele>1054.70361328125</ele>
        <time>2014-03-08T09:05:29Z</time>
      </trkpt>
      <trkpt lat="47.369406195357442" lon="11.247891280800104">
        <ele>1056.1455078125</ele>
        <time>2014-03-08T09:05:40Z</time>
      </trkpt>
      <trkpt lat="47.369353473186493" lon="11.248055649921298">
        <ele>1057.10693359375</ele>
        <time>2014-03-08T09:05:51Z</time>
      </trkpt>
      <trkpt lat="47.369333440437913" lon="11.248095547780395">
        <ele>1057.587646484375</ele>
        <time>2014-03-08T09:05:54Z</time>
      </trkpt>
      <trkpt lat="47.369309468194842" lon="11.248215828090906">
        <ele>1059.029541015625</ele>
        <time>2014-03-08T09:06:04Z</time>
      </trkpt>
      <trkpt lat="47.369197485968471" lon="11.24836360104382">
        <ele>1060.471435546875</ele>
        <time>2014-03-08T09:06:17Z</time>
      </trkpt>
      <trkpt lat="47.369026411324739" lon="11.248529898002744">
        <ele>1062.39404296875</ele>
        <time>2014-03-08T09:06:34Z</time>
      </trkpt>
      <trkpt lat="47.368903448805213" lon="11.248633749783039">
        <ele>1063.8359375</ele>
        <time>2014-03-08T09:06:46Z</time>
      </trkpt>
      <trkpt lat="47.368806470185518" lon="11.248728381469846">
        <ele>1064.316650390625</ele>
        <time>2014-03-08T09:06:56Z</time>
      </trkpt>
      <trkpt lat="47.368652326986194" lon="11.248861569911242">
        <ele>1066.719970703125</ele>
        <time>2014-03-08T09:07:10Z</time>
      </trkpt>
      <trkpt lat="47.368622403591871" lon="11.248867688700557">
        <ele>1066.2392578125</ele>
        <time>2014-03-08T09:07:19Z</time>
      </trkpt>
      <trkpt lat="47.368628270924091" lon="11.248860647901893">
        <ele>1067.20068359375</ele>
        <time>2014-03-08T09:07:31Z</time>
      </trkpt>
      <trkpt lat="47.368610166013241" lon="11.248871376737952">
        <ele>1067.20068359375</ele>
        <time>2014-03-08T09:07:45Z</time>
      </trkpt>
      <trkpt lat="47.36860278993845" lon="11.248875148594379">
        <ele>1070.084716796875</ele>
        <time>2014-03-08T09:08:39Z</time>
      </trkpt>
      <trkpt lat="47.368582841008902" lon="11.248883865773678">
        <ele>1071.046142578125</ele>
        <time>2014-03-08T09:09:02Z</time>
      </trkpt>
      <trkpt lat="47.368425847962499" lon="11.249029291793704">
        <ele>1073.929931640625</ele>
        <time>2014-03-08T09:09:19Z</time>
      </trkpt>
      <trkpt lat="47.368303807452321" lon="11.249170945957303">
        <ele>1075.371826171875</ele>
        <time>2014-03-08T09:09:34Z</time>
      </trkpt>
      <trkpt lat="47.36816450022161" lon="11.249314108863473">
        <ele>1077.775146484375</ele>
        <time>2014-03-08T09:09:50Z</time>
      </trkpt>
      <trkpt lat="47.368012955412269" lon="11.249412093311548">
        <ele>1079.217041015625</ele>
        <time>2014-03-08T09:10:05Z</time>
      </trkpt>
      <trkpt lat="47.367914132773876" lon="11.249475963413715">
        <ele>1081.139892578125</ele>
        <time>2014-03-08T09:10:15Z</time>
      </trkpt>
      <trkpt lat="47.367812292650342" lon="11.249548634514213">
        <ele>1081.620361328125</ele>
        <time>2014-03-08T09:10:27Z</time>
      </trkpt>
      <trkpt lat="47.367668962106109" lon="11.249691629782319">
        <ele>1083.54296875</ele>
        <time>2014-03-08T09:10:45Z</time>
      </trkpt>
      <trkpt lat="47.367544323205948" lon="11.249813251197338">
        <ele>1086.90771484375</ele>
        <time>2014-03-08T09:11:00Z</time>
      </trkpt>
      <trkpt lat="47.367404596880078" lon="11.249952390789986">
        <ele>1088.349853515625</ele>
        <time>2014-03-08T09:11:17Z</time>
      </trkpt>
      <trkpt lat="47.367232348769903" lon="11.250101337209344">
        <ele>1091.233642578125</ele>
        <time>2014-03-08T09:11:37Z</time>
      </trkpt>
      <trkpt lat="47.367120701819658" lon="11.250282051041722">
        <ele>1092.67578125</ele>
        <time>2014-03-08T09:11:52Z</time>
      </trkpt>
      <trkpt lat="47.367103267461061" lon="11.250483132898808">
        <ele>1093.15625</ele>
        <time>2014-03-08T09:12:03Z</time>
      </trkpt>
      <trkpt lat="47.36709144897759" lon="11.250679101794958">
        <ele>1093.15625</ele>
        <time>2014-03-08T09:12:16Z</time>
      </trkpt>
      <trkpt lat="47.366972006857395" lon="11.250797118991613">
        <ele>1095.5595703125</ele>
        <time>2014-03-08T09:12:29Z</time>
      </trkpt>
      <trkpt lat="47.366786599159241" lon="11.250860569998622">
        <ele>1097.00146484375</ele>
        <time>2014-03-08T09:12:46Z</time>
      </trkpt>
      <trkpt lat="47.366552408784628" lon="11.250875070691109">
        <ele>1097.962890625</ele>
        <time>2014-03-08T09:13:06Z</time>
      </trkpt>
      <trkpt lat="47.366391308605671" lon="11.25094648450613">
        <ele>1099.40478515625</ele>
        <time>2014-03-08T09:13:21Z</time>
      </trkpt>
      <trkpt lat="47.36625250428915" lon="11.251137591898441">
        <ele>1101.32763671875</ele>
        <time>2014-03-08T09:13:37Z</time>
      </trkpt>
      <trkpt lat="47.366119651123881" lon="11.251275641843677">
        <ele>1103.73095703125</ele>
        <time>2014-03-08T09:13:53Z</time>
      </trkpt>
      <trkpt lat="47.365943714976311" lon="11.251372704282403">
        <ele>1105.1728515625</ele>
        <time>2014-03-08T09:14:10Z</time>
      </trkpt>
      <trkpt lat="47.365797366946936" lon="11.251461636275053">
        <ele>1107.576171875</ele>
        <time>2014-03-08T09:14:25Z</time>
      </trkpt>
      <trkpt lat="47.365686809644103" lon="11.251586778089404">
        <ele>1109.498779296875</ele>
        <time>2014-03-08T09:14:39Z</time>
      </trkpt>
      <trkpt lat="47.365596452727914" lon="11.251754751428962">
        <ele>1111.42138671875</ele>
        <time>2014-03-08T09:14:54Z</time>
      </trkpt>
      <trkpt lat="47.365480363368988" lon="11.251921467483044">
        <ele>1112.382568359375</ele>
        <time>2014-03-08T09:15:08Z</time>
      </trkpt>
      <trkpt lat="47.36536268144846" lon="11.25201559625566">
        <ele>1113.343994140625</ele>
        <time>2014-03-08T09:15:20Z</time>
      </trkpt>
      <trkpt lat="47.36516235396266" lon="11.252151886001229">
        <ele>1115.747314453125</ele>
        <time>2014-03-08T09:15:40Z</time>
      </trkpt>
      <trkpt lat="47.365101333707571" lon="11.252190861850977">
        <ele>1116.708740234375</ele>
        <time>2014-03-08T09:15:46Z</time>
      </trkpt>
      <trkpt lat="47.364956913515925" lon="11.252308795228601">
        <ele>1118.150634765625</ele>
        <time>2014-03-08T09:16:01Z</time>
      </trkpt>
      <trkpt lat="47.364824060350657" lon="11.252434691414237">
        <ele>1119.5927734375</ele>
        <time>2014-03-08T09:16:16Z</time>
      </trkpt>
      <trkpt lat="47.364702774211764" lon="11.252558492124081">
        <ele>1121.51513671875</ele>
        <time>2014-03-08T09:16:30Z</time>
      </trkpt>
      <trkpt lat="47.364602610468864" lon="11.252662008628249">
        <ele>1121.995849609375</ele>
        <time>2014-03-08T09:16:41Z</time>
      </trkpt>
      <trkpt lat="47.364443941041827" lon="11.252825288102031">
        <ele>1122.957275390625</ele>
        <time>2014-03-08T09:16:58Z</time>
      </trkpt>
      <trkpt lat="47.364327181130648" lon="11.252984963357449">
        <ele>1124.399169921875</ele>
        <time>2014-03-08T09:17:13Z</time>
      </trkpt>
      <trkpt lat="47.364181000739336" lon="11.253189565613866">
        <ele>1126.32177734375</ele>
        <time>2014-03-08T09:17:31Z</time>
      </trkpt>
      <trkpt lat="47.364057367667556" lon="11.253342954441905">
        <ele>1127.763671875</ele>
        <time>2014-03-08T09:17:47Z</time>
      </trkpt>
      <trkpt lat="47.36393298022449" lon="11.253504557535052">
        <ele>1130.1669921875</ele>
        <time>2014-03-08T09:18:03Z</time>
      </trkpt>
      <trkpt lat="47.363889142870903" lon="11.253574630245566">
        <ele>1131.12841796875</ele>
        <time>2014-03-08T09:18:13Z</time>
      </trkpt>
      <trkpt lat="47.363862153142691" lon="11.253616372123361">
        <ele>1132.570556640625</ele>
        <time>2014-03-08T09:18:45Z</time>
      </trkpt>
      <trkpt lat="47.363709686324" lon="11.253761630505323">
        <ele>1133.53173828125</ele>
        <time>2014-03-08T09:19:00Z</time>
      </trkpt>
      <trkpt lat="47.363570798188448" lon="11.253866152837873">
        <ele>1134.973876953125</ele>
        <time>2014-03-08T09:19:13Z</time>
      </trkpt>
      <trkpt lat="47.363388910889626" lon="11.253988025709987">
        <ele>1136.896240234375</ele>
        <time>2014-03-08T09:19:31Z</time>
      </trkpt>
      <trkpt lat="47.363247340545058" lon="11.254129176959395">
        <ele>1138.819091796875</ele>
        <time>2014-03-08T09:19:47Z</time>
      </trkpt>
      <trkpt lat="47.363125383853912" lon="11.254333276301622">
        <ele>1141.22216796875</ele>
        <time>2014-03-08T09:20:05Z</time>
      </trkpt>
      <trkpt lat="47.362987166270614" lon="11.25452907755971">
        <ele>1143.62548828125</ele>
        <time>2014-03-08T09:20:23Z</time>
      </trkpt>
      <trkpt lat="47.362859006971121" lon="11.254635527729988">
        <ele>1145.0673828125</ele>
        <time>2014-03-08T09:20:37Z</time>
      </trkpt>
      <trkpt lat="47.362679885700345" lon="11.254736529663205">
        <ele>1146.509521484375</ele>
        <time>2014-03-08T09:20:54Z</time>
      </trkpt>
      <trkpt lat="47.362519204616547" lon="11.254852032288909">
        <ele>1147.951416015625</ele>
        <time>2014-03-08T09:21:11Z</time>
      </trkpt>
      <trkpt lat="47.362353410571814" lon="11.254971055313945">
        <ele>1149.874267578125</ele>
        <time>2014-03-08T09:21:28Z</time>
      </trkpt>
      <trkpt lat="47.362191388383508" lon="11.255071219056845">
        <ele>1151.316162109375</ele>
        <time>2014-03-08T09:21:45Z</time>
      </trkpt>
      <trkpt lat="47.362031294032931" lon="11.255168784409761">
        <ele>1153.23876953125</ele>
        <time>2014-03-08T09:22:01Z</time>
      </trkpt>
      <trkpt lat="47.361893747001886" lon="11.255261404439807">
        <ele>1154.6806640625</ele>
        <time>2014-03-08T09:22:15Z</time>
      </trkpt>
      <trkpt lat="47.361721582710743" lon="11.255338601768017">
        <ele>1155.64208984375</ele>
        <time>2014-03-08T09:22:31Z</time>
      </trkpt>
      <trkpt lat="47.361554363742471" lon="11.255344804376364">
        <ele>1157.083984375</ele>
        <time>2014-03-08T09:22:45Z</time>
      </trkpt>
      <trkpt lat="47.361380942165852" lon="11.255375230684876">
        <ele>1157.564697265625</ele>
        <time>2014-03-08T09:23:00Z</time>
      </trkpt>
      <trkpt lat="47.361190505325794" lon="11.255445554852486">
        <ele>1159.4873046875</ele>
        <time>2014-03-08T09:23:16Z</time>
      </trkpt>
      <trkpt lat="47.361012222245336" lon="11.255522668361664">
        <ele>1161.409912109375</ele>
        <time>2014-03-08T09:23:31Z</time>
      </trkpt>
      <trkpt lat="47.36085120588541" lon="11.255560303106904">
        <ele>1163.81298828125</ele>
        <time>2014-03-08T09:23:46Z</time>
      </trkpt>
      <trkpt lat="47.360680717974901" lon="11.255674632266164">
        <ele>1164.774658203125</ele>
        <time>2014-03-08T09:24:03Z</time>
      </trkpt>
      <trkpt lat="47.360505703836679" lon="11.255795164033771">
        <ele>1166.216552734375</ele>
        <time>2014-03-08T09:24:20Z</time>
      </trkpt>
      <trkpt lat="47.360387854278088" lon="11.255954084917903">
        <ele>1167.177978515625</ele>
        <time>2014-03-08T09:24:34Z</time>
      </trkpt>
      <trkpt lat="47.360303699970245" lon="11.256140498444438">
        <ele>1167.658447265625</ele>
        <time>2014-03-08T09:24:48Z</time>
      </trkpt>
      <trkpt lat="47.360154921188951" lon="11.25638198107481">
        <ele>1170.061767578125</ele>
        <time>2014-03-08T09:25:07Z</time>
      </trkpt>
      <trkpt lat="47.360006980597973" lon="11.256463956087828">
        <ele>1171.023193359375</ele>
        <time>2014-03-08T09:25:21Z</time>
      </trkpt>
      <trkpt lat="47.359804641455412" lon="11.256533106788993">
        <ele>1171.503662109375</ele>
        <time>2014-03-08T09:25:38Z</time>
      </trkpt>
      <trkpt lat="47.359587633982301" lon="11.256600748747587">
        <ele>1173.426513671875</ele>
        <time>2014-03-08T09:25:56Z</time>
      </trkpt>
      <trkpt lat="47.359419325366616" lon="11.256571998819709">
        <ele>1173.426513671875</ele>
        <time>2014-03-08T09:26:10Z</time>
      </trkpt>
      <trkpt lat="47.359269037842751" lon="11.256508631631732">
        <ele>1174.868408203125</ele>
        <time>2014-03-08T09:26:23Z</time>
      </trkpt>
      <trkpt lat="47.35910827293992" lon="11.256482228636742">
        <ele>1176.791015625</ele>
        <time>2014-03-08T09:26:37Z</time>
      </trkpt>
      <trkpt lat="47.358967121690512" lon="11.256521036848426">
        <ele>1176.310302734375</ele>
        <time>2014-03-08T09:26:49Z</time>
      </trkpt>
      <trkpt lat="47.358798813074827" lon="11.256619356572628">
        <ele>1177.271728515625</ele>
        <time>2014-03-08T09:27:03Z</time>
      </trkpt>
      <trkpt lat="47.358634108677506" lon="11.256747348234057">
        <ele>1179.194091796875</ele>
        <time>2014-03-08T09:27:20Z</time>
      </trkpt>
      <trkpt lat="47.358530340716243" lon="11.256809625774622">
        <ele>1180.636474609375</ele>
        <time>2014-03-08T09:27:33Z</time>
      </trkpt>
      <trkpt lat="47.358386674895883" lon="11.25677190721035">
        <ele>1182.078369140625</ele>
        <time>2014-03-08T09:27:47Z</time>
      </trkpt>
      <trkpt lat="47.358285337686539" lon="11.256774589419365">
        <ele>1183.03955078125</ele>
        <time>2014-03-08T09:27:58Z</time>
      </trkpt>
      <trkpt lat="47.358177211135626" lon="11.256781546398997">
        <ele>1185.923583984375</ele>
        <time>2014-03-08T09:28:10Z</time>
      </trkpt>
      <trkpt lat="47.358053242787719" lon="11.25677827745676">
        <ele>1187.84619140625</ele>
        <time>2014-03-08T09:28:24Z</time>
      </trkpt>
      <trkpt lat="47.357987109571695" lon="11.256753467023373">
        <ele>1188.8076171875</ele>
        <time>2014-03-08T09:28:35Z</time>
      </trkpt>
      <trkpt lat="47.357911840081215" lon="11.256729662418365">
        <ele>1190.24951171875</ele>
        <time>2014-03-08T09:28:46Z</time>
      </trkpt>
      <trkpt lat="47.35781142488122" lon="11.256698062643409">
        <ele>1191.69140625</ele>
        <time>2014-03-08T09:28:58Z</time>
      </trkpt>
      <trkpt lat="47.357728779315948" lon="11.256657829508185">
        <ele>1193.13330078125</ele>
        <time>2014-03-08T09:29:09Z</time>
      </trkpt>
      <trkpt lat="47.357594249770045" lon="11.256597395986319">
        <ele>1196.017578125</ele>
        <time>2014-03-08T09:29:25Z</time>
      </trkpt>
      <trkpt lat="47.357510598376393" lon="11.256555151194334">
        <ele>1196.978759765625</ele>
        <time>2014-03-08T09:29:37Z</time>
      </trkpt>
      <trkpt lat="47.357409261167049" lon="11.256516762077808">
        <ele>1199.382080078125</ele>
        <time>2014-03-08T09:29:51Z</time>
      </trkpt>
      <trkpt lat="47.357340278103948" lon="11.256504021584988">
        <ele>1200.343505859375</ele>
        <time>2014-03-08T09:30:00Z</time>
      </trkpt>
      <trkpt lat="47.357259811833501" lon="11.256477031856775">
        <ele>1203.7080078125</ele>
        <time>2014-03-08T09:30:12Z</time>
      </trkpt>
      <trkpt lat="47.357167946174741" lon="11.256471751257777">
        <ele>1204.669189453125</ele>
        <time>2014-03-08T09:30:25Z</time>
      </trkpt>
      <trkpt lat="47.357004750519991" lon="11.256449371576309">
        <ele>1207.55322265625</ele>
        <time>2014-03-08T09:30:44Z</time>
      </trkpt>
      <trkpt lat="47.356865610927343" lon="11.256446437910199">
        <ele>1210.43701171875</ele>
        <time>2014-03-08T09:31:02Z</time>
      </trkpt>
      <trkpt lat="47.356757819652557" lon="11.256446857005358">
        <ele>1212.840576171875</ele>
        <time>2014-03-08T09:31:16Z</time>
      </trkpt>
      <trkpt lat="47.356642065569758" lon="11.256300425156951">
        <ele>1214.76318359375</ele>
        <time>2014-03-08T09:31:34Z</time>
      </trkpt>
      <trkpt lat="47.356532011181116" lon="11.256158351898193">
        <ele>1217.64697265625</ele>
        <time>2014-03-08T09:31:52Z</time>
      </trkpt>
      <trkpt lat="47.356445426121354" lon="11.256068833172321">
        <ele>1219.56982421875</ele>
        <time>2014-03-08T09:32:07Z</time>
      </trkpt>
      <trkpt lat="47.3563411552459" lon="11.256035221740603">
        <ele>1221.972900390625</ele>
        <time>2014-03-08T09:32:21Z</time>
      </trkpt>
      <trkpt lat="47.356199165806174" lon="11.25611174851656">
        <ele>1224.85693359375</ele>
        <time>2014-03-08T09:32:42Z</time>
      </trkpt>
      <trkpt lat="47.356044603511691" lon="11.256147623062134">
        <ele>1227.26025390625</ele>
        <time>2014-03-08T09:32:57Z</time>
      </trkpt>
      <trkpt lat="47.355887526646256" lon="11.25614108517766">
        <ele>1230.144287109375</ele>
        <time>2014-03-08T09:33:15Z</time>
      </trkpt>
      <trkpt lat="47.355724079534411" lon="11.256159525364637">
        <ele>1233.028076171875</ele>
        <time>2014-03-08T09:33:35Z</time>
      </trkpt>
      <trkpt lat="47.35559206455946" lon="11.256153909489512">
        <ele>1234.950927734375</ele>
        <time>2014-03-08T09:33:52Z</time>
      </trkpt>
      <trkpt lat="47.355491649359465" lon="11.256132703274488">
        <ele>1235.912109375</ele>
        <time>2014-03-08T09:34:04Z</time>
      </trkpt>
      <trkpt lat="47.355391820892692" lon="11.2560975831002">
        <ele>1237.834716796875</ele>
        <time>2014-03-08T09:34:17Z</time>
      </trkpt>
      <trkpt lat="47.355278832837939" lon="11.256088446825743">
        <ele>1240.238037109375</ele>
        <time>2014-03-08T09:34:33Z</time>
      </trkpt>
      <trkpt lat="47.355134496465325" lon="11.256224988028407">
        <ele>1243.121826171875</ele>
        <time>2014-03-08T09:34:53Z</time>
      </trkpt>
      <trkpt lat="47.354996362701058" lon="11.256345855072141">
        <ele>1246.006103515625</ele>
        <time>2014-03-08T09:35:10Z</time>
      </trkpt>
      <trkpt lat="47.354882536455989" lon="11.256401175633073">
        <ele>1248.4091796875</ele>
        <time>2014-03-08T09:35:25Z</time>
      </trkpt>
      <trkpt lat="47.354779522866011" lon="11.256474517285824">
        <ele>1248.889892578125</ele>
        <time>2014-03-08T09:35:41Z</time>
      </trkpt>
      <trkpt lat="47.354611298069358" lon="11.256515337154269">
        <ele>1252.25439453125</ele>
        <time>2014-03-08T09:36:00Z</time>
      </trkpt>
      <trkpt lat="47.354431170970201" lon="11.256527658551931">
        <ele>1254.17724609375</ele>
        <time>2014-03-08T09:36:20Z</time>
      </trkpt>
      <trkpt lat="47.354276608675718" lon="11.25651047565043">
        <ele>1256.099609375</ele>
        <time>2014-03-08T09:36:38Z</time>
      </trkpt>
      <trkpt lat="47.354147359728813" lon="11.256495723500848">
        <ele>1258.0224609375</ele>
        <time>2014-03-08T09:36:54Z</time>
      </trkpt>
      <trkpt lat="47.353991288691759" lon="11.256463788449764">
        <ele>1260.906494140625</ele>
        <time>2014-03-08T09:37:14Z</time>
      </trkpt>
      <trkpt lat="47.353845946490765" lon="11.256417604163289">
        <ele>1263.790283203125</ele>
        <time>2014-03-08T09:37:33Z</time>
      </trkpt>
      <trkpt lat="47.353682918474078" lon="11.256381226703525">
        <ele>1265.232421875</ele>
        <time>2014-03-08T09:37:50Z</time>
      </trkpt>
      <trkpt lat="47.353577809408307" lon="11.256349878385663">
        <ele>1266.67431640625</ele>
        <time>2014-03-08T09:38:01Z</time>
      </trkpt>
      <trkpt lat="47.35345333814621" lon="11.256311573088169">
        <ele>1267.635498046875</ele>
        <time>2014-03-08T09:38:14Z</time>
      </trkpt>
      <trkpt lat="47.353359377011657" lon="11.256283912807703">
        <ele>1268.1162109375</ele>
        <time>2014-03-08T09:38:24Z</time>
      </trkpt>
      <trkpt lat="47.353250412270427" lon="11.256243009120226">
        <ele>1269.07763671875</ele>
        <time>2014-03-08T09:38:37Z</time>
      </trkpt>
      <trkpt lat="47.35319534316659" lon="11.25620705075562">
        <ele>1269.558349609375</ele>
        <time>2014-03-08T09:38:44Z</time>
      </trkpt>
      <trkpt lat="47.353081097826362" lon="11.256152065470815">
        <ele>1271.480712890625</ele>
        <time>2014-03-08T09:38:58Z</time>
      </trkpt>
      <trkpt lat="47.352998368442059" lon="11.256116526201367">
        <ele>1271.96142578125</ele>
        <time>2014-03-08T09:39:07Z</time>
      </trkpt>
      <trkpt lat="47.352902563288808" lon="11.256047543138266">
        <ele>1272.9228515625</ele>
        <time>2014-03-08T09:39:18Z</time>
      </trkpt>
      <trkpt lat="47.352772559970617" lon="11.255963472649455">
        <ele>1273.884033203125</ele>
        <time>2014-03-08T09:39:32Z</time>
      </trkpt>
      <trkpt lat="47.352628894150257" lon="11.255891472101212">
        <ele>1274.845458984375</ele>
        <time>2014-03-08T09:39:46Z</time>
      </trkpt>
      <trkpt lat="47.35253568738699" lon="11.25586842186749">
        <ele>1275.325927734375</ele>
        <time>2014-03-08T09:39:55Z</time>
      </trkpt>
      <trkpt lat="47.352435775101185" lon="11.255856016650796">
        <ele>1276.28759765625</ele>
        <time>2014-03-08T09:40:04Z</time>
      </trkpt>
      <trkpt lat="47.352336281910539" lon="11.25584939494729">
        <ele>1277.2490234375</ele>
        <time>2014-03-08T09:40:14Z</time>
      </trkpt>
      <trkpt lat="47.35216336324811" lon="11.255847634747624">
        <ele>1278.69091796875</ele>
        <time>2014-03-08T09:40:30Z</time>
      </trkpt>
      <trkpt lat="47.352021206170321" lon="11.255827099084854">
        <ele>1280.613525390625</ele>
        <time>2014-03-08T09:40:44Z</time>
      </trkpt>
      <trkpt lat="47.351900255307555" lon="11.255806898698211">
        <ele>1281.57470703125</ele>
        <time>2014-03-08T09:40:57Z</time>
      </trkpt>
      <trkpt lat="47.351744351908565" lon="11.255800276994705">
        <ele>1283.497314453125</ele>
        <time>2014-03-08T09:41:14Z</time>
      </trkpt>
      <trkpt lat="47.351643601432443" lon="11.255829781293869">
        <ele>1285.419921875</ele>
        <time>2014-03-08T09:41:26Z</time>
      </trkpt>
      <trkpt lat="47.351462552323937" lon="11.255867332220078">
        <ele>1287.8232421875</ele>
        <time>2014-03-08T09:41:46Z</time>
      </trkpt>
      <trkpt lat="47.351355934515595" lon="11.255856519564986">
        <ele>1288.303955078125</ele>
        <time>2014-03-08T09:41:58Z</time>
      </trkpt>
      <trkpt lat="47.351269768550992" lon="11.255853502079844">
        <ele>1288.303955078125</ele>
        <time>2014-03-08T09:42:09Z</time>
      </trkpt>
      <trkpt lat="47.351156864315271" lon="11.255831709131598">
        <ele>1289.26513671875</ele>
        <time>2014-03-08T09:42:20Z</time>
      </trkpt>
      <trkpt lat="47.351028621196747" lon="11.255820393562317">
        <ele>1290.2265625</ele>
        <time>2014-03-08T09:42:30Z</time>
      </trkpt>
      <trkpt lat="47.350902808830142" lon="11.255829613655806">
        <ele>1290.70703125</ele>
        <time>2014-03-08T09:42:43Z</time>
      </trkpt>
      <trkpt lat="47.350805075839162" lon="11.255869511514902">
        <ele>1291.66845703125</ele>
        <time>2014-03-08T09:42:55Z</time>
      </trkpt>
      <trkpt lat="47.350699966773391" lon="11.255931202322245">
        <ele>1292.630126953125</ele>
        <time>2014-03-08T09:43:08Z</time>
      </trkpt>
      <trkpt lat="47.350551774725318" lon="11.255999011918902">
        <ele>1293.59130859375</ele>
        <time>2014-03-08T09:43:22Z</time>
      </trkpt>
      <trkpt lat="47.350362595170736" lon="11.256036814302206">
        <ele>1295.513916015625</ele>
        <time>2014-03-08T09:43:37Z</time>
      </trkpt>
      <trkpt lat="47.350218342617154" lon="11.256035808473825">
        <ele>1296.475341796875</ele>
        <time>2014-03-08T09:43:50Z</time>
      </trkpt>
      <trkpt lat="47.350107366219163" lon="11.256031282246113">
        <ele>1296.475341796875</ele>
        <time>2014-03-08T09:44:01Z</time>
      </trkpt>
      <trkpt lat="47.34994987025857" lon="11.256036730483174">
        <ele>1295.99462890625</ele>
        <time>2014-03-08T09:44:14Z</time>
      </trkpt>
      <trkpt lat="47.349779466167092" lon="11.256077215075493">
        <ele>1295.033203125</ele>
        <time>2014-03-08T09:44:28Z</time>
      </trkpt>
      <trkpt lat="47.349629681557417" lon="11.256135636940598">
        <ele>1295.033203125</ele>
        <time>2014-03-08T09:44:41Z</time>
      </trkpt>
      <trkpt lat="47.349392138421535" lon="11.256217025220394">
        <ele>1295.033203125</ele>
        <time>2014-03-08T09:45:02Z</time>
      </trkpt>
      <trkpt lat="47.349264733493328" lon="11.256267065182328">
        <ele>1295.513916015625</ele>
        <time>2014-03-08T09:45:13Z</time>
      </trkpt>
      <trkpt lat="47.349087372422218" lon="11.256362115964293">
        <ele>1295.513916015625</ele>
        <time>2014-03-08T09:45:29Z</time>
      </trkpt>
      <trkpt lat="47.348947478458285" lon="11.256454484537244">
        <ele>1296.475341796875</ele>
        <time>2014-03-08T09:45:43Z</time>
      </trkpt>
      <trkpt lat="47.348819319158792" lon="11.25653151422739">
        <ele>1296.475341796875</ele>
        <time>2014-03-08T09:45:56Z</time>
      </trkpt>
      <trkpt lat="47.348752934485674" lon="11.25651977956295">
        <ele>1296.955810546875</ele>
        <time>2014-03-08T09:46:07Z</time>
      </trkpt>
      <trkpt lat="47.348756287246943" lon="11.256534615531564">
        <ele>1297.917236328125</ele>
        <time>2014-03-08T09:47:09Z</time>
      </trkpt>
      <trkpt lat="47.348674228414893" lon="11.256745252758265">
        <ele>1297.4365234375</ele>
        <time>2014-03-08T09:47:23Z</time>
      </trkpt>
      <trkpt lat="47.348622428253293" lon="11.25688380561769">
        <ele>1297.4365234375</ele>
        <time>2014-03-08T09:47:32Z</time>
      </trkpt>
      <trkpt lat="47.348515391349792" lon="11.257011294364929">
        <ele>1296.955810546875</ele>
        <time>2014-03-08T09:47:43Z</time>
      </trkpt>
      <trkpt lat="47.348394356667995" lon="11.257183793932199">
        <ele>1297.917236328125</ele>
        <time>2014-03-08T09:47:57Z</time>
      </trkpt>
      <trkpt lat="47.348282039165497" lon="11.257366184145212">
        <ele>1296.955810546875</ele>
        <time>2014-03-08T09:48:11Z</time>
      </trkpt>
      <trkpt lat="47.348177097737789" lon="11.257458049803972">
        <ele>1297.4365234375</ele>
        <time>2014-03-08T09:48:22Z</time>
      </trkpt>
      <trkpt lat="47.348017254844308" lon="11.25754832290113">
        <ele>1298.397705078125</ele>
        <time>2014-03-08T09:48:36Z</time>
      </trkpt>
      <trkpt lat="47.347914073616266" lon="11.257650917395949">
        <ele>1298.397705078125</ele>
        <time>2014-03-08T09:48:46Z</time>
      </trkpt>
      <trkpt lat="47.347817430272698" lon="11.257810927927494">
        <ele>1298.397705078125</ele>
        <time>2014-03-08T09:48:58Z</time>
      </trkpt>
      <trkpt lat="47.347755404189229" lon="11.257994491606951">
        <ele>1298.87841796875</ele>
        <time>2014-03-08T09:49:09Z</time>
      </trkpt>
      <trkpt lat="47.347723720595241" lon="11.258282158523798">
        <ele>1297.917236328125</ele>
        <time>2014-03-08T09:49:25Z</time>
      </trkpt>
      <trkpt lat="47.34761131927371" lon="11.258461866527796">
        <ele>1297.4365234375</ele>
        <time>2014-03-08T09:49:39Z</time>
      </trkpt>
      <trkpt lat="47.34747109003365" lon="11.258547613397241">
        <ele>1296.955810546875</ele>
        <time>2014-03-08T09:49:52Z</time>
      </trkpt>
      <trkpt lat="47.347351647913456" lon="11.258559348061681">
        <ele>1297.4365234375</ele>
        <time>2014-03-08T09:50:02Z</time>
      </trkpt>
      <trkpt lat="47.347172778099775" lon="11.258519282564521">
        <ele>1297.917236328125</ele>
        <time>2014-03-08T09:50:17Z</time>
      </trkpt>
      <trkpt lat="47.346960632130504" lon="11.258479971438646">
        <ele>1297.4365234375</ele>
        <time>2014-03-08T09:50:34Z</time>
      </trkpt>
      <trkpt lat="47.346761729568243" lon="11.258446276187897">
        <ele>1297.917236328125</ele>
        <time>2014-03-08T09:50:51Z</time>
      </trkpt>
      <trkpt lat="47.346596773713827" lon="11.258467733860016">
        <ele>1297.4365234375</ele>
        <time>2014-03-08T09:51:06Z</time>
      </trkpt>
      <trkpt lat="47.346435757353902" lon="11.258514253422618">
        <ele>1296.955810546875</ele>
        <time>2014-03-08T09:51:20Z</time>
      </trkpt>
      <trkpt lat="47.346385214477777" lon="11.258518612012267">
        <ele>1296.955810546875</ele>
        <time>2014-03-08T09:51:25Z</time>
      </trkpt>
      <trkpt lat="47.346342550590634" lon="11.258523054420948">
        <ele>1296.475341796875</ele>
        <time>2014-03-08T09:51:29Z</time>
      </trkpt>
      <trkpt lat="47.346195196732879" lon="11.258553648367524">
        <ele>1296.475341796875</ele>
        <time>2014-03-08T09:51:41Z</time>
      </trkpt>
      <trkpt lat="47.346010040491819" lon="11.258540824055672">
        <ele>1296.475341796875</ele>
        <time>2014-03-08T09:51:55Z</time>
      </trkpt>
      <trkpt lat="47.345945751294494" lon="11.258537387475371">
        <ele>1296.955810546875</ele>
        <time>2014-03-08T09:52:04Z</time>
      </trkpt>
      <trkpt lat="47.345952289178967" lon="11.25853780657053">
        <ele>1296.955810546875</ele>
        <time>2014-03-08T09:52:41Z</time>
      </trkpt>
      <trkpt lat="47.345952121540904" lon="11.258542584255338">
        <ele>1296.955810546875</ele>
        <time>2014-03-08T09:53:01Z</time>
      </trkpt>
      <trkpt lat="47.345932172611356" lon="11.258543925359845">
        <ele>1296.955810546875</ele>
        <time>2014-03-08T09:53:12Z</time>
      </trkpt>
      <trkpt lat="47.345744585618377" lon="11.258623134344816">
        <ele>1296.955810546875</ele>
        <time>2014-03-08T09:53:29Z</time>
      </trkpt>
      <trkpt lat="47.345516597852111" lon="11.258707037195563">
        <ele>1297.4365234375</ele>
        <time>2014-03-08T09:53:49Z</time>
      </trkpt>
      <trkpt lat="47.345329681411386" lon="11.258783647790551">
        <ele>1297.917236328125</ele>
        <time>2014-03-08T09:54:05Z</time>
      </trkpt>
      <trkpt lat="47.345165312290192" lon="11.258853636682034">
        <ele>1298.87841796875</ele>
        <time>2014-03-08T09:54:20Z</time>
      </trkpt>
      <trkpt lat="47.344969175755978" lon="11.258944580331445">
        <ele>1298.87841796875</ele>
        <time>2014-03-08T09:54:38Z</time>
      </trkpt>
      <trkpt lat="47.344799274578691" lon="11.259013647213578">
        <ele>1298.87841796875</ele>
        <time>2014-03-08T09:54:53Z</time>
      </trkpt>
      <trkpt lat="47.344611855223775" lon="11.259079445153475">
        <ele>1298.87841796875</ele>
        <time>2014-03-08T09:55:09Z</time>
      </trkpt>
      <trkpt lat="47.344437343999743" lon="11.25919989310205">
        <ele>1298.87841796875</ele>
        <time>2014-03-08T09:55:25Z</time>
      </trkpt>
      <trkpt lat="47.344276243820786" lon="11.259342050179839">
        <ele>1299.359130859375</ele>
        <time>2014-03-08T09:55:41Z</time>
      </trkpt>
      <trkpt lat="47.344116484746337" lon="11.259473646059632">
        <ele>1299.83984375</ele>
        <time>2014-03-08T09:55:57Z</time>
      </trkpt>
      <trkpt lat="47.343988744542003" lon="11.259538857266307">
        <ele>1301.28173828125</ele>
        <time>2014-03-08T09:56:10Z</time>
      </trkpt>
      <trkpt lat="47.343867206946015" lon="11.259661065414548">
        <ele>1302.7236328125</ele>
        <time>2014-03-08T09:56:24Z</time>
      </trkpt>
      <trkpt lat="47.343740472570062" lon="11.2597930803895">
        <ele>1303.68505859375</ele>
        <time>2014-03-08T09:56:38Z</time>
      </trkpt>
      <trkpt lat="47.343636956065893" lon="11.259866757318377">
        <ele>1304.165771484375</ele>
        <time>2014-03-08T09:56:49Z</time>
      </trkpt>
      <trkpt lat="47.343534277752042" lon="11.2599191442132">
        <ele>1304.165771484375</ele>
        <time>2014-03-08T09:56:57Z</time>
      </trkpt>
      <trkpt lat="47.34338466078043" lon="11.259957700967789">
        <ele>1304.165771484375</ele>
        <time>2014-03-08T09:57:08Z</time>
      </trkpt>
      <trkpt lat="47.343274774029851" lon="11.259951749816537">
        <ele>1304.646240234375</ele>
        <time>2014-03-08T09:57:18Z</time>
      </trkpt>
      <trkpt lat="47.343180980533361" lon="11.259947307407856">
        <ele>1305.126953125</ele>
        <time>2014-03-08T09:57:26Z</time>
      </trkpt>
      <trkpt lat="47.343045780435205" lon="11.25993381254375">
        <ele>1306.56884765625</ele>
        <time>2014-03-08T09:57:39Z</time>
      </trkpt>
      <trkpt lat="47.342893397435546" lon="11.259910259395838">
        <ele>1308.01123046875</ele>
        <time>2014-03-08T09:57:54Z</time>
      </trkpt>
      <trkpt lat="47.342819133773446" lon="11.259874133393168">
        <ele>1308.49169921875</ele>
        <time>2014-03-08T09:58:03Z</time>
      </trkpt>
      <trkpt lat="47.342677060514688" lon="11.259796600788832">
        <ele>1308.49169921875</ele>
        <time>2014-03-08T09:58:16Z</time>
      </trkpt>
      <trkpt lat="47.342555187642574" lon="11.259756367653608">
        <ele>1308.972412109375</ele>
        <time>2014-03-08T09:58:26Z</time>
      </trkpt>
      <trkpt lat="47.342412695288658" lon="11.259763156995177">
        <ele>1308.972412109375</ele>
        <time>2014-03-08T09:58:38Z</time>
      </trkpt>
      <trkpt lat="47.342229969799519" lon="11.259778076782823">
        <ele>1311.375732421875</ele>
        <time>2014-03-08T09:58:55Z</time>
      </trkpt>
      <trkpt lat="47.342162746936083" lon="11.259825015440583">
        <ele>1311.8564453125</ele>
        <time>2014-03-08T09:59:02Z</time>
      </trkpt>
      <trkpt lat="47.342075407505035" lon="11.259945631027222">
        <ele>1311.8564453125</ele>
        <time>2014-03-08T09:59:13Z</time>
      </trkpt>
      <trkpt lat="47.341918749734759" lon="11.260047303512692">
        <ele>1312.817626953125</ele>
        <time>2014-03-08T09:59:28Z</time>
      </trkpt>
      <trkpt lat="47.34173845499754" lon="11.260117962956429">
        <ele>1313.29833984375</ele>
        <time>2014-03-08T09:59:44Z</time>
      </trkpt>
      <trkpt lat="47.341628484427929" lon="11.260209660977125">
        <ele>1313.77880859375</ele>
        <time>2014-03-08T09:59:56Z</time>
      </trkpt>
      <trkpt lat="47.341538295149803" lon="11.260297503322363">
        <ele>1314.259521484375</ele>
        <time>2014-03-08T10:00:08Z</time>
      </trkpt>
      <trkpt lat="47.341426061466336" lon="11.260419711470604">
        <ele>1315.70166015625</ele>
        <time>2014-03-08T10:00:21Z</time>
      </trkpt>
      <trkpt lat="47.341319527477026" lon="11.260526329278946">
        <ele>1315.220947265625</ele>
        <time>2014-03-08T10:00:33Z</time>
      </trkpt>
      <trkpt lat="47.341247694566846" lon="11.260568322613835">
        <ele>1315.70166015625</ele>
        <time>2014-03-08T10:00:42Z</time>
      </trkpt>
      <trkpt lat="47.341168653219938" lon="11.260652141645551">
        <ele>1316.662841796875</ele>
        <time>2014-03-08T10:00:52Z</time>
      </trkpt>
      <trkpt lat="47.341081816703081" lon="11.260748533532023">
        <ele>1316.662841796875</ele>
        <time>2014-03-08T10:01:01Z</time>
      </trkpt>
      <trkpt lat="47.341008642688394" lon="11.260824138298631">
        <ele>1316.662841796875</ele>
        <time>2014-03-08T10:01:09Z</time>
      </trkpt>
      <trkpt lat="47.340917782858014" lon="11.260914830490947">
        <ele>1316.662841796875</ele>
        <time>2014-03-08T10:01:19Z</time>
      </trkpt>
      <trkpt lat="47.340810829773545" lon="11.260896222665906">
        <ele>1317.1435546875</ele>
        <time>2014-03-08T10:01:28Z</time>
      </trkpt>
      <trkpt lat="47.340764477849007" lon="11.260893624275923">
        <ele>1317.6240234375</ele>
        <time>2014-03-08T10:01:36Z</time>
      </trkpt>
      <trkpt lat="47.340760119259357" lon="11.26093989238143">
        <ele>1318.104736328125</ele>
        <time>2014-03-08T10:02:57Z</time>
      </trkpt>
      <trkpt lat="47.340756682679057" lon="11.260994961485267">
        <ele>1318.104736328125</ele>
        <time>2014-03-08T10:03:01Z</time>
      </trkpt>
      <trkpt lat="47.340689040720463" lon="11.261116582900286">
        <ele>1319.066162109375</ele>
        <time>2014-03-08T10:03:11Z</time>
      </trkpt>
      <trkpt lat="47.340554846450686" lon="11.261125970631838">
        <ele>1319.546875</ele>
        <time>2014-03-08T10:03:23Z</time>
      </trkpt>
      <trkpt lat="47.340479325503111" lon="11.261085066944361">
        <ele>1318.58544921875</ele>
        <time>2014-03-08T10:03:31Z</time>
      </trkpt>
      <trkpt lat="47.340409588068724" lon="11.261016922071576">
        <ele>1317.1435546875</ele>
        <time>2014-03-08T10:03:38Z</time>
      </trkpt>
      <trkpt lat="47.340290900319815" lon="11.260925475507975">
        <ele>1318.58544921875</ele>
        <time>2014-03-08T10:03:49Z</time>
      </trkpt>
      <trkpt lat="47.34022032469511" lon="11.26086906529963">
        <ele>1319.066162109375</ele>
        <time>2014-03-08T10:03:58Z</time>
      </trkpt>
      <trkpt lat="47.34012451954186" lon="11.260807374492288">
        <ele>1320.02734375</ele>
        <time>2014-03-08T10:04:09Z</time>
      </trkpt>
      <trkpt lat="47.34001069329679" lon="11.260740319266915">
        <ele>1321.46923828125</ele>
        <time>2014-03-08T10:04:21Z</time>
      </trkpt>
      <trkpt lat="47.339838277548552" lon="11.260604783892632">
        <ele>1323.39208984375</ele>
        <time>2014-03-08T10:04:38Z</time>
      </trkpt>
      <trkpt lat="47.339650355279446" lon="11.260444521903992">
        <ele>1325.314697265625</ele>
        <time>2014-03-08T10:04:58Z</time>
      </trkpt>
      <trkpt lat="47.339522950351238" lon="11.260341005399823">
        <ele>1325.79541015625</ele>
        <time>2014-03-08T10:05:11Z</time>
      </trkpt>
      <trkpt lat="47.339381966739893" lon="11.260269675403833">
        <ele>1327.718017578125</ele>
        <time>2014-03-08T10:05:26Z</time>
      </trkpt>
      <trkpt lat="47.33923084102571" lon="11.260138833895326">
        <ele>1329.640625</ele>
        <time>2014-03-08T10:05:43Z</time>
      </trkpt>
      <trkpt lat="47.339123133569956" lon="11.260068845003843">
        <ele>1331.082763671875</ele>
        <time>2014-03-08T10:05:54Z</time>
      </trkpt>
      <trkpt lat="47.339024394750595" lon="11.259976224973798">
        <ele>1332.0439453125</ele>
        <time>2014-03-08T10:06:07Z</time>
      </trkpt>
      <trkpt lat="47.338999835774302" lon="11.259960802271962">
        <ele>1332.0439453125</ele>
        <time>2014-03-08T10:06:19Z</time>
      </trkpt>
      <trkpt lat="47.338824737817049" lon="11.259943451732397">
        <ele>1331.082763671875</ele>
        <time>2014-03-08T10:06:34Z</time>
      </trkpt>
      <trkpt lat="47.3386752884835" lon="11.25992844812572">
        <ele>1332.0439453125</ele>
        <time>2014-03-08T10:06:47Z</time>
      </trkpt>
      <trkpt lat="47.338632373139262" lon="11.259915623813868">
        <ele>1332.524658203125</ele>
        <time>2014-03-08T10:06:56Z</time>
      </trkpt>
      <trkpt lat="47.33862935565412" lon="11.259910678490996">
        <ele>1331.563232421875</ele>
        <time>2014-03-08T10:07:04Z</time>
      </trkpt>
      <trkpt lat="47.338618878275156" lon="11.259908834472299">
        <ele>1333.966552734375</ele>
        <time>2014-03-08T10:09:47Z</time>
      </trkpt>
      <trkpt lat="47.33855651691556" lon="11.259929202497005">
        <ele>1333.005126953125</ele>
        <time>2014-03-08T10:09:55Z</time>
      </trkpt>
      <trkpt lat="47.338373623788357" lon="11.25994018279016">
        <ele>1334.927978515625</ele>
        <time>2014-03-08T10:10:11Z</time>
      </trkpt>
      <trkpt lat="47.338229538872838" lon="11.259952252730727">
        <ele>1335.88916015625</ele>
        <time>2014-03-08T10:10:25Z</time>
      </trkpt>
      <trkpt lat="47.338095512241125" lon="11.259943787008524">
        <ele>1337.811767578125</ele>
        <time>2014-03-08T10:10:38Z</time>
      </trkpt>
      <trkpt lat="47.337984200567007" lon="11.25992501154542">
        <ele>1338.773193359375</ele>
        <time>2014-03-08T10:10:50Z</time>
      </trkpt>
      <trkpt lat="47.337845982983708" lon="11.25999734736979">
        <ele>1340.69580078125</ele>
        <time>2014-03-08T10:11:05Z</time>
      </trkpt>
      <trkpt lat="47.337705586105585" lon="11.26006230711937">
        <ele>1343.09912109375</ele>
        <time>2014-03-08T10:11:21Z</time>
      </trkpt>
      <trkpt lat="47.337559992447495" lon="11.260140594094992">
        <ele>1344.541015625</ele>
        <time>2014-03-08T10:11:37Z</time>
      </trkpt>
      <trkpt lat="47.337408363819122" lon="11.260246122255921">
        <ele>1347.425048828125</ele>
        <time>2014-03-08T10:11:55Z</time>
      </trkpt>
      <trkpt lat="47.337274588644505" lon="11.260334383696318">
        <ele>1348.866943359375</ele>
        <time>2014-03-08T10:12:10Z</time>
      </trkpt>
      <trkpt lat="47.337154811248183" lon="11.260430440306664">
        <ele>1350.78955078125</ele>
        <time>2014-03-08T10:12:25Z</time>
      </trkpt>
      <trkpt lat="47.337041320279241" lon="11.260540829971433">
        <ele>1352.712158203125</ele>
        <time>2014-03-08T10:12:39Z</time>
      </trkpt>
      <trkpt lat="47.336906539276242" lon="11.260691033676267">
        <ele>1354.634765625</ele>
        <time>2014-03-08T10:12:57Z</time>
      </trkpt>
      <trkpt lat="47.336809728294611" lon="11.260832268744707">
        <ele>1356.5576171875</ele>
        <time>2014-03-08T10:13:12Z</time>
      </trkpt>
      <trkpt lat="47.336706211790442" lon="11.2609604280442">
        <ele>1357.999755859375</ele>
        <time>2014-03-08T10:13:26Z</time>
      </trkpt>
      <trkpt lat="47.336614010855556" lon="11.261104261502624">
        <ele>1358.9609375</ele>
        <time>2014-03-08T10:13:40Z</time>
      </trkpt>
      <trkpt lat="47.336489958688617" lon="11.261209705844522">
        <ele>1361.3642578125</ele>
        <time>2014-03-08T10:13:56Z</time>
      </trkpt>
      <trkpt lat="47.336366325616837" lon="11.261315401643515">
        <ele>1363.767333984375</ele>
        <time>2014-03-08T10:14:11Z</time>
      </trkpt>
      <trkpt lat="47.336250739172101" lon="11.261418582871556">
        <ele>1365.690185546875</ele>
        <time>2014-03-08T10:14:25Z</time>
      </trkpt>
      <trkpt lat="47.336159376427531" lon="11.261516399681568">
        <ele>1367.132080078125</ele>
        <time>2014-03-08T10:14:38Z</time>
      </trkpt>
      <trkpt lat="47.33606792986393" lon="11.26170608215034">
        <ele>1369.0546875</ele>
        <time>2014-03-08T10:14:55Z</time>
      </trkpt>
      <trkpt lat="47.336013531312346" lon="11.261814376339316">
        <ele>1370.977294921875</ele>
        <time>2014-03-08T10:15:05Z</time>
      </trkpt>
      <trkpt lat="47.335881683975458" lon="11.261900877580047">
        <ele>1372.41943359375</ele>
        <time>2014-03-08T10:15:20Z</time>
      </trkpt>
      <trkpt lat="47.335763666778803" lon="11.261961394920945">
        <ele>1374.82275390625</ele>
        <time>2014-03-08T10:15:34Z</time>
      </trkpt>
      <trkpt lat="47.335630394518375" lon="11.262062564492226">
        <ele>1375.30322265625</ele>
        <time>2014-03-08T10:15:49Z</time>
      </trkpt>
      <trkpt lat="47.335506677627563" lon="11.26214831136167">
        <ele>1377.22607421875</ele>
        <time>2014-03-08T10:16:04Z</time>
      </trkpt>
      <trkpt lat="47.33540341258049" lon="11.262223497033119">
        <ele>1379.1484375</ele>
        <time>2014-03-08T10:16:17Z</time>
      </trkpt>
      <trkpt lat="47.335275504738092" lon="11.262322990223765">
        <ele>1381.5517578125</ele>
        <time>2014-03-08T10:16:32Z</time>
      </trkpt>
      <trkpt lat="47.335190009325743" lon="11.262438241392374">
        <ele>1383.474365234375</ele>
        <time>2014-03-08T10:16:45Z</time>
      </trkpt>
      <trkpt lat="47.335124295204878" lon="11.2625025305897">
        <ele>1383.474365234375</ele>
        <time>2014-03-08T10:16:56Z</time>
      </trkpt>
      <trkpt lat="47.335004601627588" lon="11.2625284306705">
        <ele>1385.39697265625</ele>
        <time>2014-03-08T10:17:08Z</time>
      </trkpt>
      <trkpt lat="47.334915585815907" lon="11.262643430382013">
        <ele>1386.3583984375</ele>
        <time>2014-03-08T10:17:21Z</time>
      </trkpt>
      <trkpt lat="47.334879459813237" lon="11.26269556581974">
        <ele>1387.319580078125</ele>
        <time>2014-03-08T10:17:26Z</time>
      </trkpt>
      <trkpt lat="47.334763621911407" lon="11.262860521674156">
        <ele>1389.72314453125</ele>
        <time>2014-03-08T10:17:42Z</time>
      </trkpt>
      <trkpt lat="47.334647700190544" lon="11.263009971007705">
        <ele>1391.645751953125</ele>
        <time>2014-03-08T10:17:59Z</time>
      </trkpt>
      <trkpt lat="47.334533454850316" lon="11.263163527473807">
        <ele>1393.568359375</ele>
        <time>2014-03-08T10:18:15Z</time>
      </trkpt>
      <trkpt lat="47.334463046863675" lon="11.26327115111053">
        <ele>1395.490966796875</ele>
        <time>2014-03-08T10:18:26Z</time>
      </trkpt>
      <trkpt lat="47.334332792088389" lon="11.263423366472125">
        <ele>1396.452392578125</ele>
        <time>2014-03-08T10:18:44Z</time>
      </trkpt>
      <trkpt lat="47.334247631952167" lon="11.263509448617697">
        <ele>1399.81689453125</ele>
        <time>2014-03-08T10:18:56Z</time>
      </trkpt>
      <trkpt lat="47.334110420197248" lon="11.26364448107779">
        <ele>1401.739501953125</ele>
        <time>2014-03-08T10:19:14Z</time>
      </trkpt>
      <trkpt lat="47.334012687206268" lon="11.263734921813011">
        <ele>1403.181396484375</ele>
        <time>2014-03-08T10:19:27Z</time>
      </trkpt>
      <trkpt lat="47.333871955052018" lon="11.263821758329868">
        <ele>1405.104248046875</ele>
        <time>2014-03-08T10:19:43Z</time>
      </trkpt>
      <trkpt lat="47.333727451041341" lon="11.263892585411668">
        <ele>1407.507568359375</ele>
        <time>2014-03-08T10:19:59Z</time>
      </trkpt>
      <trkpt lat="47.333580851554871" lon="11.263969112187624">
        <ele>1409.43017578125</ele>
        <time>2014-03-08T10:20:14Z</time>
      </trkpt>
      <trkpt lat="47.333551766350865" lon="11.263983864337206">
        <ele>1410.391357421875</ele>
        <time>2014-03-08T10:20:17Z</time>
      </trkpt>
      <trkpt lat="47.333407932892442" lon="11.264058966189623">
        <ele>1413.275390625</ele>
        <time>2014-03-08T10:20:33Z</time>
      </trkpt>
      <trkpt lat="47.333281449973583" lon="11.2640964332968">
        <ele>1414.236572265625</ele>
        <time>2014-03-08T10:20:47Z</time>
      </trkpt>
      <trkpt lat="47.333110794425011" lon="11.264163739979267">
        <ele>1416.639892578125</ele>
        <time>2014-03-08T10:21:05Z</time>
      </trkpt>
      <trkpt lat="47.332991268485785" lon="11.264231968671083">
        <ele>1418.081787109375</ele>
        <time>2014-03-08T10:21:18Z</time>
      </trkpt>
      <trkpt lat="47.332882387563586" lon="11.264298856258392">
        <ele>1420.4853515625</ele>
        <time>2014-03-08T10:21:31Z</time>
      </trkpt>
      <trkpt lat="47.332781217992306" lon="11.264350488781929">
        <ele>1421.92724609375</ele>
        <time>2014-03-08T10:21:43Z</time>
      </trkpt>
      <trkpt lat="47.332644257694483" lon="11.264439839869738">
        <ele>1423.849853515625</ele>
        <time>2014-03-08T10:21:58Z</time>
      </trkpt>
      <trkpt lat="47.332528838887811" lon="11.264520892873406">
        <ele>1426.73388671875</ele>
        <time>2014-03-08T10:22:11Z</time>
      </trkpt>
      <trkpt lat="47.332393974065781" lon="11.264615189284086">
        <ele>1428.17578125</ele>
        <time>2014-03-08T10:22:26Z</time>
      </trkpt>
      <trkpt lat="47.332268245518208" lon="11.264709234237671">
        <ele>1430.098388671875</ele>
        <time>2014-03-08T10:22:40Z</time>
      </trkpt>
      <trkpt lat="47.332148803398013" lon="11.264830604195595">
        <ele>1432.02099609375</ele>
        <time>2014-03-08T10:22:57Z</time>
      </trkpt>
      <trkpt lat="47.332052076235414" lon="11.26497351564467">
        <ele>1433.943603515625</ele>
        <time>2014-03-08T10:23:11Z</time>
      </trkpt>
      <trkpt lat="47.33202357776463" lon="11.26502045430243">
        <ele>1433.943603515625</ele>
        <time>2014-03-08T10:23:21Z</time>
      </trkpt>
      <trkpt lat="47.332021314650774" lon="11.265026992186904">
        <ele>1434.42431640625</ele>
        <time>2014-03-08T10:23:34Z</time>
      </trkpt>
      <trkpt lat="47.331934561952949" lon="11.265273503959179">
        <ele>1436.34716796875</ele>
        <time>2014-03-08T10:23:54Z</time>
      </trkpt>
      <trkpt lat="47.331869686022401" lon="11.265460168942809">
        <ele>1438.75048828125</ele>
        <time>2014-03-08T10:24:10Z</time>
      </trkpt>
      <trkpt lat="47.331791231408715" lon="11.265635350719094">
        <ele>1442.114990234375</ele>
        <time>2014-03-08T10:24:26Z</time>
      </trkpt>
      <trkpt lat="47.331729959696531" lon="11.26581933349371">
        <ele>1444.03759765625</ele>
        <time>2014-03-08T10:24:41Z</time>
      </trkpt>
      <trkpt lat="47.331712190061808" lon="11.265859063714743">
        <ele>1444.51806640625</ele>
        <time>2014-03-08T10:24:51Z</time>
      </trkpt>
      <trkpt lat="47.331618396565318" lon="11.266062324866652">
        <ele>1446.44091796875</ele>
        <time>2014-03-08T10:25:09Z</time>
      </trkpt>
      <trkpt lat="47.331526195630431" lon="11.26624496653676">
        <ele>1449.32470703125</ele>
        <time>2014-03-08T10:25:25Z</time>
      </trkpt>
      <trkpt lat="47.331491829827428" lon="11.266309004276991">
        <ele>1449.32470703125</ele>
        <time>2014-03-08T10:25:38Z</time>
      </trkpt>
      <trkpt lat="47.331488728523254" lon="11.26630112528801">
        <ele>1448.36328125</ele>
        <time>2014-03-08T10:26:24Z</time>
      </trkpt>
      <trkpt lat="47.331491578370333" lon="11.266317721456289">
        <ele>1448.843994140625</ele>
        <time>2014-03-08T10:26:33Z</time>
      </trkpt>
      <trkpt lat="47.331447573378682" lon="11.266357619315386">
        <ele>1450.2861328125</ele>
        <time>2014-03-08T10:27:04Z</time>
      </trkpt>
      <trkpt lat="47.331334920600057" lon="11.26651419326663">
        <ele>1452.208740234375</ele>
        <time>2014-03-08T10:27:20Z</time>
      </trkpt>
      <trkpt lat="47.331231571733952" lon="11.266676466912031">
        <ele>1454.612060546875</ele>
        <time>2014-03-08T10:27:35Z</time>
      </trkpt>
      <trkpt lat="47.331134593114257" lon="11.26680982299149">
        <ele>1457.015380859375</ele>
        <time>2014-03-08T10:27:49Z</time>
      </trkpt>
      <trkpt lat="47.331093773245811" lon="11.266876542940736">
        <ele>1457.976806640625</ele>
        <time>2014-03-08T10:27:56Z</time>
      </trkpt>
      <trkpt lat="47.331034177914262" lon="11.267020795494318">
        <ele>1458.457275390625</ele>
        <time>2014-03-08T10:28:08Z</time>
      </trkpt>
      <trkpt lat="47.331013390794396" lon="11.267042588442564">
        <ele>1458.93798828125</ele>
        <time>2014-03-08T10:28:11Z</time>
      </trkpt>
      <trkpt lat="47.330938205122948" lon="11.267159767448902">
        <ele>1459.899169921875</ele>
        <time>2014-03-08T10:28:23Z</time>
      </trkpt>
      <trkpt lat="47.330851703882217" lon="11.267296057194471">
        <ele>1461.34130859375</ele>
        <time>2014-03-08T10:28:36Z</time>
      </trkpt>
      <trkpt lat="47.330756234005094" lon="11.267429329454899">
        <ele>1463.744384765625</ele>
        <time>2014-03-08T10:28:50Z</time>
      </trkpt>
      <trkpt lat="47.330653555691242" lon="11.267599985003471">
        <ele>1465.1865234375</ele>
        <time>2014-03-08T10:29:07Z</time>
      </trkpt>
      <trkpt lat="47.330551715567708" lon="11.26776996999979">
        <ele>1468.55126953125</ele>
        <time>2014-03-08T10:29:23Z</time>
      </trkpt>
      <trkpt lat="47.330458844080567" lon="11.267904499545693">
        <ele>1469.9931640625</ele>
        <time>2014-03-08T10:29:37Z</time>
      </trkpt>
      <trkpt lat="47.33035784214735" lon="11.2680474948138">
        <ele>1472.877197265625</ele>
        <time>2014-03-08T10:29:52Z</time>
      </trkpt>
      <trkpt lat="47.330227419734001" lon="11.268178503960371">
        <ele>1476.24169921875</ele>
        <time>2014-03-08T10:30:10Z</time>
      </trkpt>
      <trkpt lat="47.330135637894273" lon="11.268238602206111">
        <ele>1477.68359375</ele>
        <time>2014-03-08T10:30:21Z</time>
      </trkpt>
      <trkpt lat="47.329987194389105" lon="11.268306160345674">
        <ele>1478.164306640625</ele>
        <time>2014-03-08T10:30:34Z</time>
      </trkpt>
      <trkpt lat="47.329827016219497" lon="11.268350500613451">
        <ele>1479.606201171875</ele>
        <time>2014-03-08T10:30:50Z</time>
      </trkpt>
      <trkpt lat="47.329703969880939" lon="11.268413783982396">
        <ele>1481.52880859375</ele>
        <time>2014-03-08T10:31:03Z</time>
      </trkpt>
      <trkpt lat="47.329608919098973" lon="11.268531884998083">
        <ele>1483.93212890625</ele>
        <time>2014-03-08T10:31:17Z</time>
      </trkpt>
      <trkpt lat="47.329501966014504" lon="11.268630037084222">
        <ele>1485.85498046875</ele>
        <time>2014-03-08T10:31:31Z</time>
      </trkpt>
      <trkpt lat="47.329382859170437" lon="11.268717460334301">
        <ele>1488.739013671875</ele>
        <time>2014-03-08T10:31:45Z</time>
      </trkpt>
      <trkpt lat="47.329263249412179" lon="11.268836567178369">
        <ele>1490.661376953125</ele>
        <time>2014-03-08T10:32:01Z</time>
      </trkpt>
      <trkpt lat="47.329233242198825" lon="11.268896916881204">
        <ele>1491.622802734375</ele>
        <time>2014-03-08T10:32:10Z</time>
      </trkpt>
      <trkpt lat="47.329202648252249" lon="11.268959445878863">
        <ele>1492.584228515625</ele>
        <time>2014-03-08T10:32:25Z</time>
      </trkpt>
      <trkpt lat="47.329083289951086" lon="11.269075786694884">
        <ele>1494.9873046875</ele>
        <time>2014-03-08T10:32:40Z</time>
      </trkpt>
      <trkpt lat="47.329061664640903" lon="11.269093137234449">
        <ele>1495.468017578125</ele>
        <time>2014-03-08T10:32:52Z</time>
      </trkpt>
      <trkpt lat="47.329062335193157" lon="11.269093053415418">
        <ele>1494.9873046875</ele>
        <time>2014-03-08T10:33:15Z</time>
      </trkpt>
      <trkpt lat="47.329063089564443" lon="11.269100429490209">
        <ele>1494.506591796875</ele>
        <time>2014-03-08T10:33:23Z</time>
      </trkpt>
      <trkpt lat="47.329055210575461" lon="11.269106045365334">
        <ele>1493.54541015625</ele>
        <time>2014-03-08T10:33:45Z</time>
      </trkpt>
      <trkpt lat="47.329054204747081" lon="11.269088443368673">
        <ele>1493.54541015625</ele>
        <time>2014-03-08T10:38:29Z</time>
      </trkpt>
      <trkpt lat="47.329058982431889" lon="11.269104285165668">
        <ele>1494.026123046875</ele>
        <time>2014-03-08T10:38:49Z</time>
      </trkpt>
      <trkpt lat="47.329024113714695" lon="11.269154073670506">
        <ele>1495.468017578125</ele>
        <time>2014-03-08T10:38:59Z</time>
      </trkpt>
      <trkpt lat="47.32889193110168" lon="11.269307378679514">
        <ele>1498.83251953125</ele>
        <time>2014-03-08T10:39:18Z</time>
      </trkpt>
      <trkpt lat="47.328772740438581" lon="11.269438304007053">
        <ele>1500.75537109375</ele>
        <time>2014-03-08T10:39:33Z</time>
      </trkpt>
      <trkpt lat="47.328726472333074" lon="11.269460516050458">
        <ele>1501.716796875</ele>
        <time>2014-03-08T10:39:38Z</time>
      </trkpt>
      <trkpt lat="47.328571574762464" lon="11.269554309546947">
        <ele>1502.677978515625</ele>
        <time>2014-03-08T10:39:54Z</time>
      </trkpt>
      <trkpt lat="47.328460095450282" lon="11.269650030881166">
        <ele>1504.6005859375</ele>
        <time>2014-03-08T10:40:07Z</time>
      </trkpt>
      <trkpt lat="47.328370325267315" lon="11.269769137725234">
        <ele>1506.04248046875</ele>
        <time>2014-03-08T10:40:19Z</time>
      </trkpt>
      <trkpt lat="47.328288350254297" lon="11.269833594560623">
        <ele>1507.00390625</ele>
        <time>2014-03-08T10:40:32Z</time>
      </trkpt>
      <trkpt lat="47.328188689425588" lon="11.269749104976654">
        <ele>1506.523193359375</ele>
        <time>2014-03-08T10:40:43Z</time>
      </trkpt>
      <trkpt lat="47.328091207891703" lon="11.269663609564304">
        <ele>1505.56201171875</ele>
        <time>2014-03-08T10:40:51Z</time>
      </trkpt>
      <trkpt lat="47.32799825258553" lon="11.269529666751623">
        <ele>1507.484619140625</ele>
        <time>2014-03-08T10:41:03Z</time>
      </trkpt>
      <trkpt lat="47.327874703332782" lon="11.269400836899877">
        <ele>1507.484619140625</ele>
        <time>2014-03-08T10:41:18Z</time>
      </trkpt>
      <trkpt lat="47.32772458344698" lon="11.269362280145288">
        <ele>1508.926513671875</ele>
        <time>2014-03-08T10:41:31Z</time>
      </trkpt>
      <trkpt lat="47.327585276216269" lon="11.269323388114572">
        <ele>1510.368408203125</ele>
        <time>2014-03-08T10:41:44Z</time>
      </trkpt>
      <trkpt lat="47.327442280948162" lon="11.269236886873841">
        <ele>1511.810546875</ele>
        <time>2014-03-08T10:41:58Z</time>
      </trkpt>
      <trkpt lat="47.327432725578547" lon="11.269236132502556">
        <ele>1511.810546875</ele>
        <time>2014-03-08T10:41:59Z</time>
      </trkpt>
      <trkpt lat="47.327280007302761" lon="11.269271420314908">
        <ele>1514.6943359375</ele>
        <time>2014-03-08T10:42:14Z</time>
      </trkpt>
      <trkpt lat="47.327129216864705" lon="11.269278796389699">
        <ele>1516.6171875</ele>
        <time>2014-03-08T10:42:28Z</time>
      </trkpt>
      <trkpt lat="47.32695646584034" lon="11.269284579902887">
        <ele>1518.539794921875</ele>
        <time>2014-03-08T10:42:44Z</time>
      </trkpt>
      <trkpt lat="47.32679720968008" lon="11.269336715340614">
        <ele>1520.46240234375</ele>
        <time>2014-03-08T10:43:00Z</time>
      </trkpt>
      <trkpt lat="47.326695369556546" lon="11.269407710060477">
        <ele>1523.346435546875</ele>
        <time>2014-03-08T10:43:12Z</time>
      </trkpt>
      <trkpt lat="47.32661347836256" lon="11.269477447494864">
        <ele>1525.268798828125</ele>
        <time>2014-03-08T10:43:22Z</time>
      </trkpt>
      <trkpt lat="47.326477775350213" lon="11.269600158557296">
        <ele>1525.74951171875</ele>
        <time>2014-03-08T10:43:36Z</time>
      </trkpt>
      <trkpt lat="47.326358249410987" lon="11.269709123298526">
        <ele>1525.74951171875</ele>
        <time>2014-03-08T10:43:49Z</time>
      </trkpt>
      <trkpt lat="47.326310304924846" lon="11.269747847691178">
        <ele>1527.672119140625</ele>
        <time>2014-03-08T10:44:00Z</time>
      </trkpt>
      <trkpt lat="47.326151803135872" lon="11.269854046404362">
        <ele>1529.5947265625</ele>
        <time>2014-03-08T10:44:16Z</time>
      </trkpt>
      <trkpt lat="47.3260432574898" lon="11.269954713061452">
        <ele>1531.036865234375</ele>
        <time>2014-03-08T10:44:30Z</time>
      </trkpt>
      <trkpt lat="47.32604225166142" lon="11.269978936761618">
        <ele>1531.998046875</ele>
        <time>2014-03-08T10:44:32Z</time>
      </trkpt>
      <trkpt lat="47.326030265539885" lon="11.270124446600676">
        <ele>1532.95947265625</ele>
        <time>2014-03-08T10:44:43Z</time>
      </trkpt>
      <trkpt lat="47.32599338516593" lon="11.270201308652759">
        <ele>1534.88232421875</ele>
        <time>2014-03-08T10:44:50Z</time>
      </trkpt>
      <trkpt lat="47.325915098190308" lon="11.2702785898">
        <ele>1536.32421875</ele>
        <time>2014-03-08T10:45:01Z</time>
      </trkpt>
      <trkpt lat="47.325799595564604" lon="11.27042661421001">
        <ele>1538.7275390625</ele>
        <time>2014-03-08T10:45:18Z</time>
      </trkpt>
      <trkpt lat="47.325713764876127" lon="11.27061721868813">
        <ele>1541.611328125</ele>
        <time>2014-03-08T10:45:36Z</time>
      </trkpt>
      <trkpt lat="47.325703119859099" lon="11.270654601976275">
        <ele>1542.092041015625</ele>
        <time>2014-03-08T10:45:44Z</time>
      </trkpt>
      <trkpt lat="47.325701359659433" lon="11.270632976666093">
        <ele>1542.092041015625</ele>
        <time>2014-03-08T10:45:56Z</time>
      </trkpt>
      <trkpt lat="47.325687864795327" lon="11.270656362175941">
        <ele>1542.092041015625</ele>
        <time>2014-03-08T10:46:08Z</time>
      </trkpt>
      <trkpt lat="47.32569046318531" lon="11.270676562562585">
        <ele>1542.57275390625</ele>
        <time>2014-03-08T10:46:19Z</time>
      </trkpt>
      <trkpt lat="47.325665317475796" lon="11.270720651373267">
        <ele>1543.05322265625</ele>
        <time>2014-03-08T10:46:26Z</time>
      </trkpt>
      <trkpt lat="47.325638998299837" lon="11.27074521034956">
        <ele>1543.533935546875</ele>
        <time>2014-03-08T10:46:36Z</time>
      </trkpt>
      <trkpt lat="47.325581163167953" lon="11.270860461518168">
        <ele>1546.41796875</ele>
        <time>2014-03-08T10:46:49Z</time>
      </trkpt>
      <trkpt lat="47.325538583099842" lon="11.270956182852387">
        <ele>1548.8212890625</ele>
        <time>2014-03-08T10:46:58Z</time>
      </trkpt>
      <trkpt lat="47.325467839837074" lon="11.271076966077089">
        <ele>1552.185791015625</ele>
        <time>2014-03-08T10:47:15Z</time>
      </trkpt>
      <trkpt lat="47.325395923107862" lon="11.271133124828339">
        <ele>1555.550537109375</ele>
        <time>2014-03-08T10:47:29Z</time>
      </trkpt>
      <trkpt lat="47.32531126588583" lon="11.271114097908139">
        <ele>1558.434326171875</ele>
        <time>2014-03-08T10:47:43Z</time>
      </trkpt>
      <trkpt lat="47.325223926454782" lon="11.27105793915689">
        <ele>1561.318359375</ele>
        <time>2014-03-08T10:47:58Z</time>
      </trkpt>
      <trkpt lat="47.325169946998358" lon="11.271010665223002">
        <ele>1562.76025390625</ele>
        <time>2014-03-08T10:48:13Z</time>
      </trkpt>
      <trkpt lat="47.325152764096856" lon="11.270986273884773">
        <ele>1564.202392578125</ele>
        <time>2014-03-08T10:48:24Z</time>
      </trkpt>
      <trkpt lat="47.325142454355955" lon="11.27104620449245">
        <ele>1566.125</ele>
        <time>2014-03-08T10:48:35Z</time>
      </trkpt>
      <trkpt lat="47.325109178200364" lon="11.271094903349876">
        <ele>1568.047607421875</ele>
        <time>2014-03-08T10:48:49Z</time>
      </trkpt>
      <trkpt lat="47.325057378038764" lon="11.270988285541534">
        <ele>1569.97021484375</ele>
        <time>2014-03-08T10:49:03Z</time>
      </trkpt>
      <trkpt lat="47.325031058862805" lon="11.270893653854728">
        <ele>1570.931640625</ele>
        <time>2014-03-08T10:49:14Z</time>
      </trkpt>
      <trkpt lat="47.324986467137933" lon="11.270798854529858">
        <ele>1573.8154296875</ele>
        <time>2014-03-08T10:49:28Z</time>
      </trkpt>
      <trkpt lat="47.324943048879504" lon="11.270703887566924">
        <ele>1575.738037109375</ele>
        <time>2014-03-08T10:49:42Z</time>
      </trkpt>
      <trkpt lat="47.324920082464814" lon="11.270631300285459">
        <ele>1578.141357421875</ele>
        <time>2014-03-08T10:49:59Z</time>
      </trkpt>
      <trkpt lat="47.324912371113896" lon="11.27064848318696">
        <ele>1579.583251953125</ele>
        <time>2014-03-08T10:50:09Z</time>
      </trkpt>
      <trkpt lat="47.324891332536936" lon="11.270739678293467">
        <ele>1581.98681640625</ele>
        <time>2014-03-08T10:50:22Z</time>
      </trkpt>
      <trkpt lat="47.324871299788356" lon="11.270746551454067">
        <ele>1582.947998046875</ele>
        <time>2014-03-08T10:50:31Z</time>
      </trkpt>
      <trkpt lat="47.324852105230093" lon="11.270710593089461">
        <ele>1583.909423828125</ele>
        <time>2014-03-08T10:50:39Z</time>
      </trkpt>
      <trkpt lat="47.324830731377006" lon="11.270683100447059">
        <ele>1585.83203125</ele>
        <time>2014-03-08T10:50:48Z</time>
      </trkpt>
      <trkpt lat="47.324815643951297" lon="11.270745461806655">
        <ele>1587.27392578125</ele>
        <time>2014-03-08T10:50:58Z</time>
      </trkpt>
      <trkpt lat="47.324788821861148" lon="11.270879739895463">
        <ele>1590.157958984375</ele>
        <time>2014-03-08T10:51:13Z</time>
      </trkpt>
      <trkpt lat="47.324778260663152" lon="11.270894827321172">
        <ele>1590.638427734375</ele>
        <time>2014-03-08T10:51:23Z</time>
      </trkpt>
      <trkpt lat="47.324763257056475" lon="11.270887199789286">
        <ele>1591.119140625</ele>
        <time>2014-03-08T10:51:31Z</time>
      </trkpt>
      <trkpt lat="47.324709529057145" lon="11.270806062966585">
        <ele>1594.96435546875</ele>
        <time>2014-03-08T10:51:45Z</time>
      </trkpt>
      <trkpt lat="47.324665272608399" lon="11.270732721313834">
        <ele>1596.88720703125</ele>
        <time>2014-03-08T10:51:58Z</time>
      </trkpt>
      <trkpt lat="47.324621183797717" lon="11.270634401589632">
        <ele>1600.251953125</ele>
        <time>2014-03-08T10:52:11Z</time>
      </trkpt>
      <trkpt lat="47.324603162705898" lon="11.27056248486042">
        <ele>1601.213134765625</ele>
        <time>2014-03-08T10:52:25Z</time>
      </trkpt>
      <trkpt lat="47.324603078886867" lon="11.27057857811451">
        <ele>1600.732421875</ele>
        <time>2014-03-08T10:52:35Z</time>
      </trkpt>
      <trkpt lat="47.324593607336283" lon="11.27059618011117">
        <ele>1602.17431640625</ele>
        <time>2014-03-08T10:52:46Z</time>
      </trkpt>
      <trkpt lat="47.324586398899555" lon="11.270624259486794">
        <ele>1602.655029296875</ele>
        <time>2014-03-08T10:52:55Z</time>
      </trkpt>
      <trkpt lat="47.324580447748303" lon="11.270615961402655">
        <ele>1603.1357421875</ele>
        <time>2014-03-08T10:53:07Z</time>
      </trkpt>
      <trkpt lat="47.324570389464498" lon="11.270568855106831">
        <ele>1604.09716796875</ele>
        <time>2014-03-08T10:53:13Z</time>
      </trkpt>
      <trkpt lat="47.324565947055817" lon="11.270520659163594">
        <ele>1605.058349609375</ele>
        <time>2014-03-08T10:53:23Z</time>
      </trkpt>
      <trkpt lat="47.32455781660974" lon="11.270538177341223">
        <ele>1606.01953125</ele>
        <time>2014-03-08T10:53:33Z</time>
      </trkpt>
      <trkpt lat="47.324521942064166" lon="11.270650662481785">
        <ele>1608.4228515625</ele>
        <time>2014-03-08T10:53:47Z</time>
      </trkpt>
      <trkpt lat="47.324503920972347" lon="11.270693158730865">
        <ele>1609.38427734375</ele>
        <time>2014-03-08T10:53:58Z</time>
      </trkpt>
      <trkpt lat="47.324498891830444" lon="11.27070028334856">
        <ele>1608.903564453125</ele>
        <time>2014-03-08T10:54:08Z</time>
      </trkpt>
      <trkpt lat="47.324497718364" lon="11.270703803747892">
        <ele>1610.345458984375</ele>
        <time>2014-03-08T10:54:10Z</time>
      </trkpt>
      <trkpt lat="47.324495371431112" lon="11.270731883123517">
        <ele>1610.826171875</ele>
        <time>2014-03-08T10:54:20Z</time>
      </trkpt>
      <trkpt lat="47.324473327025771" lon="11.270829364657402">
        <ele>1612.7490234375</ele>
        <time>2014-03-08T10:54:33Z</time>
      </trkpt>
      <trkpt lat="47.324451617896557" lon="11.270787706598639">
        <ele>1614.671630859375</ele>
        <time>2014-03-08T10:54:42Z</time>
      </trkpt>
      <trkpt lat="47.324433177709579" lon="11.270787287503481">
        <ele>1615.633056640625</ele>
        <time>2014-03-08T10:54:51Z</time>
      </trkpt>
      <trkpt lat="47.324377102777362" lon="11.270820060744882">
        <ele>1617.555419921875</ele>
        <time>2014-03-08T10:55:03Z</time>
      </trkpt>
      <trkpt lat="47.324369223788381" lon="11.270833052694798">
        <ele>1617.555419921875</ele>
        <time>2014-03-08T10:55:14Z</time>
      </trkpt>
      <trkpt lat="47.324355896562338" lon="11.270836489275098">
        <ele>1618.0361328125</ele>
        <time>2014-03-08T10:55:34Z</time>
      </trkpt>
      <trkpt lat="47.32434868812561" lon="11.270839842036366">
        <ele>1617.555419921875</ele>
        <time>2014-03-08T10:55:45Z</time>
      </trkpt>
      <trkpt lat="47.324349023401737" lon="11.270827101543546">
        <ele>1617.555419921875</ele>
        <time>2014-03-08T10:55:58Z</time>
      </trkpt>
      <trkpt lat="47.324323877692223" lon="11.270812097936869">
        <ele>1616.59423828125</ele>
        <time>2014-03-08T10:56:06Z</time>
      </trkpt>
      <trkpt lat="47.324239388108253" lon="11.270736325532198">
        <ele>1618.516845703125</ele>
        <time>2014-03-08T10:56:17Z</time>
      </trkpt>
      <trkpt lat="47.324168477207422" lon="11.27070321701467">
        <ele>1621.400634765625</ele>
        <time>2014-03-08T10:56:28Z</time>
      </trkpt>
      <trkpt lat="47.324052387848496" lon="11.270687794312835">
        <ele>1624.765380859375</ele>
        <time>2014-03-08T10:56:45Z</time>
      </trkpt>
      <trkpt lat="47.323964545503259" lon="11.270714616402984">
        <ele>1627.168701171875</ele>
        <time>2014-03-08T10:56:59Z</time>
      </trkpt>
      <trkpt lat="47.323904279619455" lon="11.270710676908493">
        <ele>1630.052734375</ele>
        <time>2014-03-08T10:57:10Z</time>
      </trkpt>
      <trkpt lat="47.323873601853848" lon="11.270733810961246">
        <ele>1630.052734375</ele>
        <time>2014-03-08T10:57:37Z</time>
      </trkpt>
      <trkpt lat="47.323778551071882" lon="11.270767506211996">
        <ele>1632.9365234375</ele>
        <time>2014-03-08T10:57:51Z</time>
      </trkpt>
      <trkpt lat="47.323758602142334" lon="11.270774882286787">
        <ele>1634.378662109375</ele>
        <time>2014-03-08T10:57:54Z</time>
      </trkpt>
      <trkpt lat="47.323689954355359" lon="11.270814361050725">
        <ele>1636.30126953125</ele>
        <time>2014-03-08T10:58:06Z</time>
      </trkpt>
      <trkpt lat="47.323618289083242" lon="11.270848475396633">
        <ele>1637.7431640625</ele>
        <time>2014-03-08T10:58:19Z</time>
      </trkpt>
      <trkpt lat="47.323594400659204" lon="11.270869430154562">
        <ele>1639.665771484375</ele>
        <time>2014-03-08T10:58:23Z</time>
      </trkpt>
      <trkpt lat="47.323500690981746" lon="11.270966241136193">
        <ele>1642.069091796875</ele>
        <time>2014-03-08T10:58:39Z</time>
      </trkpt>
      <trkpt lat="47.323455596342683" lon="11.271011587232351">
        <ele>1643.510986328125</ele>
        <time>2014-03-08T10:58:52Z</time>
      </trkpt>
      <trkpt lat="47.32345006428659" lon="11.271011671051383">
        <ele>1643.99169921875</ele>
        <time>2014-03-08T10:59:06Z</time>
      </trkpt>
      <trkpt lat="47.323322743177414" lon="11.271036062389612">
        <ele>1647.3564453125</ele>
        <time>2014-03-08T10:59:23Z</time>
      </trkpt>
      <trkpt lat="47.323241773992777" lon="11.271100519225001">
        <ele>1649.279052734375</ele>
        <time>2014-03-08T10:59:37Z</time>
      </trkpt>
      <trkpt lat="47.323189387097955" lon="11.271167239174247">
        <ele>1652.6435546875</ele>
        <time>2014-03-08T10:59:49Z</time>
      </trkpt>
      <trkpt lat="47.323131049051881" lon="11.271218117326498">
        <ele>1655.527587890625</ele>
        <time>2014-03-08T11:00:02Z</time>
      </trkpt>
      <trkpt lat="47.323057372123003" lon="11.271190121769905">
        <ele>1658.411376953125</ele>
        <time>2014-03-08T11:00:14Z</time>
      </trkpt>
      <trkpt lat="47.3230039793998" lon="11.271218787878752">
        <ele>1659.853271484375</ele>
        <time>2014-03-08T11:00:24Z</time>
      </trkpt>
      <trkpt lat="47.322962656617165" lon="11.271280478686094">
        <ele>1662.737548828125</ele>
        <time>2014-03-08T11:00:34Z</time>
      </trkpt>
      <trkpt lat="47.322924351319671" lon="11.271323729306459">
        <ele>1664.179443359375</ele>
        <time>2014-03-08T11:00:43Z</time>
      </trkpt>
      <trkpt lat="47.322842292487621" lon="11.27128223888576">
        <ele>1667.0634765625</ele>
        <time>2014-03-08T11:00:55Z</time>
      </trkpt>
      <trkpt lat="47.322812201455235" lon="11.271208897233009">
        <ele>1668.50537109375</ele>
        <time>2014-03-08T11:01:04Z</time>
      </trkpt>
      <trkpt lat="47.322732321918011" lon="11.27110973931849">
        <ele>1671.38916015625</ele>
        <time>2014-03-08T11:01:18Z</time>
      </trkpt>
      <trkpt lat="47.32266828417778" lon="11.271063052117825">
        <ele>1673.79248046875</ele>
        <time>2014-03-08T11:01:28Z</time>
      </trkpt>
      <trkpt lat="47.32260424643755" lon="11.271052993834019">
        <ele>1675.715087890625</ele>
        <time>2014-03-08T11:01:38Z</time>
      </trkpt>
      <trkpt lat="47.322531659156084" lon="11.271087527275085">
        <ele>1677.157470703125</ele>
        <time>2014-03-08T11:01:50Z</time>
      </trkpt>
      <trkpt lat="47.322451779618859" lon="11.271102866157889">
        <ele>1679.079833984375</ele>
        <time>2014-03-08T11:02:02Z</time>
      </trkpt>
      <trkpt lat="47.322388160973787" lon="11.271116193383932">
        <ele>1681.002685546875</ele>
        <time>2014-03-08T11:02:12Z</time>
      </trkpt>
      <trkpt lat="47.322316411882639" lon="11.27112340182066">
        <ele>1682.925048828125</ele>
        <time>2014-03-08T11:02:23Z</time>
      </trkpt>
      <trkpt lat="47.322253547608852" lon="11.271143266931176">
        <ele>1685.328369140625</ele>
        <time>2014-03-08T11:02:33Z</time>
      </trkpt>
      <trkpt lat="47.322225132957101" lon="11.271155839785933">
        <ele>1685.80908203125</ele>
        <time>2014-03-08T11:02:42Z</time>
      </trkpt>
      <trkpt lat="47.322184229269624" lon="11.271166568621993">
        <ele>1687.2509765625</ele>
        <time>2014-03-08T11:02:52Z</time>
      </trkpt>
      <trkpt lat="47.322171069681644" lon="11.271163383498788">
        <ele>1687.2509765625</ele>
        <time>2014-03-08T11:03:02Z</time>
      </trkpt>
      <trkpt lat="47.322161011397839" lon="11.271161874756217">
        <ele>1686.770263671875</ele>
        <time>2014-03-08T11:03:41Z</time>
      </trkpt>
      <trkpt lat="47.322162520140409" lon="11.271154079586267">
        <ele>1686.770263671875</ele>
        <time>2014-03-08T11:03:51Z</time>
      </trkpt>
      <trkpt lat="47.322154976427555" lon="11.271150559186935">
        <ele>1685.80908203125</ele>
        <time>2014-03-08T11:04:22Z</time>
      </trkpt>
      <trkpt lat="47.322150366380811" lon="11.271138237789273">
        <ele>1687.2509765625</ele>
        <time>2014-03-08T11:05:19Z</time>
      </trkpt>
      <trkpt lat="47.322124047204852" lon="11.271139662712812">
        <ele>1688.21240234375</ele>
        <time>2014-03-08T11:06:00Z</time>
      </trkpt>
      <trkpt lat="47.32195976190269" lon="11.271078307181597">
        <ele>1691.09619140625</ele>
        <time>2014-03-08T11:06:20Z</time>
      </trkpt>
      <trkpt lat="47.321931347250938" lon="11.271068751811981">
        <ele>1690.615478515625</ele>
        <time>2014-03-08T11:06:28Z</time>
      </trkpt>
      <trkpt lat="47.321887258440256" lon="11.271051988005638">
        <ele>1692.53857421875</ele>
        <time>2014-03-08T11:07:09Z</time>
      </trkpt>
      <trkpt lat="47.321759266778827" lon="11.271015107631683">
        <ele>1694.941650390625</ele>
        <time>2014-03-08T11:07:25Z</time>
      </trkpt>
      <trkpt lat="47.321627587080002" lon="11.271001864224672">
        <ele>1697.82568359375</ele>
        <time>2014-03-08T11:07:44Z</time>
      </trkpt>
      <trkpt lat="47.321617277339101" lon="11.271013179793954">
        <ele>1698.786865234375</ele>
        <time>2014-03-08T11:07:58Z</time>
      </trkpt>
      <trkpt lat="47.321616020053625" lon="11.271010413765907">
        <ele>1698.30615234375</ele>
        <time>2014-03-08T11:08:21Z</time>
      </trkpt>
      <trkpt lat="47.321613505482674" lon="11.271011754870415">
        <ele>1698.786865234375</ele>
        <time>2014-03-08T11:08:32Z</time>
      </trkpt>
      <trkpt lat="47.321610823273659" lon="11.271009324118495">
        <ele>1698.786865234375</ele>
        <time>2014-03-08T11:09:13Z</time>
      </trkpt>
      <trkpt lat="47.321523567661643" lon="11.271058609709144">
        <ele>1702.1513671875</ele>
        <time>2014-03-08T11:09:29Z</time>
      </trkpt>
      <trkpt lat="47.321457602083683" lon="11.271122982725501">
        <ele>1705.035400390625</ele>
        <time>2014-03-08T11:09:43Z</time>
      </trkpt>
      <trkpt lat="47.32137780636549" lon="11.271220631897449">
        <ele>1708.400146484375</ele>
        <time>2014-03-08T11:10:00Z</time>
      </trkpt>
      <trkpt lat="47.321305135264993" lon="11.271311407908797">
        <ele>1711.764892578125</ele>
        <time>2014-03-08T11:10:16Z</time>
      </trkpt>
      <trkpt lat="47.321229949593544" lon="11.27139950171113">
        <ele>1715.12939453125</ele>
        <time>2014-03-08T11:10:30Z</time>
      </trkpt>
      <trkpt lat="47.3211735393852" lon="11.271452307701111">
        <ele>1716.090576171875</ele>
        <time>2014-03-08T11:10:38Z</time>
      </trkpt>
      <trkpt lat="47.321099862456322" lon="11.271593878045678">
        <ele>1719.455322265625</ele>
        <time>2014-03-08T11:10:56Z</time>
      </trkpt>
      <trkpt lat="47.321095084771514" lon="11.271601757034659">
        <ele>1719.935791015625</ele>
        <time>2014-03-08T11:10:57Z</time>
      </trkpt>
      <trkpt lat="47.321021826937795" lon="11.271747602149844">
        <ele>1723.300537109375</ele>
        <time>2014-03-08T11:11:15Z</time>
      </trkpt>
      <trkpt lat="47.320955442264676" lon="11.27189596183598">
        <ele>1726.1845703125</ele>
        <time>2014-03-08T11:11:33Z</time>
      </trkpt>
      <trkpt lat="47.320944964885712" lon="11.271951198577881">
        <ele>1727.14599609375</ele>
        <time>2014-03-08T11:11:45Z</time>
      </trkpt>
      <trkpt lat="47.320921076461673" lon="11.272101234644651">
        <ele>1730.510498046875</ele>
        <time>2014-03-08T11:12:01Z</time>
      </trkpt>
      <trkpt lat="47.320912275463343" lon="11.272126967087388">
        <ele>1730.510498046875</ele>
        <time>2014-03-08T11:12:05Z</time>
      </trkpt>
      <trkpt lat="47.320872964337468" lon="11.272114561870694">
        <ele>1731.4716796875</ele>
        <time>2014-03-08T11:12:14Z</time>
      </trkpt>
      <trkpt lat="47.320800796151161" lon="11.272078016772866">
        <ele>1732.91357421875</ele>
        <time>2014-03-08T11:12:25Z</time>
      </trkpt>
      <trkpt lat="47.320768525823951" lon="11.272165104746819">
        <ele>1735.31689453125</ele>
        <time>2014-03-08T11:12:36Z</time>
      </trkpt>
      <trkpt lat="47.320761317387223" lon="11.27225948497653">
        <ele>1737.239501953125</ele>
        <time>2014-03-08T11:12:47Z</time>
      </trkpt>
      <trkpt lat="47.320762909948826" lon="11.272285049781203">
        <ele>1736.2783203125</ele>
        <time>2014-03-08T11:12:57Z</time>
      </trkpt>
      <trkpt lat="47.320766095072031" lon="11.272293850779533">
        <ele>1737.239501953125</ele>
        <time>2014-03-08T11:13:16Z</time>
      </trkpt>
      <trkpt lat="47.320763329043984" lon="11.272291922941804">
        <ele>1737.72021484375</ele>
        <time>2014-03-08T11:13:33Z</time>
      </trkpt>
      <trkpt lat="47.320761317387223" lon="11.27231958322227">
        <ele>1738.200927734375</ele>
        <time>2014-03-08T11:13:43Z</time>
      </trkpt>
      <trkpt lat="47.320780595764518" lon="11.27249451354146">
        <ele>1742.04638671875</ele>
        <time>2014-03-08T11:14:02Z</time>
      </trkpt>
      <trkpt lat="47.32077875174582" lon="11.272671539336443">
        <ele>1745.410888671875</ele>
        <time>2014-03-08T11:14:20Z</time>
      </trkpt>
      <trkpt lat="47.320786044001579" lon="11.272802883759141">
        <ele>1748.775390625</ele>
        <time>2014-03-08T11:14:34Z</time>
      </trkpt>
      <trkpt lat="47.320805406197906" lon="11.27297580242157">
        <ele>1751.659423828125</ele>
        <time>2014-03-08T11:14:52Z</time>
      </trkpt>
      <trkpt lat="47.320822589099407" lon="11.273118127137423">
        <ele>1754.543212890625</ele>
        <time>2014-03-08T11:15:09Z</time>
      </trkpt>
      <trkpt lat="47.320860223844647" lon="11.273275874555111">
        <ele>1757.908203125</ele>
        <time>2014-03-08T11:15:28Z</time>
      </trkpt>
      <trkpt lat="47.32080121524632" lon="11.273310491815209">
        <ele>1759.83056640625</ele>
        <time>2014-03-08T11:15:41Z</time>
      </trkpt>
      <trkpt lat="47.320778919383883" lon="11.27332566305995">
        <ele>1760.7919921875</ele>
        <time>2014-03-08T11:15:56Z</time>
      </trkpt>
      <trkpt lat="47.320743463933468" lon="11.273330189287663">
        <ele>1762.23388671875</ele>
        <time>2014-03-08T11:16:31Z</time>
      </trkpt>
      <trkpt lat="47.320632236078382" lon="11.273342510685325">
        <ele>1765.117919921875</ele>
        <time>2014-03-08T11:16:48Z</time>
      </trkpt>
      <trkpt lat="47.32052855193615" lon="11.273361286148429">
        <ele>1768.963134765625</ele>
        <time>2014-03-08T11:17:06Z</time>
      </trkpt>
      <trkpt lat="47.320492006838322" lon="11.273365141823888">
        <ele>1769.92431640625</ele>
        <time>2014-03-08T11:17:15Z</time>
      </trkpt>
      <trkpt lat="47.320378515869379" lon="11.273381486535072">
        <ele>1773.289306640625</ele>
        <time>2014-03-08T11:17:33Z</time>
      </trkpt>
      <trkpt lat="47.320350268855691" lon="11.273398501798511">
        <ele>1774.731201171875</ele>
        <time>2014-03-08T11:17:44Z</time>
      </trkpt>
      <trkpt lat="47.320373570546508" lon="11.273489193990827">
        <ele>1776.173095703125</ele>
        <time>2014-03-08T11:17:55Z</time>
      </trkpt>
      <trkpt lat="47.320380192250013" lon="11.273520542308688">
        <ele>1778.095703125</ele>
        <time>2014-03-08T11:17:59Z</time>
      </trkpt>
      <trkpt lat="47.32038832269609" lon="11.273630261421204">
        <ele>1779.53759765625</ele>
        <time>2014-03-08T11:18:11Z</time>
      </trkpt>
      <trkpt lat="47.320404415950179" lon="11.273707123473287">
        <ele>1781.94091796875</ele>
        <time>2014-03-08T11:18:21Z</time>
      </trkpt>
      <trkpt lat="47.320430902764201" lon="11.273797899484634">
        <ele>1784.824951171875</ele>
        <time>2014-03-08T11:18:34Z</time>
      </trkpt>
      <trkpt lat="47.320446576923132" lon="11.273827822878957">
        <ele>1785.305419921875</ele>
        <time>2014-03-08T11:18:41Z</time>
      </trkpt>
      <trkpt lat="47.320442385971546" lon="11.273835198953748">
        <ele>1785.7861328125</ele>
        <time>2014-03-08T11:18:46Z</time>
      </trkpt>
      <trkpt lat="47.320382036268711" lon="11.273873839527369">
        <ele>1787.708740234375</ele>
        <time>2014-03-08T11:18:58Z</time>
      </trkpt>
      <trkpt lat="47.320307940244675" lon="11.273909881711006">
        <ele>1791.073486328125</ele>
        <time>2014-03-08T11:19:12Z</time>
      </trkpt>
      <trkpt lat="47.320243148133159" lon="11.273932848125696">
        <ele>1792.99609375</ele>
        <time>2014-03-08T11:19:28Z</time>
      </trkpt>
      <trkpt lat="47.320204256102443" lon="11.273931674659252">
        <ele>1794.43798828125</ele>
        <time>2014-03-08T11:19:38Z</time>
      </trkpt>
      <trkpt lat="47.320129238069057" lon="11.273973500356078">
        <ele>1797.322021484375</ele>
        <time>2014-03-08T11:19:53Z</time>
      </trkpt>
      <trkpt lat="47.320038881152868" lon="11.274012811481953">
        <ele>1800.6865234375</ele>
        <time>2014-03-08T11:20:09Z</time>
      </trkpt>
      <trkpt lat="47.319968221709132" lon="11.274028066545725">
        <ele>1803.570556640625</ele>
        <time>2014-03-08T11:20:23Z</time>
      </trkpt>
      <trkpt lat="47.319883145391941" lon="11.274028988555074">
        <ele>1806.935302734375</ele>
        <time>2014-03-08T11:20:39Z</time>
      </trkpt>
      <trkpt lat="47.319789351895452" lon="11.274031000211835">
        <ele>1809.819091796875</ele>
        <time>2014-03-08T11:20:55Z</time>
      </trkpt>
      <trkpt lat="47.319696228951216" lon="11.274042064324021">
        <ele>1813.183837890625</ele>
        <time>2014-03-08T11:21:12Z</time>
      </trkpt>
      <trkpt lat="47.319597993046045" lon="11.274024462327361">
        <ele>1816.54833984375</ele>
        <time>2014-03-08T11:21:30Z</time>
      </trkpt>
      <trkpt lat="47.319529093801975" lon="11.273979032412171">
        <ele>1819.432373046875</ele>
        <time>2014-03-08T11:21:48Z</time>
      </trkpt>
      <trkpt lat="47.31953370384872" lon="11.273982636630535">
        <ele>1819.912841796875</ele>
        <time>2014-03-08T11:21:54Z</time>
      </trkpt>
      <trkpt lat="47.319526243954897" lon="11.274061258882284">
        <ele>1821.35498046875</ele>
        <time>2014-03-08T11:22:03Z</time>
      </trkpt>
      <trkpt lat="47.319514341652393" lon="11.274119932204485">
        <ele>1822.31640625</ele>
        <time>2014-03-08T11:22:13Z</time>
      </trkpt>
      <trkpt lat="47.319508725777268" lon="11.274152118712664">
        <ele>1823.27783203125</ele>
        <time>2014-03-08T11:22:24Z</time>
      </trkpt>
      <trkpt lat="47.31950344517827" lon="11.274223029613495">
        <ele>1825.680908203125</ele>
        <time>2014-03-08T11:22:58Z</time>
      </trkpt>
      <trkpt lat="47.319501349702477" lon="11.274391505867243">
        <ele>1828.56494140625</ele>
        <time>2014-03-08T11:23:15Z</time>
      </trkpt>
      <trkpt lat="47.319506043568254" lon="11.274437606334686">
        <ele>1829.526123046875</ele>
        <time>2014-03-08T11:23:21Z</time>
      </trkpt>
      <trkpt lat="47.319531859830022" lon="11.27456383779645">
        <ele>1832.890625</ele>
        <time>2014-03-08T11:23:37Z</time>
      </trkpt>
      <trkpt lat="47.31957427226007" lon="11.27472460269928">
        <ele>1836.255615234375</ele>
        <time>2014-03-08T11:23:56Z</time>
      </trkpt>
      <trkpt lat="47.319627413526177" lon="11.274844463914633">
        <ele>1839.6201171875</ele>
        <time>2014-03-08T11:24:13Z</time>
      </trkpt>
      <trkpt lat="47.319688517600298" lon="11.274937503039837">
        <ele>1841.06201171875</ele>
        <time>2014-03-08T11:24:29Z</time>
      </trkpt>
      <trkpt lat="47.319682063534856" lon="11.27495133318007">
        <ele>1842.0234375</ele>
        <time>2014-03-08T11:24:40Z</time>
      </trkpt>
      <trkpt lat="47.319687763229012" lon="11.274953847751021">
        <ele>1842.0234375</ele>
        <time>2014-03-08T11:24:51Z</time>
      </trkpt>
      <trkpt lat="47.319575361907482" lon="11.27495376393199">
        <ele>1844.9072265625</ele>
        <time>2014-03-08T11:25:08Z</time>
      </trkpt>
      <trkpt lat="47.319475701078773" lon="11.274946136400104">
        <ele>1848.271728515625</ele>
        <time>2014-03-08T11:25:24Z</time>
      </trkpt>
      <trkpt lat="47.319366903975606" lon="11.274966839700937">
        <ele>1851.15576171875</ele>
        <time>2014-03-08T11:25:42Z</time>
      </trkpt>
      <trkpt lat="47.319315103814006" lon="11.274962397292256">
        <ele>1852.1171875</ele>
        <time>2014-03-08T11:25:56Z</time>
      </trkpt>
      <trkpt lat="47.319308733567595" lon="11.274984693154693">
        <ele>1853.07861328125</ele>
        <time>2014-03-08T11:26:01Z</time>
      </trkpt>
      <trkpt lat="47.319338573142886" lon="11.2751086615026">
        <ele>1855.96240234375</ele>
        <time>2014-03-08T11:26:16Z</time>
      </trkpt>
      <trkpt lat="47.319379141554236" lon="11.275184014812112">
        <ele>1859.3271484375</ele>
        <time>2014-03-08T11:26:29Z</time>
      </trkpt>
      <trkpt lat="47.319382578134537" lon="11.275187116116285">
        <ele>1859.3271484375</ele>
        <time>2014-03-08T11:26:30Z</time>
      </trkpt>
      <trkpt lat="47.319436892867088" lon="11.275307480245829">
        <ele>1862.691650390625</ele>
        <time>2014-03-08T11:26:49Z</time>
      </trkpt>
      <trkpt lat="47.31944820843637" lon="11.2753192987293">
        <ele>1862.2109375</ele>
        <time>2014-03-08T11:27:00Z</time>
      </trkpt>
      <trkpt lat="47.319449633359909" lon="11.275320136919618">
        <ele>1862.2109375</ele>
        <time>2014-03-08T11:27:53Z</time>
      </trkpt>
      <trkpt lat="47.319440329447389" lon="11.275333380326629">
        <ele>1863.17236328125</ele>
        <time>2014-03-08T11:28:02Z</time>
      </trkpt>
      <trkpt lat="47.319372016936541" lon="11.275343522429466">
        <ele>1865.094970703125</ele>
        <time>2014-03-08T11:28:13Z</time>
      </trkpt>
      <trkpt lat="47.31927621178329" lon="11.275377133861184">
        <ele>1868.9404296875</ele>
        <time>2014-03-08T11:28:27Z</time>
      </trkpt>
      <trkpt lat="47.319216532632709" lon="11.275404207408428">
        <ele>1869.901611328125</ele>
        <time>2014-03-08T11:28:43Z</time>
      </trkpt>
      <trkpt lat="47.319221729412675" lon="11.275423150509596">
        <ele>1870.863037109375</ele>
        <time>2014-03-08T11:28:49Z</time>
      </trkpt>
      <trkpt lat="47.319274619221687" lon="11.275522643700242">
        <ele>1874.2275390625</ele>
        <time>2014-03-08T11:29:06Z</time>
      </trkpt>
      <trkpt lat="47.319329017773271" lon="11.275640912353992">
        <ele>1877.592041015625</ele>
        <time>2014-03-08T11:29:23Z</time>
      </trkpt>
      <trkpt lat="47.319373358041048" lon="11.275781141594052">
        <ele>1880.956787109375</ele>
        <time>2014-03-08T11:29:39Z</time>
      </trkpt>
      <trkpt lat="47.319428259506822" lon="11.275905026122928">
        <ele>1883.35986328125</ele>
        <time>2014-03-08T11:29:59Z</time>
      </trkpt>
      <trkpt lat="47.319396827369928" lon="11.275902763009071">
        <ele>1885.28271484375</ele>
        <time>2014-03-08T11:30:07Z</time>
      </trkpt>
      <trkpt lat="47.319335723295808" lon="11.275892369449139">
        <ele>1886.724609375</ele>
        <time>2014-03-08T11:30:18Z</time>
      </trkpt>
      <trkpt lat="47.319280654191971" lon="11.27588951960206">
        <ele>1888.6474609375</ele>
        <time>2014-03-08T11:30:28Z</time>
      </trkpt>
      <trkpt lat="47.319231703877449" lon="11.275895806029439">
        <ele>1890.08935546875</ele>
        <time>2014-03-08T11:30:38Z</time>
      </trkpt>
      <trkpt lat="47.319214101880789" lon="11.275899661704898">
        <ele>1891.53125</ele>
        <time>2014-03-08T11:31:07Z</time>
      </trkpt>
      <trkpt lat="47.319171689450741" lon="11.275910390540957">
        <ele>1892.97314453125</ele>
        <time>2014-03-08T11:31:23Z</time>
      </trkpt>
      <trkpt lat="47.319166911765933" lon="11.275912653654814">
        <ele>1892.97314453125</ele>
        <time>2014-03-08T11:31:32Z</time>
      </trkpt>
      <trkpt lat="47.319090720266104" lon="11.275942828506231">
        <ele>1895.857177734375</ele>
        <time>2014-03-08T11:31:46Z</time>
      </trkpt>
      <trkpt lat="47.319035064429045" lon="11.275954060256481">
        <ele>1896.818359375</ele>
        <time>2014-03-08T11:32:00Z</time>
      </trkpt>
      <trkpt lat="47.319036070257425" lon="11.275954395532608">
        <ele>1897.77978515625</ele>
        <time>2014-03-08T11:32:02Z</time>
      </trkpt>
      <trkpt lat="47.319067502394319" lon="11.275998651981354">
        <ele>1899.2216796875</ele>
        <time>2014-03-08T11:32:15Z</time>
      </trkpt>
      <trkpt lat="47.319134809076786" lon="11.27611767500639">
        <ele>1902.58642578125</ele>
        <time>2014-03-08T11:32:33Z</time>
      </trkpt>
      <trkpt lat="47.319170767441392" lon="11.276206858456135">
        <ele>1905.470458984375</ele>
        <time>2014-03-08T11:32:45Z</time>
      </trkpt>
      <trkpt lat="47.319227932021022" lon="11.276375837624073">
        <ele>1908.354248046875</ele>
        <time>2014-03-08T11:33:05Z</time>
      </trkpt>
      <trkpt lat="47.319231200963259" lon="11.276383800432086">
        <ele>1908.8349609375</ele>
        <time>2014-03-08T11:33:06Z</time>
      </trkpt>
      <trkpt lat="47.319260621443391" lon="11.276429565623403">
        <ele>1910.27685546875</ele>
        <time>2014-03-08T11:33:15Z</time>
      </trkpt>
      <trkpt lat="47.319286689162254" lon="11.276461919769645">
        <ele>1910.757568359375</ele>
        <time>2014-03-08T11:33:28Z</time>
      </trkpt>
      <trkpt lat="47.31928844936192" lon="11.276466110721231">
        <ele>1910.757568359375</ele>
        <time>2014-03-08T11:33:58Z</time>
      </trkpt>
      <trkpt lat="47.319287359714508" lon="11.276458147913218">
        <ele>1911.23828125</ele>
        <time>2014-03-08T11:34:10Z</time>
      </trkpt>
      <trkpt lat="47.319288784638047" lon="11.276464182883501">
        <ele>1910.27685546875</ele>
        <time>2014-03-08T11:34:21Z</time>
      </trkpt>
      <trkpt lat="47.319288281723857" lon="11.276461333036423">
        <ele>1910.27685546875</ele>
        <time>2014-03-08T11:34:41Z</time>
      </trkpt>
      <trkpt lat="47.319285264238715" lon="11.276465188711882">
        <ele>1910.27685546875</ele>
        <time>2014-03-08T11:35:07Z</time>
      </trkpt>
      <trkpt lat="47.319281827658415" lon="11.276463260874152">
        <ele>1909.796142578125</ele>
        <time>2014-03-08T11:35:16Z</time>
      </trkpt>
      <trkpt lat="47.319278893992305" lon="11.276463260874152">
        <ele>1910.27685546875</ele>
        <time>2014-03-08T11:35:34Z</time>
      </trkpt>
      <trkpt lat="47.319275038316846" lon="11.276466529816389">
        <ele>1910.757568359375</ele>
        <time>2014-03-08T11:35:51Z</time>
      </trkpt>
      <trkpt lat="47.319267075508833" lon="11.27647440880537">
        <ele>1910.27685546875</ele>
        <time>2014-03-08T11:36:05Z</time>
      </trkpt>
      <trkpt lat="47.319217789918184" lon="11.276481365785003">
        <ele>1912.199462890625</ele>
        <time>2014-03-08T11:36:23Z</time>
      </trkpt>
      <trkpt lat="47.319134054705501" lon="11.276483042165637">
        <ele>1915.564208984375</ele>
        <time>2014-03-08T11:36:37Z</time>
      </trkpt>
      <trkpt lat="47.319063814356923" lon="11.276470134034753">
        <ele>1917.48681640625</ele>
        <time>2014-03-08T11:36:52Z</time>
      </trkpt>
      <trkpt lat="47.319023497402668" lon="11.276467200368643">
        <ele>1918.928955078125</ele>
        <time>2014-03-08T11:37:04Z</time>
      </trkpt>
      <trkpt lat="47.31902064755559" lon="11.276461584493518">
        <ele>1918.928955078125</ele>
        <time>2014-03-08T11:37:18Z</time>
      </trkpt>
      <trkpt lat="47.319016037508845" lon="11.276463344693184">
        <ele>1919.89013671875</ele>
        <time>2014-03-08T11:37:40Z</time>
      </trkpt>
      <trkpt lat="47.318989299237728" lon="11.276461165398359">
        <ele>1920.8515625</ele>
        <time>2014-03-08T11:37:48Z</time>
      </trkpt>
      <trkpt lat="47.318980665877461" lon="11.276468373835087">
        <ele>1921.33203125</ele>
        <time>2014-03-08T11:37:57Z</time>
      </trkpt>
      <trkpt lat="47.31899181380868" lon="11.276483712717891">
        <ele>1921.812744140625</ele>
        <time>2014-03-08T11:38:08Z</time>
      </trkpt>
      <trkpt lat="47.319009248167276" lon="11.276561329141259">
        <ele>1923.7353515625</ele>
        <time>2014-03-08T11:38:17Z</time>
      </trkpt>
      <trkpt lat="47.319042440503836" lon="11.276633078232408">
        <ele>1925.657958984375</ele>
        <time>2014-03-08T11:38:28Z</time>
      </trkpt>
      <trkpt lat="47.3190788179636" lon="11.276702899485826">
        <ele>1927.10009765625</ele>
        <time>2014-03-08T11:38:38Z</time>
      </trkpt>
      <trkpt lat="47.319125086069107" lon="11.276790909469128">
        <ele>1929.503173828125</ele>
        <time>2014-03-08T11:38:51Z</time>
      </trkpt>
      <trkpt lat="47.319154087454081" lon="11.276845056563616">
        <ele>1930.9453125</ele>
        <time>2014-03-08T11:39:01Z</time>
      </trkpt>
      <trkpt lat="47.319144196808338" lon="11.276844553649426">
        <ele>1931.42578125</ele>
        <time>2014-03-08T11:39:11Z</time>
      </trkpt>
      <trkpt lat="47.319115363061428" lon="11.276845894753933">
        <ele>1932.867919921875</ele>
        <time>2014-03-08T11:39:22Z</time>
      </trkpt>
      <trkpt lat="47.319014193490148" lon="11.276856455951929">
        <ele>1936.232666015625</ele>
        <time>2014-03-08T11:39:40Z</time>
      </trkpt>
      <trkpt lat="47.318949736654758" lon="11.276860814541578">
        <ele>1938.635986328125</ele>
        <time>2014-03-08T11:39:53Z</time>
      </trkpt>
      <trkpt lat="47.318911096081138" lon="11.276867687702179">
        <ele>1940.077880859375</ele>
        <time>2014-03-08T11:40:03Z</time>
      </trkpt>
      <trkpt lat="47.318886118009686" lon="11.27686969935894">
        <ele>1941.0390625</ele>
        <time>2014-03-08T11:40:14Z</time>
      </trkpt>
      <trkpt lat="47.318890476599336" lon="11.276877662166953">
        <ele>1941.519775390625</ele>
        <time>2014-03-08T11:40:20Z</time>
      </trkpt>
      <trkpt lat="47.318909335881472" lon="11.276921583339572">
        <ele>1942.481201171875</ele>
        <time>2014-03-08T11:40:31Z</time>
      </trkpt>
      <trkpt lat="47.318942109122872" lon="11.276971204206347">
        <ele>1944.88427734375</ele>
        <time>2014-03-08T11:40:47Z</time>
      </trkpt>
      <trkpt lat="47.318974127992988" lon="11.27705586142838">
        <ele>1946.806884765625</ele>
        <time>2014-03-08T11:41:02Z</time>
      </trkpt>
      <trkpt lat="47.318965662270784" lon="11.277075139805675">
        <ele>1947.28759765625</ele>
        <time>2014-03-08T11:41:10Z</time>
      </trkpt>
      <trkpt lat="47.31895811855793" lon="11.277094334363937">
        <ele>1947.768310546875</ele>
        <time>2014-03-08T11:42:00Z</time>
      </trkpt>
      <trkpt lat="47.318884693086147" lon="11.277093747630715">
        <ele>1950.171875</ele>
        <time>2014-03-08T11:42:14Z</time>
      </trkpt>
      <trkpt lat="47.318823337554932" lon="11.277093077078462">
        <ele>1953.0556640625</ele>
        <time>2014-03-08T11:42:28Z</time>
      </trkpt>
      <trkpt lat="47.31876072473824" lon="11.27710472792387">
        <ele>1955.458984375</ele>
        <time>2014-03-08T11:42:42Z</time>
      </trkpt>
      <trkpt lat="47.318705823272467" lon="11.277117468416691">
        <ele>1958.3427734375</ele>
        <time>2014-03-08T11:42:57Z</time>
      </trkpt>
      <trkpt lat="47.318707332015038" lon="11.277115037664771">
        <ele>1956.90087890625</ele>
        <time>2014-03-08T11:43:07Z</time>
      </trkpt>
      <trkpt lat="47.318712193518877" lon="11.277134567499161">
        <ele>1958.3427734375</ele>
        <time>2014-03-08T11:43:16Z</time>
      </trkpt>
      <trkpt lat="47.318738847970963" lon="11.277181506156921">
        <ele>1960.265380859375</ele>
        <time>2014-03-08T11:43:25Z</time>
      </trkpt>
      <trkpt lat="47.318762233480811" lon="11.277217380702496">
        <ele>1961.70751953125</ele>
        <time>2014-03-08T11:43:31Z</time>
      </trkpt>
      <trkpt lat="47.318799952045083" lon="11.277273036539555">
        <ele>1963.1494140625</ele>
        <time>2014-03-08T11:43:42Z</time>
      </trkpt>
      <trkpt lat="47.318811854347587" lon="11.277309413999319">
        <ele>1964.591552734375</ele>
        <time>2014-03-08T11:43:55Z</time>
      </trkpt>
      <trkpt lat="47.318874802440405" lon="11.277448134496808">
        <ele>1967.9560546875</ele>
        <time>2014-03-08T11:44:14Z</time>
      </trkpt>
      <trkpt lat="47.318934146314859" lon="11.277528265491128">
        <ele>1970.840087890625</ele>
        <time>2014-03-08T11:44:28Z</time>
      </trkpt>
      <trkpt lat="47.319000698626041" lon="11.277640582993627">
        <ele>1974.20458984375</ele>
        <time>2014-03-08T11:44:44Z</time>
      </trkpt>
      <trkpt lat="47.319002961739898" lon="11.277661118656397">
        <ele>1973.723876953125</ele>
        <time>2014-03-08T11:44:53Z</time>
      </trkpt>
      <trkpt lat="47.318970859050751" lon="11.277676876634359">
        <ele>1975.165771484375</ele>
        <time>2014-03-08T11:45:08Z</time>
      </trkpt>
      <trkpt lat="47.318919897079468" lon="11.277679977938533">
        <ele>1976.60791015625</ele>
        <time>2014-03-08T11:45:24Z</time>
      </trkpt>
      <trkpt lat="47.318821409717202" lon="11.277671093121171">
        <ele>1979.49169921875</ele>
        <time>2014-03-08T11:45:41Z</time>
      </trkpt>
      <trkpt lat="47.318713031709194" lon="11.277661956846714">
        <ele>1982.3759765625</ele>
        <time>2014-03-08T11:45:57Z</time>
      </trkpt>
      <trkpt lat="47.318609599024057" lon="11.277661789208651">
        <ele>1985.259765625</ele>
        <time>2014-03-08T11:46:13Z</time>
      </trkpt>
      <trkpt lat="47.318517230451107" lon="11.277649635449052">
        <ele>1988.143798828125</ele>
        <time>2014-03-08T11:46:31Z</time>
      </trkpt>
      <trkpt lat="47.318495688959956" lon="11.277649467810988">
        <ele>1989.10498046875</ele>
        <time>2014-03-08T11:46:45Z</time>
      </trkpt>
      <trkpt lat="47.318416899070144" lon="11.277647707611322">
        <ele>1991.50830078125</ele>
        <time>2014-03-08T11:47:00Z</time>
      </trkpt>
      <trkpt lat="47.318411534652114" lon="11.277647875249386">
        <ele>1991.50830078125</ele>
        <time>2014-03-08T11:47:11Z</time>
      </trkpt>
      <trkpt lat="47.31841279193759" lon="11.277663633227348">
        <ele>1991.989013671875</ele>
        <time>2014-03-08T11:47:29Z</time>
      </trkpt>
      <trkpt lat="47.318415557965636" lon="11.277695400640368">
        <ele>1992.9501953125</ele>
        <time>2014-03-08T11:47:44Z</time>
      </trkpt>
      <trkpt lat="47.318416479974985" lon="11.277694730088115">
        <ele>1992.4697265625</ele>
        <time>2014-03-08T11:48:02Z</time>
      </trkpt>
      <trkpt lat="47.318446151912212" lon="11.27775315195322">
        <ele>1994.39208984375</ele>
        <time>2014-03-08T11:48:29Z</time>
      </trkpt>
      <trkpt lat="47.318491162732244" lon="11.277886927127838">
        <ele>1997.757080078125</ele>
        <time>2014-03-08T11:48:45Z</time>
      </trkpt>
      <trkpt lat="47.31855402700603" lon="11.277985330671072">
        <ele>2000.640869140625</ele>
        <time>2014-03-08T11:48:59Z</time>
      </trkpt>
      <trkpt lat="47.318593505769968" lon="11.278066718950868">
        <ele>2002.5634765625</ele>
        <time>2014-03-08T11:49:15Z</time>
      </trkpt>
      <trkpt lat="47.318583447486162" lon="11.278074514120817">
        <ele>2003.52490234375</ele>
        <time>2014-03-08T11:49:29Z</time>
      </trkpt>
      <trkpt lat="47.318470040336251" lon="11.278058839961886">
        <ele>2005.927978515625</ele>
        <time>2014-03-08T11:49:46Z</time>
      </trkpt>
      <trkpt lat="47.318406505510211" lon="11.278050038963556">
        <ele>2006.889404296875</ele>
        <time>2014-03-08T11:50:00Z</time>
      </trkpt>
      <trkpt lat="47.31835856102407" lon="11.278012236580253">
        <ele>2008.331298828125</ele>
        <time>2014-03-08T11:51:00Z</time>
      </trkpt>
      <trkpt lat="47.318269377574325" lon="11.277955072000623">
        <ele>2010.734619140625</ele>
        <time>2014-03-08T11:51:14Z</time>
      </trkpt>
      <trkpt lat="47.318233335390687" lon="11.277952305972576">
        <ele>2011.696044921875</ele>
        <time>2014-03-08T11:51:24Z</time>
      </trkpt>
      <trkpt lat="47.318143229931593" lon="11.277892123907804">
        <ele>2014.580078125</ele>
        <time>2014-03-08T11:51:40Z</time>
      </trkpt>
      <trkpt lat="47.318063853308558" lon="11.277850214391947">
        <ele>2017.944580078125</ele>
        <time>2014-03-08T11:51:53Z</time>
      </trkpt>
      <trkpt lat="47.318004509434104" lon="11.277828924357891">
        <ele>2019.8671875</ele>
        <time>2014-03-08T11:52:07Z</time>
      </trkpt>
      <trkpt lat="47.317944159731269" lon="11.277799168601632">
        <ele>2022.751220703125</ele>
        <time>2014-03-08T11:52:21Z</time>
      </trkpt>
      <trkpt lat="47.317907782271504" lon="11.277794390916824">
        <ele>2023.71240234375</ele>
        <time>2014-03-08T11:52:30Z</time>
      </trkpt>
      <trkpt lat="47.317846845835447" lon="11.277784751728177">
        <ele>2026.11572265625</ele>
        <time>2014-03-08T11:52:42Z</time>
      </trkpt>
      <trkpt lat="47.317768977954984" lon="11.277738902717829">
        <ele>2028.999755859375</ele>
        <time>2014-03-08T11:52:57Z</time>
      </trkpt>
      <trkpt lat="47.317744502797723" lon="11.277706380933523">
        <ele>2030.922607421875</ele>
        <time>2014-03-08T11:53:08Z</time>
      </trkpt>
      <trkpt lat="47.317718099802732" lon="11.277666818350554">
        <ele>2032.364501953125</ele>
        <time>2014-03-08T11:53:18Z</time>
      </trkpt>
      <trkpt lat="47.317709885537624" lon="11.27764318138361">
        <ele>2032.364501953125</ele>
        <time>2014-03-08T11:53:29Z</time>
      </trkpt>
      <trkpt lat="47.317708795890212" lon="11.277648797258735">
        <ele>2032.844970703125</ele>
        <time>2014-03-08T11:53:39Z</time>
      </trkpt>
      <trkpt lat="47.317704856395721" lon="11.277676457539201">
        <ele>2032.364501953125</ele>
        <time>2014-03-08T11:53:50Z</time>
      </trkpt>
      <trkpt lat="47.317707203328609" lon="11.277679977938533">
        <ele>2032.844970703125</ele>
        <time>2014-03-08T11:54:11Z</time>
      </trkpt>
      <trkpt lat="47.317713405936956" lon="11.277677966281772">
        <ele>2032.844970703125</ele>
        <time>2014-03-08T11:54:25Z</time>
      </trkpt>
      <trkpt lat="47.317711561918259" lon="11.277704453095794">
        <ele>2033.806396484375</ele>
        <time>2014-03-08T11:54:36Z</time>
      </trkpt>
      <trkpt lat="47.317712232470512" lon="11.277818949893117">
        <ele>2035.72900390625</ele>
        <time>2014-03-08T11:54:49Z</time>
      </trkpt>
      <trkpt lat="47.317717680707574" lon="11.277947276830673">
        <ele>2038.13232421875</ele>
        <time>2014-03-08T11:55:03Z</time>
      </trkpt>
      <trkpt lat="47.317728577181697" lon="11.277981558814645">
        <ele>2039.57421875</ele>
        <time>2014-03-08T11:55:14Z</time>
      </trkpt>
      <trkpt lat="47.317726649343967" lon="11.277984995394945">
        <ele>2039.093505859375</ele>
        <time>2014-03-08T11:55:23Z</time>
      </trkpt>
      <trkpt lat="47.317710975185037" lon="11.27797300927341">
        <ele>2040.054931640625</ele>
        <time>2014-03-08T11:55:31Z</time>
      </trkpt>
      <trkpt lat="47.317634532228112" lon="11.277887262403965">
        <ele>2043.41943359375</ele>
        <time>2014-03-08T11:55:47Z</time>
      </trkpt>
      <trkpt lat="47.317583989351988" lon="11.277825320139527">
        <ele>2045.822998046875</ele>
        <time>2014-03-08T11:56:02Z</time>
      </trkpt>
      <trkpt lat="47.317571165040135" lon="11.277811909094453">
        <ele>2046.7841796875</ele>
        <time>2014-03-08T11:56:13Z</time>
      </trkpt>
      <trkpt lat="47.317573260515928" lon="11.277808388695121">
        <ele>2046.3037109375</ele>
        <time>2014-03-08T11:56:25Z</time>
      </trkpt>
      <trkpt lat="47.317561693489552" lon="11.277850130572915">
        <ele>2047.264892578125</ele>
        <time>2014-03-08T11:56:34Z</time>
      </trkpt>
      <trkpt lat="47.317559011280537" lon="11.277867816388607">
        <ele>2048.22607421875</ele>
        <time>2014-03-08T11:56:36Z</time>
      </trkpt>
      <trkpt lat="47.317580133676529" lon="11.278040902689099">
        <ele>2051.5908203125</ele>
        <time>2014-03-08T11:56:56Z</time>
      </trkpt>
      <trkpt lat="47.317579546943307" lon="11.278116842731833">
        <ele>2052.552001953125</ele>
        <time>2014-03-08T11:57:06Z</time>
      </trkpt>
      <trkpt lat="47.317590694874525" lon="11.278249360620975">
        <ele>2054.955322265625</ele>
        <time>2014-03-08T11:57:21Z</time>
      </trkpt>
      <trkpt lat="47.317634196951985" lon="11.278299484401941">
        <ele>2057.358642578125</ele>
        <time>2014-03-08T11:57:36Z</time>
      </trkpt>
      <trkpt lat="47.31762858107686" lon="11.278295880183578">
        <ele>2057.358642578125</ele>
        <time>2014-03-08T11:57:44Z</time>
      </trkpt>
      <trkpt lat="47.317589437589049" lon="11.278315493836999">
        <ele>2059.28125</ele>
        <time>2014-03-08T11:57:54Z</time>
      </trkpt>
      <trkpt lat="47.317534117028117" lon="11.278304010629654">
        <ele>2060.723388671875</ele>
        <time>2014-03-08T11:58:06Z</time>
      </trkpt>
      <trkpt lat="47.317498493939638" lon="11.278276769444346">
        <ele>2062.165283203125</ele>
        <time>2014-03-08T11:58:18Z</time>
      </trkpt>
      <trkpt lat="47.317488016560674" lon="11.278272243216634">
        <ele>2063.126708984375</ele>
        <time>2014-03-08T11:58:29Z</time>
      </trkpt>
      <trkpt lat="47.317482149228454" lon="11.2782964669168">
        <ele>2063.126708984375</ele>
        <time>2014-03-08T11:58:36Z</time>
      </trkpt>
      <trkpt lat="47.31748441234231" lon="11.278359582647681">
        <ele>2064.568603515625</ele>
        <time>2014-03-08T11:58:46Z</time>
      </trkpt>
      <trkpt lat="47.317489357665181" lon="11.278392942622304">
        <ele>2066.010498046875</ele>
        <time>2014-03-08T11:58:52Z</time>
      </trkpt>
      <trkpt lat="47.317517939954996" lon="11.278475672006607">
        <ele>2067.452392578125</ele>
        <time>2014-03-08T11:59:03Z</time>
      </trkpt>
      <trkpt lat="47.317523555830121" lon="11.278490340337157">
        <ele>2067.452392578125</ele>
        <time>2014-03-08T11:59:13Z</time>
      </trkpt>
      <trkpt lat="47.317512407898903" lon="11.278495201840997">
        <ele>2068.413818359375</ele>
        <time>2014-03-08T11:59:20Z</time>
      </trkpt>
      <trkpt lat="47.317433785647154" lon="11.278438707813621">
        <ele>2071.297607421875</ele>
        <time>2014-03-08T11:59:36Z</time>
      </trkpt>
      <trkpt lat="47.317368742078543" lon="11.278364611789584">
        <ele>2074.181640625</ele>
        <time>2014-03-08T11:59:53Z</time>
      </trkpt>
      <trkpt lat="47.317355247214437" lon="11.278351619839668">
        <ele>2075.142822265625</ele>
        <time>2014-03-08T12:00:03Z</time>
      </trkpt>
      <trkpt lat="47.317307302728295" lon="11.27828230150044">
        <ele>2077.06591796875</ele>
        <time>2014-03-08T12:00:17Z</time>
      </trkpt>
      <trkpt lat="47.317247455939651" lon="11.278226645663381">
        <ele>2080.430419921875</ele>
        <time>2014-03-08T12:00:31Z</time>
      </trkpt>
      <trkpt lat="47.317213928326964" lon="11.278192447498441">
        <ele>2081.3916015625</ele>
        <time>2014-03-08T12:00:42Z</time>
      </trkpt>
      <trkpt lat="47.317214515060186" lon="11.278200158849359">
        <ele>2081.3916015625</ele>
        <time>2014-03-08T12:00:56Z</time>
      </trkpt>
      <trkpt lat="47.317207641899586" lon="11.278209378942847">
        <ele>2081.872314453125</ele>
        <time>2014-03-08T12:01:08Z</time>
      </trkpt>
      <trkpt lat="47.317206300795078" lon="11.278225723654032">
        <ele>2081.872314453125</ele>
        <time>2014-03-08T12:01:16Z</time>
      </trkpt>
      <trkpt lat="47.317213676869869" lon="11.278294203802943">
        <ele>2083.794921875</ele>
        <time>2014-03-08T12:01:28Z</time>
      </trkpt>
      <trkpt lat="47.317216275259852" lon="11.278421776369214">
        <ele>2086.6787109375</ele>
        <time>2014-03-08T12:01:42Z</time>
      </trkpt>
      <trkpt lat="47.317212335765362" lon="11.278498638421297">
        <ele>2088.120849609375</ele>
        <time>2014-03-08T12:01:54Z</time>
      </trkpt>
      <trkpt lat="47.317197332158685" lon="11.278547504916787">
        <ele>2089.562744140625</ele>
        <time>2014-03-08T12:02:07Z</time>
      </trkpt>
      <trkpt lat="47.31719121336937" lon="11.278651189059019">
        <ele>2091.966064453125</ele>
        <time>2014-03-08T12:02:22Z</time>
      </trkpt>
      <trkpt lat="47.317227590829134" lon="11.278742467984557">
        <ele>2094.369384765625</ele>
        <time>2014-03-08T12:02:36Z</time>
      </trkpt>
      <trkpt lat="47.317257262766361" lon="11.278769290074706">
        <ele>2095.8115234375</ele>
        <time>2014-03-08T12:02:50Z</time>
      </trkpt>
      <trkpt lat="47.317257346585393" lon="11.278767278417945">
        <ele>2095.330810546875</ele>
        <time>2014-03-08T12:03:28Z</time>
      </trkpt>
      <trkpt lat="47.317255167290568" lon="11.278779348358512">
        <ele>2095.8115234375</ele>
        <time>2014-03-08T12:03:40Z</time>
      </trkpt>
      <trkpt lat="47.317198170349002" lon="11.27881245687604">
        <ele>2098.214599609375</ele>
        <time>2014-03-08T12:03:53Z</time>
      </trkpt>
      <trkpt lat="47.317182831466198" lon="11.278848499059677">
        <ele>2100.137451171875</ele>
        <time>2014-03-08T12:04:01Z</time>
      </trkpt>
      <trkpt lat="47.317141843959689" lon="11.278989315032959">
        <ele>2103.501953125</ele>
        <time>2014-03-08T12:04:17Z</time>
      </trkpt>
      <trkpt lat="47.317153410986066" lon="11.279041450470686">
        <ele>2103.021240234375</ele>
        <time>2014-03-08T12:04:28Z</time>
      </trkpt>
      <trkpt lat="47.317156512290239" lon="11.279034409672022">
        <ele>2103.021240234375</ele>
        <time>2014-03-08T12:04:37Z</time>
      </trkpt>
      <trkpt lat="47.317160535603762" lon="11.279030470177531">
        <ele>2103.021240234375</ele>
        <time>2014-03-08T12:04:52Z</time>
      </trkpt>
      <trkpt lat="47.317164642736316" lon="11.279030302539468">
        <ele>2102.54052734375</ele>
        <time>2014-03-08T12:05:05Z</time>
      </trkpt>
      <trkpt lat="47.317166235297918" lon="11.279048155993223">
        <ele>2102.059814453125</ele>
        <time>2014-03-08T12:05:31Z</time>
      </trkpt>
      <trkpt lat="47.317162798717618" lon="11.279049078002572">
        <ele>2102.059814453125</ele>
        <time>2014-03-08T12:06:55Z</time>
      </trkpt>
      <trkpt lat="47.317167324945331" lon="11.279032062739134">
        <ele>2103.021240234375</ele>
        <time>2014-03-08T12:17:20Z</time>
      </trkpt>
      <trkpt lat="47.317168330773711" lon="11.279030721634626">
        <ele>2103.021240234375</ele>
        <time>2014-03-08T12:19:07Z</time>
      </trkpt>
      <trkpt lat="47.317160619422793" lon="11.27902208827436">
        <ele>2103.982666015625</ele>
        <time>2014-03-08T12:22:30Z</time>
      </trkpt>
      <trkpt lat="47.31715265661478" lon="11.279005575925112">
        <ele>2104.463134765625</ele>
        <time>2014-03-08T12:22:53Z</time>
      </trkpt>
      <trkpt lat="47.317149555310607" lon="11.279002139344811">
        <ele>2104.463134765625</ele>
        <time>2014-03-08T12:23:03Z</time>
      </trkpt>
      <trkpt lat="47.317149052396417" lon="11.278998116031289">
        <ele>2103.501953125</ele>
        <time>2014-03-08T12:23:13Z</time>
      </trkpt>
      <trkpt lat="47.317150309681892" lon="11.278993505984545">
        <ele>2104.463134765625</ele>
        <time>2014-03-08T12:23:36Z</time>
      </trkpt>
      <trkpt lat="47.317139077931643" lon="11.278949836269021">
        <ele>2102.54052734375</ele>
        <time>2014-03-08T12:23:39Z</time>
      </trkpt>
      <trkpt lat="47.317131534218788" lon="11.278887810185552">
        <ele>2101.579345703125</ele>
        <time>2014-03-08T12:23:41Z</time>
      </trkpt>
      <trkpt lat="47.317138407379389" lon="11.278823018074036">
        <ele>2102.059814453125</ele>
        <time>2014-03-08T12:23:45Z</time>
      </trkpt>
      <trkpt lat="47.317156763747334" lon="11.278723608702421">
        <ele>2099.176025390625</ele>
        <time>2014-03-08T12:23:51Z</time>
      </trkpt>
      <trkpt lat="47.317155841737986" lon="11.278697708621621">
        <ele>2098.6953125</ele>
        <time>2014-03-08T12:23:52Z</time>
      </trkpt>
      <trkpt lat="47.317152572795749" lon="11.2786521948874">
        <ele>2097.734130859375</ele>
        <time>2014-03-08T12:23:54Z</time>
      </trkpt>
      <trkpt lat="47.317154332995415" lon="11.278518754988909">
        <ele>2094.369384765625</ele>
        <time>2014-03-08T12:24:00Z</time>
      </trkpt>
      <trkpt lat="47.317155171185732" lon="11.27844700589776">
        <ele>2092.927490234375</ele>
        <time>2014-03-08T12:24:03Z</time>
      </trkpt>
      <trkpt lat="47.317174701020122" lon="11.27838246524334">
        <ele>2088.6015625</ele>
        <time>2014-03-08T12:24:06Z</time>
      </trkpt>
      <trkpt lat="47.317217448726296" lon="11.27832094207406">
        <ele>2082.83349609375</ele>
        <time>2014-03-08T12:24:09Z</time>
      </trkpt>
      <trkpt lat="47.317232703790069" lon="11.278298478573561">
        <ele>2079.94970703125</ele>
        <time>2014-03-08T12:24:10Z</time>
      </trkpt>
      <trkpt lat="47.317274697124958" lon="11.27827794291079">
        <ele>2075.62353515625</ele>
        <time>2014-03-08T12:24:12Z</time>
      </trkpt>
      <trkpt lat="47.317344937473536" lon="11.278229914605618">
        <ele>2070.817138671875</ele>
        <time>2014-03-08T12:24:15Z</time>
      </trkpt>
      <trkpt lat="47.317400425672531" lon="11.278198147192597">
        <ele>2067.452392578125</ele>
        <time>2014-03-08T12:24:17Z</time>
      </trkpt>
      <trkpt lat="47.317443927749991" lon="11.278155567124486">
        <ele>2063.126708984375</ele>
        <time>2014-03-08T12:24:19Z</time>
      </trkpt>
      <trkpt lat="47.317500924691558" lon="11.278078621253371">
        <ele>2057.358642578125</ele>
        <time>2014-03-08T12:24:25Z</time>
      </trkpt>
      <trkpt lat="47.317484747618437" lon="11.278074849396944">
        <ele>2056.8779296875</ele>
        <time>2014-03-08T12:24:34Z</time>
      </trkpt>
      <trkpt lat="47.317512324079871" lon="11.278017684817314">
        <ele>2051.110107421875</ele>
        <time>2014-03-08T12:24:37Z</time>
      </trkpt>
      <trkpt lat="47.317593293264508" lon="11.27793537452817">
        <ele>2045.34228515625</ele>
        <time>2014-03-08T12:24:41Z</time>
      </trkpt>
      <trkpt lat="47.317657247185707" lon="11.277838563546538">
        <ele>2039.093505859375</ele>
        <time>2014-03-08T12:24:45Z</time>
      </trkpt>
      <trkpt lat="47.317703012377024" lon="11.27780687995255">
        <ele>2034.287109375</ele>
        <time>2014-03-08T12:24:48Z</time>
      </trkpt>
      <trkpt lat="47.317733690142632" lon="11.277759941294789">
        <ele>2031.403076171875</ele>
        <time>2014-03-08T12:24:50Z</time>
      </trkpt>
      <trkpt lat="47.317768558859825" lon="11.27771845087409">
        <ele>2028.519287109375</ele>
        <time>2014-03-08T12:24:52Z</time>
      </trkpt>
      <trkpt lat="47.317805690690875" lon="11.277731694281101">
        <ele>2027.0771484375</ele>
        <time>2014-03-08T12:24:54Z</time>
      </trkpt>
      <trkpt lat="47.317878864705563" lon="11.277780057862401">
        <ele>2024.193115234375</ele>
        <time>2014-03-08T12:25:00Z</time>
      </trkpt>
      <trkpt lat="47.317871320992708" lon="11.277764802798629">
        <ele>2024.193115234375</ele>
        <time>2014-03-08T12:25:07Z</time>
      </trkpt>
      <trkpt lat="47.317870315164328" lon="11.277764132246375">
        <ele>2023.71240234375</ele>
        <time>2014-03-08T12:25:08Z</time>
      </trkpt>
      <trkpt lat="47.317873165011406" lon="11.277729934081435">
        <ele>2021.30908203125</ele>
        <time>2014-03-08T12:25:11Z</time>
      </trkpt>
      <trkpt lat="47.317900322377682" lon="11.277638990432024">
        <ele>2016.02197265625</ele>
        <time>2014-03-08T12:25:14Z</time>
      </trkpt>
      <trkpt lat="47.318001827225089" lon="11.277614515274763">
        <ele>2012.1767578125</ele>
        <time>2014-03-08T12:25:18Z</time>
      </trkpt>
      <trkpt lat="47.318032504990697" lon="11.277596494182944">
        <ele>2007.850830078125</ele>
        <time>2014-03-08T12:25:19Z</time>
      </trkpt>
      <trkpt lat="47.318135602399707" lon="11.277556847780943">
        <ele>2006.889404296875</ele>
        <time>2014-03-08T12:25:24Z</time>
      </trkpt>
      <trkpt lat="47.318130824714899" lon="11.277572857216001">
        <ele>2006.889404296875</ele>
        <time>2014-03-08T12:25:44Z</time>
      </trkpt>
      <trkpt lat="47.318131746724248" lon="11.277574030682445">
        <ele>2006.40869140625</ele>
        <time>2014-03-08T12:25:49Z</time>
      </trkpt>
      <trkpt lat="47.318170806393027" lon="11.277574868872762">
        <ele>2002.5634765625</ele>
        <time>2014-03-08T12:25:53Z</time>
      </trkpt>
      <trkpt lat="47.318214476108551" lon="11.277537401765585">
        <ele>1997.757080078125</ele>
        <time>2014-03-08T12:25:55Z</time>
      </trkpt>
      <trkpt lat="47.318300474435091" lon="11.277494318783283">
        <ele>1993.430908203125</ele>
        <time>2014-03-08T12:25:58Z</time>
      </trkpt>
      <trkpt lat="47.318350179120898" lon="11.277449894696474">
        <ele>1990.06640625</ele>
        <time>2014-03-08T12:26:00Z</time>
      </trkpt>
      <trkpt lat="47.318431232124567" lon="11.277384180575609">
        <ele>1983.337158203125</ele>
        <time>2014-03-08T12:26:03Z</time>
      </trkpt>
      <trkpt lat="47.318474734202027" lon="11.27732022665441">
        <ele>1979.972412109375</ele>
        <time>2014-03-08T12:26:05Z</time>
      </trkpt>
      <trkpt lat="47.31856182217598" lon="11.277325758710504">
        <ele>1974.685302734375</ele>
        <time>2014-03-08T12:26:09Z</time>
      </trkpt>
      <trkpt lat="47.318585626780987" lon="11.277298098430037">
        <ele>1970.359375</ele>
        <time>2014-03-08T12:26:11Z</time>
      </trkpt>
      <trkpt lat="47.318637175485492" lon="11.277257865294814">
        <ele>1967.475341796875</ele>
        <time>2014-03-08T12:26:14Z</time>
      </trkpt>
      <trkpt lat="47.318652346730232" lon="11.277250656858087">
        <ele>1967.475341796875</ele>
        <time>2014-03-08T12:26:15Z</time>
      </trkpt>
      <trkpt lat="47.318710181862116" lon="11.27725132741034">
        <ele>1964.591552734375</ele>
        <time>2014-03-08T12:26:21Z</time>
      </trkpt>
      <trkpt lat="47.318734405562282" lon="11.277263145893812">
        <ele>1963.1494140625</ele>
        <time>2014-03-08T12:26:27Z</time>
      </trkpt>
      <trkpt lat="47.318742871284485" lon="11.277263397350907">
        <ele>1963.1494140625</ele>
        <time>2014-03-08T12:26:48Z</time>
      </trkpt>
      <trkpt lat="47.318753013387322" lon="11.2772620562464">
        <ele>1962.18798828125</ele>
        <time>2014-03-08T12:26:57Z</time>
      </trkpt>
      <trkpt lat="47.318791067227721" lon="11.277185445651412">
        <ele>1955.458984375</ele>
        <time>2014-03-08T12:27:01Z</time>
      </trkpt>
      <trkpt lat="47.318804142996669" lon="11.277157198637724">
        <ele>1955.458984375</ele>
        <time>2014-03-08T12:27:02Z</time>
      </trkpt>
      <trkpt lat="47.31882618740201" lon="11.27708662301302">
        <ele>1951.61376953125</ele>
        <time>2014-03-08T12:27:04Z</time>
      </trkpt>
      <trkpt lat="47.318838760256767" lon="11.277000457048416">
        <ele>1946.326416015625</ele>
        <time>2014-03-08T12:27:06Z</time>
      </trkpt>
      <trkpt lat="47.318868180736899" lon="11.276926612481475">
        <ele>1943.4423828125</ele>
        <time>2014-03-08T12:27:08Z</time>
      </trkpt>
      <trkpt lat="47.318897768855095" lon="11.276819659397006">
        <ele>1938.635986328125</ele>
        <time>2014-03-08T12:27:11Z</time>
      </trkpt>
      <trkpt lat="47.318920316174626" lon="11.276760902255774">
        <ele>1935.271240234375</ele>
        <time>2014-03-08T12:27:13Z</time>
      </trkpt>
      <trkpt lat="47.31894152238965" lon="11.276696529239416">
        <ele>1929.98388671875</ele>
        <time>2014-03-08T12:27:15Z</time>
      </trkpt>
      <trkpt lat="47.318990137428045" lon="11.276608351618052">
        <ele>1925.657958984375</ele>
        <time>2014-03-08T12:27:18Z</time>
      </trkpt>
      <trkpt lat="47.319008242338896" lon="11.276573650538921">
        <ele>1922.29345703125</ele>
        <time>2014-03-08T12:27:19Z</time>
      </trkpt>
      <trkpt lat="47.319053001701832" lon="11.276503326371312">
        <ele>1917.967529296875</ele>
        <time>2014-03-08T12:27:21Z</time>
      </trkpt>
      <trkpt lat="47.319093737751245" lon="11.27643090672791">
        <ele>1914.602783203125</ele>
        <time>2014-03-08T12:27:23Z</time>
      </trkpt>
      <trkpt lat="47.319127265363932" lon="11.276371227577329">
        <ele>1911.718994140625</ele>
        <time>2014-03-08T12:27:25Z</time>
      </trkpt>
      <trkpt lat="47.319174120202661" lon="11.276371898129582">
        <ele>1910.27685546875</ele>
        <time>2014-03-08T12:27:30Z</time>
      </trkpt>
      <trkpt lat="47.319167330861092" lon="11.276383884251118">
        <ele>1910.27685546875</ele>
        <time>2014-03-08T12:27:42Z</time>
      </trkpt>
      <trkpt lat="47.319187195971608" lon="11.276356391608715">
        <ele>1906.431640625</ele>
        <time>2014-03-08T12:27:45Z</time>
      </trkpt>
      <trkpt lat="47.319192141294479" lon="11.276327222585678">
        <ele>1905.470458984375</ele>
        <time>2014-03-08T12:27:46Z</time>
      </trkpt>
      <trkpt lat="47.319226423278451" lon="11.276194872334599">
        <ele>1899.2216796875</ele>
        <time>2014-03-08T12:27:49Z</time>
      </trkpt>
      <trkpt lat="47.3192498087883" lon="11.276097306981683">
        <ele>1895.857177734375</ele>
        <time>2014-03-08T12:27:51Z</time>
      </trkpt>
      <trkpt lat="47.319263555109501" lon="11.27604584209621">
        <ele>1892.49267578125</ele>
        <time>2014-03-08T12:27:52Z</time>
      </trkpt>
      <trkpt lat="47.319289622828364" lon="11.275940146297216">
        <ele>1888.6474609375</ele>
        <time>2014-03-08T12:27:54Z</time>
      </trkpt>
      <trkpt lat="47.319306051358581" lon="11.275891195982695">
        <ele>1885.28271484375</ele>
        <time>2014-03-08T12:27:55Z</time>
      </trkpt>
      <trkpt lat="47.319338656961918" lon="11.275794804096222">
        <ele>1880.956787109375</ele>
        <time>2014-03-08T12:27:57Z</time>
      </trkpt>
      <trkpt lat="47.319381153210998" lon="11.275716768577695">
        <ele>1877.111572265625</ele>
        <time>2014-03-08T12:27:59Z</time>
      </trkpt>
      <trkpt lat="47.319425158202648" lon="11.275632949545979">
        <ele>1872.78564453125</ele>
        <time>2014-03-08T12:28:01Z</time>
      </trkpt>
      <trkpt lat="47.31946530751884" lon="11.275541754439473">
        <ele>1869.421142578125</ele>
        <time>2014-03-08T12:28:03Z</time>
      </trkpt>
      <trkpt lat="47.319497745484114" lon="11.275449385866523">
        <ele>1865.094970703125</ele>
        <time>2014-03-08T12:28:05Z</time>
      </trkpt>
      <trkpt lat="47.319526076316833" lon="11.27534662373364">
        <ele>1859.8076171875</ele>
        <time>2014-03-08T12:28:07Z</time>
      </trkpt>
      <trkpt lat="47.319542923942208" lon="11.275294153019786">
        <ele>1857.404541015625</ele>
        <time>2014-03-08T12:28:08Z</time>
      </trkpt>
      <trkpt lat="47.319584749639034" lon="11.2751604616642">
        <ele>1852.1171875</ele>
        <time>2014-03-08T12:28:11Z</time>
      </trkpt>
      <trkpt lat="47.31960017234087" lon="11.275170100852847">
        <ele>1851.636474609375</ele>
        <time>2014-03-08T12:28:23Z</time>
      </trkpt>
      <trkpt lat="47.319605788215995" lon="11.275156354531646">
        <ele>1850.194580078125</ele>
        <time>2014-03-08T12:28:33Z</time>
      </trkpt>
      <trkpt lat="47.319667646661401" lon="11.275071948766708">
        <ele>1843.946044921875</ele>
        <time>2014-03-08T12:28:36Z</time>
      </trkpt>
      <trkpt lat="47.319697234779596" lon="11.27502609975636">
        <ele>1839.139404296875</ele>
        <time>2014-03-08T12:28:37Z</time>
      </trkpt>
      <trkpt lat="47.31977267190814" lon="11.27489416860044">
        <ele>1835.2939453125</ele>
        <time>2014-03-08T12:28:39Z</time>
      </trkpt>
      <trkpt lat="47.319884486496449" lon="11.274566603824496">
        <ele>1825.2001953125</ele>
        <time>2014-03-08T12:28:43Z</time>
      </trkpt>
      <trkpt lat="47.319942908361554" lon="11.274467529729009">
        <ele>1820.87451171875</ele>
        <time>2014-03-08T12:28:45Z</time>
      </trkpt>
      <trkpt lat="47.319964282214642" lon="11.274409694597125">
        <ele>1817.990234375</ele>
        <time>2014-03-08T12:28:46Z</time>
      </trkpt>
      <trkpt lat="47.320004180073738" lon="11.274299640208483">
        <ele>1813.183837890625</ele>
        <time>2014-03-08T12:28:48Z</time>
      </trkpt>
      <trkpt lat="47.320038881152868" lon="11.274193776771426">
        <ele>1808.85791015625</ele>
        <time>2014-03-08T12:28:50Z</time>
      </trkpt>
      <trkpt lat="47.320085903629661" lon="11.274081291630864">
        <ele>1804.531982421875</ele>
        <time>2014-03-08T12:28:52Z</time>
      </trkpt>
      <trkpt lat="47.320130411535501" lon="11.273971321061254">
        <ele>1799.725341796875</ele>
        <time>2014-03-08T12:28:54Z</time>
      </trkpt>
      <trkpt lat="47.320185648277402" lon="11.273880628868937">
        <ele>1795.880126953125</ele>
        <time>2014-03-08T12:28:56Z</time>
      </trkpt>
      <trkpt lat="47.320200819522142" lon="11.273754565045238">
        <ele>1791.55419921875</ele>
        <time>2014-03-08T12:28:58Z</time>
      </trkpt>
      <trkpt lat="47.320180870592594" lon="11.273691700771451">
        <ele>1791.55419921875</ele>
        <time>2014-03-08T12:28:59Z</time>
      </trkpt>
      <trkpt lat="47.320158239454031" lon="11.273614503443241">
        <ele>1786.747314453125</ele>
        <time>2014-03-08T12:29:01Z</time>
      </trkpt>
      <trkpt lat="47.320176092907786" lon="11.273629674687982">
        <ele>1787.22802734375</ele>
        <time>2014-03-08T12:29:02Z</time>
      </trkpt>
      <trkpt lat="47.32019729912281" lon="11.273690611124039">
        <ele>1786.747314453125</ele>
        <time>2014-03-08T12:29:12Z</time>
      </trkpt>
      <trkpt lat="47.320197802037001" lon="11.273691114038229">
        <ele>1786.747314453125</ele>
        <time>2014-03-08T12:29:25Z</time>
      </trkpt>
      <trkpt lat="47.320277011021972" lon="11.273634117096663">
        <ele>1782.421630859375</ele>
        <time>2014-03-08T12:29:29Z</time>
      </trkpt>
      <trkpt lat="47.32042889110744" lon="11.273419875651598">
        <ele>1780.018310546875</ele>
        <time>2014-03-08T12:29:33Z</time>
      </trkpt>
      <trkpt lat="47.320456383749843" lon="11.273348880931735">
        <ele>1770.405029296875</ele>
        <time>2014-03-08T12:29:34Z</time>
      </trkpt>
      <trkpt lat="47.320487732067704" lon="11.273276042193174">
        <ele>1770.405029296875</ele>
        <time>2014-03-08T12:29:35Z</time>
      </trkpt>
      <trkpt lat="47.32071571983397" lon="11.272907657548785">
        <ele>1753.58203125</ele>
        <time>2014-03-08T12:29:40Z</time>
      </trkpt>
      <trkpt lat="47.320812027901411" lon="11.272775726392865">
        <ele>1746.852783203125</ele>
        <time>2014-03-08T12:29:42Z</time>
      </trkpt>
      <trkpt lat="47.320860140025616" lon="11.272707413882017">
        <ele>1744.93017578125</ele>
        <time>2014-03-08T12:29:43Z</time>
      </trkpt>
      <trkpt lat="47.320974720641971" lon="11.272446066141129">
        <ele>1736.2783203125</ele>
        <time>2014-03-08T12:29:46Z</time>
      </trkpt>
      <trkpt lat="47.321063652634621" lon="11.272329054772854">
        <ele>1730.510498046875</ele>
        <time>2014-03-08T12:29:48Z</time>
      </trkpt>
      <trkpt lat="47.321104891598225" lon="11.272325618192554">
        <ele>1730.02978515625</ele>
        <time>2014-03-08T12:29:49Z</time>
      </trkpt>
      <trkpt lat="47.321208994835615" lon="11.272278595715761">
        <ele>1725.22314453125</ele>
        <time>2014-03-08T12:29:52Z</time>
      </trkpt>
      <trkpt lat="47.321254508569837" lon="11.272222688421607">
        <ele>1723.300537109375</ele>
        <time>2014-03-08T12:29:53Z</time>
      </trkpt>
      <trkpt lat="47.321359869092703" lon="11.272093607112765">
        <ele>1716.090576171875</ele>
        <time>2014-03-08T12:29:55Z</time>
      </trkpt>
      <trkpt lat="47.321525327861309" lon="11.271918090060353">
        <ele>1710.32275390625</ele>
        <time>2014-03-08T12:29:58Z</time>
      </trkpt>
      <trkpt lat="47.321585174649954" lon="11.271862098947167">
        <ele>1707.91943359375</ele>
        <time>2014-03-08T12:29:59Z</time>
      </trkpt>
      <trkpt lat="47.321772007271647" lon="11.271692952141166">
        <ele>1700.22900390625</ele>
        <time>2014-03-08T12:30:02Z</time>
      </trkpt>
      <trkpt lat="47.321921372786164" lon="11.271640732884407">
        <ele>1696.8642578125</ele>
        <time>2014-03-08T12:30:05Z</time>
      </trkpt>
      <trkpt lat="47.321963617578149" lon="11.271637212485075">
        <ele>1695.42236328125</ele>
        <time>2014-03-08T12:30:09Z</time>
      </trkpt>
      <trkpt lat="47.32194609940052" lon="11.271612485870719">
        <ele>1693.499755859375</ele>
        <time>2014-03-08T12:30:12Z</time>
      </trkpt>
      <trkpt lat="47.321946686133742" lon="11.271627740934491">
        <ele>1693.499755859375</ele>
        <time>2014-03-08T12:30:19Z</time>
      </trkpt>
      <trkpt lat="47.32195045799017" lon="11.271616257727146">
        <ele>1695.42236328125</ele>
        <time>2014-03-08T12:30:30Z</time>
      </trkpt>
      <trkpt lat="47.321949787437916" lon="11.2716134916991">
        <ele>1695.42236328125</ele>
        <time>2014-03-08T12:30:31Z</time>
      </trkpt>
      <trkpt lat="47.321949284523726" lon="11.271606786176562">
        <ele>1694.4609375</ele>
        <time>2014-03-08T12:31:27Z</time>
      </trkpt>
      <trkpt lat="47.321951882913709" lon="11.27157929353416">
        <ele>1693.98046875</ele>
        <time>2014-03-08T12:31:30Z</time>
      </trkpt>
      <trkpt lat="47.322034696117043" lon="11.271467059850693">
        <ele>1690.615478515625</ele>
        <time>2014-03-08T12:31:34Z</time>
      </trkpt>
      <trkpt lat="47.32208096422255" lon="11.2714459374547">
        <ele>1690.135009765625</ele>
        <time>2014-03-08T12:31:35Z</time>
      </trkpt>
      <trkpt lat="47.322132345288992" lon="11.271428586915135">
        <ele>1688.693115234375</ele>
        <time>2014-03-08T12:31:36Z</time>
      </trkpt>
      <trkpt lat="47.32233258895576" lon="11.271311491727829">
        <ele>1682.444580078125</ele>
        <time>2014-03-08T12:31:40Z</time>
      </trkpt>
      <trkpt lat="47.322522522881627" lon="11.271214764565229">
        <ele>1677.637939453125</ele>
        <time>2014-03-08T12:31:44Z</time>
      </trkpt>
      <trkpt lat="47.322600642219186" lon="11.271190959960222">
        <ele>1674.75390625</ele>
        <time>2014-03-08T12:31:46Z</time>
      </trkpt>
      <trkpt lat="47.322632493451238" lon="11.271220128983259">
        <ele>1674.75390625</ele>
        <time>2014-03-08T12:31:47Z</time>
      </trkpt>
      <trkpt lat="47.32271471992135" lon="11.271308055147529">
        <ele>1669.466796875</ele>
        <time>2014-03-08T12:31:49Z</time>
      </trkpt>
      <trkpt lat="47.322761574760079" lon="11.271356837823987">
        <ele>1669.466796875</ele>
        <time>2014-03-08T12:31:50Z</time>
      </trkpt>
      <trkpt lat="47.322806501761079" lon="11.271394304931164">
        <ele>1667.0634765625</ele>
        <time>2014-03-08T12:31:51Z</time>
      </trkpt>
      <trkpt lat="47.322972966358066" lon="11.271422049030662">
        <ele>1661.7763671875</ele>
        <time>2014-03-08T12:31:55Z</time>
      </trkpt>
      <trkpt lat="47.322971876710653" lon="11.271333368495107">
        <ele>1660.334228515625</ele>
        <time>2014-03-08T12:32:00Z</time>
      </trkpt>
      <trkpt lat="47.322963997721672" lon="11.271341750398278">
        <ele>1660.334228515625</ele>
        <time>2014-03-08T12:32:20Z</time>
      </trkpt>
      <trkpt lat="47.322978749871254" lon="11.271296655759215">
        <ele>1659.853271484375</ele>
        <time>2014-03-08T12:32:37Z</time>
      </trkpt>
      <trkpt lat="47.323110178112984" lon="11.271224236115813">
        <ele>1654.085693359375</ele>
        <time>2014-03-08T12:32:41Z</time>
      </trkpt>
      <trkpt lat="47.32319793663919" lon="11.271146032959223">
        <ele>1651.20166015625</ele>
        <time>2014-03-08T12:32:44Z</time>
      </trkpt>
      <trkpt lat="47.323231464251876" lon="11.271073194220662">
        <ele>1648.79833984375</ele>
        <time>2014-03-08T12:32:46Z</time>
      </trkpt>
      <trkpt lat="47.323300279676914" lon="11.271020555868745">
        <ele>1644.953125</ele>
        <time>2014-03-08T12:32:48Z</time>
      </trkpt>
      <trkpt lat="47.323394911363721" lon="11.271018460392952">
        <ele>1643.99169921875</ele>
        <time>2014-03-08T12:32:50Z</time>
      </trkpt>
      <trkpt lat="47.323499014601111" lon="11.271051988005638">
        <ele>1640.626953125</ele>
        <time>2014-03-08T12:32:52Z</time>
      </trkpt>
      <trkpt lat="47.323552994057536" lon="11.271066153421998">
        <ele>1640.626953125</ele>
        <time>2014-03-08T12:32:53Z</time>
      </trkpt>
      <trkpt lat="47.32365139760077" lon="11.271030278876424">
        <ele>1637.262451171875</ele>
        <time>2014-03-08T12:32:55Z</time>
      </trkpt>
      <trkpt lat="47.32380629517138" lon="11.270950986072421">
        <ele>1632.9365234375</ele>
        <time>2014-03-08T12:32:58Z</time>
      </trkpt>
      <trkpt lat="47.323842337355018" lon="11.270939419046044">
        <ele>1632.9365234375</ele>
        <time>2014-03-08T12:32:59Z</time>
      </trkpt>
      <trkpt lat="47.323860442265868" lon="11.270930869504809">
        <ele>1632.9365234375</ele>
        <time>2014-03-08T12:33:00Z</time>
      </trkpt>
      <trkpt lat="47.323896903544664" lon="11.270882673561573">
        <ele>1629.09130859375</ele>
        <time>2014-03-08T12:33:03Z</time>
      </trkpt>
      <trkpt lat="47.32395876199007" lon="11.270913686603308">
        <ele>1625.7265625</ele>
        <time>2014-03-08T12:33:05Z</time>
      </trkpt>
      <trkpt lat="47.324011567980051" lon="11.270882338285446">
        <ele>1624.28466796875</ele>
        <time>2014-03-08T12:33:08Z</time>
      </trkpt>
      <trkpt lat="47.324057668447495" lon="11.270845290273428">
        <ele>1622.362060546875</ele>
        <time>2014-03-08T12:33:10Z</time>
      </trkpt>
      <trkpt lat="47.324166717007756" lon="11.27081704325974">
        <ele>1619.958740234375</ele>
        <time>2014-03-08T12:33:14Z</time>
      </trkpt>
      <trkpt lat="47.324198316782713" lon="11.270725261420012">
        <ele>1619.958740234375</ele>
        <time>2014-03-08T12:33:18Z</time>
      </trkpt>
      <trkpt lat="47.324184654280543" lon="11.270742947235703">
        <ele>1620.439453125</ele>
        <time>2014-03-08T12:33:27Z</time>
      </trkpt>
      <trkpt lat="47.32423578388989" lon="11.270787119865417">
        <ele>1618.0361328125</ele>
        <time>2014-03-08T12:33:31Z</time>
      </trkpt>
      <trkpt lat="47.324288338422775" lon="11.270829867571592">
        <ele>1615.15234375</ele>
        <time>2014-03-08T12:33:33Z</time>
      </trkpt>
      <trkpt lat="47.324311137199402" lon="11.270834226161242">
        <ele>1615.15234375</ele>
        <time>2014-03-08T12:33:34Z</time>
      </trkpt>
      <trkpt lat="47.324355058372021" lon="11.270783264189959">
        <ele>1615.15234375</ele>
        <time>2014-03-08T12:33:41Z</time>
      </trkpt>
      <trkpt lat="47.324381964281201" lon="11.270781084895134">
        <ele>1616.113525390625</ele>
        <time>2014-03-08T12:33:47Z</time>
      </trkpt>
      <trkpt lat="47.32441951520741" lon="11.270795166492462">
        <ele>1614.671630859375</ele>
        <time>2014-03-08T12:33:50Z</time>
      </trkpt>
      <trkpt lat="47.324463604018092" lon="11.270781420171261">
        <ele>1613.710205078125</ele>
        <time>2014-03-08T12:33:52Z</time>
      </trkpt>
      <trkpt lat="47.324474165216088" lon="11.270778486505151">
        <ele>1613.710205078125</ele>
        <time>2014-03-08T12:33:54Z</time>
      </trkpt>
      <trkpt lat="47.324491012841463" lon="11.270800782367587">
        <ele>1610.345458984375</ele>
        <time>2014-03-08T12:33:57Z</time>
      </trkpt>
      <trkpt lat="47.324524372816086" lon="11.270740516483784">
        <ele>1609.38427734375</ele>
        <time>2014-03-08T12:33:59Z</time>
      </trkpt>
      <trkpt lat="47.324534431099892" lon="11.270696679130197">
        <ele>1607.9423828125</ele>
        <time>2014-03-08T12:34:00Z</time>
      </trkpt>
      <trkpt lat="47.324550691992044" lon="11.270590396597981">
        <ele>1606.01953125</ele>
        <time>2014-03-08T12:34:04Z</time>
      </trkpt>
      <trkpt lat="47.324566030874848" lon="11.270564245060086">
        <ele>1605.058349609375</ele>
        <time>2014-03-08T12:34:06Z</time>
      </trkpt>
      <trkpt lat="47.324605425819755" lon="11.270626354962587">
        <ele>1601.69384765625</ele>
        <time>2014-03-08T12:34:10Z</time>
      </trkpt>
      <trkpt lat="47.324616238474846" lon="11.27067337743938">
        <ele>1600.732421875</ele>
        <time>2014-03-08T12:34:15Z</time>
      </trkpt>
      <trkpt lat="47.324667451903224" lon="11.270657535642385">
        <ele>1596.40673828125</ele>
        <time>2014-03-08T12:34:18Z</time>
      </trkpt>
      <trkpt lat="47.324694860726595" lon="11.270658960565925">
        <ele>1596.40673828125</ele>
        <time>2014-03-08T12:34:19Z</time>
      </trkpt>
      <trkpt lat="47.324727885425091" lon="11.270648902282119">
        <ele>1593.041748046875</ele>
        <time>2014-03-08T12:34:21Z</time>
      </trkpt>
      <trkpt lat="47.324779601767659" lon="11.270619565621018">
        <ele>1589.196533203125</ele>
        <time>2014-03-08T12:34:25Z</time>
      </trkpt>
      <trkpt lat="47.324824277311563" lon="11.270717047154903">
        <ele>1586.312744140625</ele>
        <time>2014-03-08T12:34:29Z</time>
      </trkpt>
      <trkpt lat="47.324838442727923" lon="11.270734732970595">
        <ele>1585.351318359375</ele>
        <time>2014-03-08T12:34:40Z</time>
      </trkpt>
      <trkpt lat="47.324841041117907" lon="11.270739678293467">
        <ele>1585.351318359375</ele>
        <time>2014-03-08T12:34:51Z</time>
      </trkpt>
      <trkpt lat="47.324871467426419" lon="11.270787287503481">
        <ele>1582.467529296875</ele>
        <time>2014-03-08T12:34:55Z</time>
      </trkpt>
      <trkpt lat="47.324935421347618" lon="11.270778235048056">
        <ele>1578.6220703125</ele>
        <time>2014-03-08T12:34:59Z</time>
      </trkpt>
      <trkpt lat="47.325026281177998" lon="11.270860712975264">
        <ele>1574.77685546875</ele>
        <time>2014-03-08T12:35:02Z</time>
      </trkpt>
      <trkpt lat="47.325034579262137" lon="11.270951237529516">
        <ele>1573.8154296875</ele>
        <time>2014-03-08T12:35:05Z</time>
      </trkpt>
      <trkpt lat="47.325082439929247" lon="11.270896755158901">
        <ele>1569.97021484375</ele>
        <time>2014-03-08T12:35:09Z</time>
      </trkpt>
      <trkpt lat="47.325105909258127" lon="11.270918799564242">
        <ele>1569.009033203125</ele>
        <time>2014-03-08T12:35:11Z</time>
      </trkpt>
      <trkpt lat="47.325103394687176" lon="11.270955093204975">
        <ele>1568.5283203125</ele>
        <time>2014-03-08T12:35:15Z</time>
      </trkpt>
      <trkpt lat="47.325132815167308" lon="11.271046623587608">
        <ele>1567.08642578125</ele>
        <time>2014-03-08T12:35:19Z</time>
      </trkpt>
      <trkpt lat="47.325218394398689" lon="11.271088952198625">
        <ele>1564.202392578125</ele>
        <time>2014-03-08T12:35:22Z</time>
      </trkpt>
      <trkpt lat="47.325272122398019" lon="11.271026423200965">
        <ele>1559.395751953125</ele>
        <time>2014-03-08T12:35:24Z</time>
      </trkpt>
      <trkpt lat="47.325288634747267" lon="11.271012173965573">
        <ele>1560.35693359375</ele>
        <time>2014-03-08T12:35:25Z</time>
      </trkpt>
      <trkpt lat="47.325301710516214" lon="11.271015275269747">
        <ele>1558.9150390625</ele>
        <time>2014-03-08T12:35:26Z</time>
      </trkpt>
      <trkpt lat="47.32539483346045" lon="11.271102279424667">
        <ele>1555.550537109375</ele>
        <time>2014-03-08T12:35:31Z</time>
      </trkpt>
      <trkpt lat="47.325529949739575" lon="11.271097334101796">
        <ele>1551.224609375</ele>
        <time>2014-03-08T12:35:34Z</time>
      </trkpt>
      <trkpt lat="47.3255355656147" lon="11.270951237529516">
        <ele>1549.78271484375</ele>
        <time>2014-03-08T12:35:37Z</time>
      </trkpt>
      <trkpt lat="47.325502876192331" lon="11.270969258621335">
        <ele>1549.302001953125</ele>
        <time>2014-03-08T12:35:47Z</time>
      </trkpt>
      <trkpt lat="47.325504133477807" lon="11.270970432087779">
        <ele>1549.78271484375</ele>
        <time>2014-03-08T12:36:36Z</time>
      </trkpt>
      <trkpt lat="47.325503882020712" lon="11.270970180630684">
        <ele>1551.224609375</ele>
        <time>2014-03-08T12:37:53Z</time>
      </trkpt>
      <trkpt lat="47.325539253652096" lon="11.27087420783937">
        <ele>1547.85986328125</ele>
        <time>2014-03-08T12:38:14Z</time>
      </trkpt>
      <trkpt lat="47.325569679960608" lon="11.270805057138205">
        <ele>1546.41796875</ele>
        <time>2014-03-08T12:38:15Z</time>
      </trkpt>
      <trkpt lat="47.325718877837062" lon="11.270579667761922">
        <ele>1542.57275390625</ele>
        <time>2014-03-08T12:38:18Z</time>
      </trkpt>
      <trkpt lat="47.325829099863768" lon="11.270466763526201">
        <ele>1540.16943359375</ele>
        <time>2014-03-08T12:38:20Z</time>
      </trkpt>
      <trkpt lat="47.325975196436048" lon="11.270259646698833">
        <ele>1535.36279296875</ele>
        <time>2014-03-08T12:38:23Z</time>
      </trkpt>
      <trkpt lat="47.326121712103486" lon="11.270053451880813">
        <ele>1529.5947265625</ele>
        <time>2014-03-08T12:38:26Z</time>
      </trkpt>
      <trkpt lat="47.326134787872434" lon="11.270021852105856">
        <ele>1530.075439453125</ele>
        <time>2014-03-08T12:38:27Z</time>
      </trkpt>
      <trkpt lat="47.326117856428027" lon="11.270069712772965">
        <ele>1529.114013671875</ele>
        <time>2014-03-08T12:38:33Z</time>
      </trkpt>
      <trkpt lat="47.326104193925858" lon="11.270013637840748">
        <ele>1530.55615234375</ele>
        <time>2014-03-08T12:38:39Z</time>
      </trkpt>
      <trkpt lat="47.326104445382953" lon="11.270008105784655">
        <ele>1531.036865234375</ele>
        <time>2014-03-08T12:38:50Z</time>
      </trkpt>
      <trkpt lat="47.326105367392302" lon="11.269998718053102">
        <ele>1531.036865234375</ele>
        <time>2014-03-08T12:38:56Z</time>
      </trkpt>
      <trkpt lat="47.326164962723851" lon="11.269836276769638">
        <ele>1528.15283203125</ele>
        <time>2014-03-08T12:39:01Z</time>
      </trkpt>
      <trkpt lat="47.326198574155569" lon="11.269793445244431">
        <ele>1528.15283203125</ele>
        <time>2014-03-08T12:39:02Z</time>
      </trkpt>
      <trkpt lat="47.326319357380271" lon="11.269700741395354">
        <ele>1526.230224609375</ele>
        <time>2014-03-08T12:39:05Z</time>
      </trkpt>
      <trkpt lat="47.32659344561398" lon="11.269477447494864">
        <ele>1523.346435546875</ele>
        <time>2014-03-08T12:39:13Z</time>
      </trkpt>
      <trkpt lat="47.326751863583922" lon="11.269339313730597">
        <ele>1521.423583984375</ele>
        <time>2014-03-08T12:39:17Z</time>
      </trkpt>
      <trkpt lat="47.326935762539506" lon="11.269246945157647">
        <ele>1519.501220703125</ele>
        <time>2014-03-08T12:39:20Z</time>
      </trkpt>
      <trkpt lat="47.327005499973893" lon="11.26923194155097">
        <ele>1519.501220703125</ele>
        <time>2014-03-08T12:39:21Z</time>
      </trkpt>
      <trkpt lat="47.327148076146841" lon="11.269226744771004">
        <ele>1517.578369140625</ele>
        <time>2014-03-08T12:39:23Z</time>
      </trkpt>
      <trkpt lat="47.327429037541151" lon="11.269207382574677">
        <ele>1514.6943359375</ele>
        <time>2014-03-08T12:39:27Z</time>
      </trkpt>
      <trkpt lat="47.327636573463678" lon="11.269259434193373">
        <ele>1512.291015625</ele>
        <time>2014-03-08T12:39:30Z</time>
      </trkpt>
      <trkpt lat="47.327864142134786" lon="11.269351886585355">
        <ele>1508.44580078125</ele>
        <time>2014-03-08T12:39:34Z</time>
      </trkpt>
      <trkpt lat="47.32791711576283" lon="11.269368901848793">
        <ele>1508.44580078125</ele>
        <time>2014-03-08T12:39:35Z</time>
      </trkpt>
      <trkpt lat="47.328076036646962" lon="11.269557159394026">
        <ele>1506.523193359375</ele>
        <time>2014-03-08T12:39:39Z</time>
      </trkpt>
      <trkpt lat="47.328202771022916" lon="11.269741058349609">
        <ele>1505.56201171875</ele>
        <time>2014-03-08T12:39:43Z</time>
      </trkpt>
      <trkpt lat="47.328228168189526" lon="11.269763186573982">
        <ele>1506.04248046875</ele>
        <time>2014-03-08T12:39:51Z</time>
      </trkpt>
      <trkpt lat="47.328264880925417" lon="11.269808365032077">
        <ele>1506.523193359375</ele>
        <time>2014-03-08T12:39:57Z</time>
      </trkpt>
      <trkpt lat="47.328300755470991" lon="11.269821105524898">
        <ele>1506.523193359375</ele>
        <time>2014-03-08T12:40:01Z</time>
      </trkpt>
      <trkpt lat="47.328412234783173" lon="11.269715242087841">
        <ele>1504.1201171875</ele>
        <time>2014-03-08T12:40:06Z</time>
      </trkpt>
      <trkpt lat="47.328524300828576" lon="11.269561517983675">
        <ele>1502.677978515625</ele>
        <time>2014-03-08T12:40:09Z</time>
      </trkpt>
      <trkpt lat="47.32861096970737" lon="11.269487086683512">
        <ele>1502.197265625</ele>
        <time>2014-03-08T12:40:11Z</time>
      </trkpt>
      <trkpt lat="47.328717838972807" lon="11.269434029236436">
        <ele>1501.716796875</ele>
        <time>2014-03-08T12:40:13Z</time>
      </trkpt>
      <trkpt lat="47.329011708498001" lon="11.26916547305882">
        <ele>1497.390625</ele>
        <time>2014-03-08T12:40:18Z</time>
      </trkpt>
      <trkpt lat="47.329136850312352" lon="11.269038822501898">
        <ele>1495.468017578125</ele>
        <time>2014-03-08T12:40:20Z</time>
      </trkpt>
      <trkpt lat="47.329196948558092" lon="11.268975455313921">
        <ele>1492.103515625</ele>
        <time>2014-03-08T12:40:21Z</time>
      </trkpt>
      <trkpt lat="47.329255286604166" lon="11.268910663202405">
        <ele>1491.14208984375</ele>
        <time>2014-03-08T12:40:22Z</time>
      </trkpt>
      <trkpt lat="47.329454692080617" lon="11.268603298813105">
        <ele>1486.335693359375</ele>
        <time>2014-03-08T12:40:26Z</time>
      </trkpt>
      <trkpt lat="47.329496266320348" lon="11.268515540286899">
        <ele>1484.893798828125</ele>
        <time>2014-03-08T12:40:27Z</time>
      </trkpt>
      <trkpt lat="47.329592406749725" lon="11.268379501998425">
        <ele>1483.451416015625</ele>
        <time>2014-03-08T12:40:29Z</time>
      </trkpt>
      <trkpt lat="47.329801954329014" lon="11.26829476095736">
        <ele>1480.0869140625</ele>
        <time>2014-03-08T12:40:32Z</time>
      </trkpt>
      <trkpt lat="47.329882923513651" lon="11.26827129162848">
        <ele>1478.64501953125</ele>
        <time>2014-03-08T12:40:33Z</time>
      </trkpt>
      <trkpt lat="47.330048214644194" lon="11.268226699903607">
        <ele>1476.722412109375</ele>
        <time>2014-03-08T12:40:35Z</time>
      </trkpt>
      <trkpt lat="47.330382317304611" lon="11.267990581691265">
        <ele>1472.877197265625</ele>
        <time>2014-03-08T12:40:40Z</time>
      </trkpt>
      <trkpt lat="47.330600330606103" lon="11.267714900895953">
        <ele>1468.55126953125</ele>
        <time>2014-03-08T12:40:43Z</time>
      </trkpt>
      <trkpt lat="47.330746175721288" lon="11.267538461834192">
        <ele>1464.22509765625</ele>
        <time>2014-03-08T12:40:45Z</time>
      </trkpt>
      <trkpt lat="47.330877268686891" lon="11.267240401357412">
        <ele>1460.3798828125</ele>
        <time>2014-03-08T12:40:48Z</time>
      </trkpt>
      <trkpt lat="47.330912137404084" lon="11.267044432461262">
        <ele>1458.93798828125</ele>
        <time>2014-03-08T12:40:50Z</time>
      </trkpt>
      <trkpt lat="47.330968547612429" lon="11.266903281211853">
        <ele>1457.015380859375</ele>
        <time>2014-03-08T12:40:52Z</time>
      </trkpt>
      <trkpt lat="47.331055132672191" lon="11.266854582354426">
        <ele>1455.0927734375</ele>
        <time>2014-03-08T12:40:54Z</time>
      </trkpt>
      <trkpt lat="47.331113554537296" lon="11.26694762147963">
        <ele>1454.131591796875</ele>
        <time>2014-03-08T12:40:58Z</time>
      </trkpt>
      <trkpt lat="47.331098634749651" lon="11.266941083595157">
        <ele>1454.612060546875</ele>
        <time>2014-03-08T12:41:18Z</time>
      </trkpt>
      <trkpt lat="47.331108776852489" lon="11.266937898471951">
        <ele>1454.131591796875</ele>
        <time>2014-03-08T12:41:32Z</time>
      </trkpt>
      <trkpt lat="47.331092348322272" lon="11.266924990341067">
        <ele>1453.170166015625</ele>
        <time>2014-03-08T12:41:40Z</time>
      </trkpt>
      <trkpt lat="47.33109905384481" lon="11.26697201281786">
        <ele>1454.612060546875</ele>
        <time>2014-03-08T12:59:37Z</time>
      </trkpt>
      <trkpt lat="47.331089833751321" lon="11.267012832686305">
        <ele>1455.0927734375</ele>
        <time>2014-03-08T12:59:52Z</time>
      </trkpt>
      <trkpt lat="47.331101149320602" lon="11.267048120498657">
        <ele>1455.0927734375</ele>
        <time>2014-03-08T12:59:59Z</time>
      </trkpt>
      <trkpt lat="47.331129480153322" lon="11.267087180167437">
        <ele>1455.0927734375</ele>
        <time>2014-03-08T13:00:10Z</time>
      </trkpt>
      <trkpt lat="47.331168623641133" lon="11.26711081713438">
        <ele>1455.0927734375</ele>
        <time>2014-03-08T13:00:23Z</time>
      </trkpt>
      <trkpt lat="47.331183962523937" lon="11.267100842669606">
        <ele>1455.573486328125</ele>
        <time>2014-03-08T13:01:03Z</time>
      </trkpt>
      <trkpt lat="47.331289993599057" lon="11.26704434864223">
        <ele>1453.170166015625</ele>
        <time>2014-03-08T13:01:10Z</time>
      </trkpt>
      <trkpt lat="47.331396359950304" lon="11.266984334215522">
        <ele>1451.247314453125</ele>
        <time>2014-03-08T13:01:13Z</time>
      </trkpt>
      <trkpt lat="47.331592245027423" lon="11.266862712800503">
        <ele>1447.402099609375</ele>
        <time>2014-03-08T13:01:17Z</time>
      </trkpt>
      <trkpt lat="47.331888293847442" lon="11.26662072725594">
        <ele>1444.51806640625</ele>
        <time>2014-03-08T13:01:21Z</time>
      </trkpt>
      <trkpt lat="47.332130363211036" lon="11.266456609591842">
        <ele>1440.6728515625</ele>
        <time>2014-03-08T13:01:25Z</time>
      </trkpt>
      <trkpt lat="47.332179062068462" lon="11.266427859663963">
        <ele>1440.6728515625</ele>
        <time>2014-03-08T13:01:26Z</time>
      </trkpt>
      <trkpt lat="47.332393554970622" lon="11.266255946829915">
        <ele>1436.82763671875</ele>
        <time>2014-03-08T13:01:30Z</time>
      </trkpt>
      <trkpt lat="47.332634618505836" lon="11.266067940741777">
        <ele>1432.501708984375</ele>
        <time>2014-03-08T13:01:34Z</time>
      </trkpt>
      <trkpt lat="47.332834778353572" lon="11.265940787270665">
        <ele>1429.61767578125</ele>
        <time>2014-03-08T13:01:37Z</time>
      </trkpt>
      <trkpt lat="47.333045583218336" lon="11.265819249674678">
        <ele>1426.253173828125</ele>
        <time>2014-03-08T13:01:40Z</time>
      </trkpt>
      <trkpt lat="47.333182459697127" lon="11.265728306025267">
        <ele>1423.849853515625</ele>
        <time>2014-03-08T13:01:42Z</time>
      </trkpt>
      <trkpt lat="47.333385553210974" lon="11.26559067517519">
        <ele>1419.52392578125</ele>
        <time>2014-03-08T13:01:45Z</time>
      </trkpt>
      <trkpt lat="47.333446657285094" lon="11.265535857528448">
        <ele>1419.52392578125</ele>
        <time>2014-03-08T13:01:46Z</time>
      </trkpt>
      <trkpt lat="47.333557968959212" lon="11.26543091610074">
        <ele>1417.60107421875</ele>
        <time>2014-03-08T13:01:48Z</time>
      </trkpt>
      <trkpt lat="47.333652013912797" lon="11.265337374061346">
        <ele>1416.1591796875</ele>
        <time>2014-03-08T13:01:50Z</time>
      </trkpt>
      <trkpt lat="47.333702305331826" lon="11.265217009931803">
        <ele>1414.71728515625</ele>
        <time>2014-03-08T13:01:52Z</time>
      </trkpt>
      <trkpt lat="47.333719404414296" lon="11.265088515356183">
        <ele>1414.236572265625</ele>
        <time>2014-03-08T13:01:54Z</time>
      </trkpt>
      <trkpt lat="47.333742957562208" lon="11.264929510653019">
        <ele>1411.83349609375</ele>
        <time>2014-03-08T13:01:58Z</time>
      </trkpt>
      <trkpt lat="47.333796098828316" lon="11.264725159853697">
        <ele>1409.43017578125</ele>
        <time>2014-03-08T13:02:08Z</time>
      </trkpt>
      <trkpt lat="47.33385301195085" lon="11.264570094645023">
        <ele>1407.507568359375</ele>
        <time>2014-03-08T13:02:12Z</time>
      </trkpt>
      <trkpt lat="47.33395267277956" lon="11.264284187927842">
        <ele>1404.62353515625</ele>
        <time>2014-03-08T13:02:19Z</time>
      </trkpt>
      <trkpt lat="47.334010675549507" lon="11.264154519885778">
        <ele>1402.219970703125</ele>
        <time>2014-03-08T13:02:24Z</time>
      </trkpt>
      <trkpt lat="47.334098098799586" lon="11.264039017260075">
        <ele>1401.2587890625</ele>
        <time>2014-03-08T13:02:31Z</time>
      </trkpt>
      <trkpt lat="47.334111593663692" lon="11.264007920399308">
        <ele>1400.778076171875</ele>
        <time>2014-03-08T13:02:33Z</time>
      </trkpt>
      <trkpt lat="47.33417303301394" lon="11.263891411945224">
        <ele>1400.297607421875</ele>
        <time>2014-03-08T13:02:42Z</time>
      </trkpt>
      <trkpt lat="47.33427319675684" lon="11.263757133856416">
        <ele>1397.894287109375</ele>
        <time>2014-03-08T13:02:48Z</time>
      </trkpt>
      <trkpt lat="47.334513673558831" lon="11.263506095856428">
        <ele>1395.01025390625</ele>
        <time>2014-03-08T13:02:57Z</time>
      </trkpt>
      <trkpt lat="47.334746103733778" lon="11.263249358162284">
        <ele>1392.12646484375</ele>
        <time>2014-03-08T13:03:07Z</time>
      </trkpt>
      <trkpt lat="47.334868563339114" lon="11.263120612129569">
        <ele>1390.203857421875</ele>
        <time>2014-03-08T13:03:11Z</time>
      </trkpt>
      <trkpt lat="47.335022203624249" lon="11.262970492243767">
        <ele>1387.319580078125</ele>
        <time>2014-03-08T13:03:16Z</time>
      </trkpt>
      <trkpt lat="47.335060173645616" lon="11.26293009147048">
        <ele>1386.3583984375</ele>
        <time>2014-03-08T13:03:17Z</time>
      </trkpt>
      <trkpt lat="47.335210042074323" lon="11.262694308534265">
        <ele>1382.99365234375</ele>
        <time>2014-03-08T13:03:21Z</time>
      </trkpt>
      <trkpt lat="47.335254466161132" lon="11.262561287730932">
        <ele>1382.032470703125</ele>
        <time>2014-03-08T13:03:23Z</time>
      </trkpt>
      <trkpt lat="47.335192775353789" lon="11.262400187551975">
        <ele>1379.1484375</ele>
        <time>2014-03-08T13:03:27Z</time>
      </trkpt>
      <trkpt lat="47.335193613544106" lon="11.262364229187369">
        <ele>1378.66796875</ele>
        <time>2014-03-08T13:03:28Z</time>
      </trkpt>
      <trkpt lat="47.33527198433876" lon="11.262291558086872">
        <ele>1378.66796875</ele>
        <time>2014-03-08T13:03:31Z</time>
      </trkpt>
      <trkpt lat="47.335473652929068" lon="11.262186951935291">
        <ele>1375.783935546875</ele>
        <time>2014-03-08T13:03:36Z</time>
      </trkpt>
      <trkpt lat="47.335629556328058" lon="11.262064911425114">
        <ele>1373.861328125</ele>
        <time>2014-03-08T13:03:39Z</time>
      </trkpt>
      <trkpt lat="47.335680853575468" lon="11.262017050758004">
        <ele>1372.900146484375</ele>
        <time>2014-03-08T13:03:40Z</time>
      </trkpt>
      <trkpt lat="47.335833488032222" lon="11.261925436556339">
        <ele>1370.977294921875</ele>
        <time>2014-03-08T13:03:43Z</time>
      </trkpt>
      <trkpt lat="47.335967179387808" lon="11.261837342754006">
        <ele>1369.0546875</ele>
        <time>2014-03-08T13:03:46Z</time>
      </trkpt>
      <trkpt lat="47.33601369895041" lon="11.261800630018115">
        <ele>1368.573974609375</ele>
        <time>2014-03-08T13:03:47Z</time>
      </trkpt>
      <trkpt lat="47.336127106100321" lon="11.261652437970042">
        <ele>1366.6513671875</ele>
        <time>2014-03-08T13:03:50Z</time>
      </trkpt>
      <trkpt lat="47.33627462759614" lon="11.261377260088921">
        <ele>1363.286865234375</ele>
        <time>2014-03-08T13:03:55Z</time>
      </trkpt>
      <trkpt lat="47.336363978683949" lon="11.261297212913632">
        <ele>1361.844970703125</ele>
        <time>2014-03-08T13:03:57Z</time>
      </trkpt>
      <trkpt lat="47.336563719436526" lon="11.261145332828164">
        <ele>1357.999755859375</ele>
        <time>2014-03-08T13:04:01Z</time>
      </trkpt>
      <trkpt lat="47.336774691939354" lon="11.260909717530012">
        <ele>1355.115478515625</ele>
        <time>2014-03-08T13:04:05Z</time>
      </trkpt>
      <trkpt lat="47.336946269497275" lon="11.26067359931767">
        <ele>1352.2314453125</ele>
        <time>2014-03-08T13:04:09Z</time>
      </trkpt>
      <trkpt lat="47.337026568129659" lon="11.260578716173768">
        <ele>1351.270263671875</ele>
        <time>2014-03-08T13:04:11Z</time>
      </trkpt>
      <trkpt lat="47.337255226448178" lon="11.260386183857918">
        <ele>1348.38623046875</ele>
        <time>2014-03-08T13:04:16Z</time>
      </trkpt>
      <trkpt lat="47.337515149265528" lon="11.260213851928711">
        <ele>1344.541015625</ele>
        <time>2014-03-08T13:04:21Z</time>
      </trkpt>
      <trkpt lat="47.337731067091227" lon="11.260089045390487">
        <ele>1340.69580078125</ele>
        <time>2014-03-08T13:04:25Z</time>
      </trkpt>
      <trkpt lat="47.337935753166676" lon="11.259975638240576">
        <ele>1338.29248046875</ele>
        <time>2014-03-08T13:04:29Z</time>
      </trkpt>
      <trkpt lat="47.338044885545969" lon="11.259944792836905">
        <ele>1336.369873046875</ele>
        <time>2014-03-08T13:04:31Z</time>
      </trkpt>
      <trkpt lat="47.338148904964328" lon="11.25993674620986">
        <ele>1335.408447265625</ele>
        <time>2014-03-08T13:04:33Z</time>
      </trkpt>
      <trkpt lat="47.338300449773669" lon="11.259935991838574">
        <ele>1333.966552734375</ele>
        <time>2014-03-08T13:04:36Z</time>
      </trkpt>
      <trkpt lat="47.338498933240771" lon="11.259916378185153">
        <ele>1332.524658203125</ele>
        <time>2014-03-08T13:04:40Z</time>
      </trkpt>
      <trkpt lat="47.338616112247109" lon="11.259920233860612">
        <ele>1331.082763671875</ele>
        <time>2014-03-08T13:04:43Z</time>
      </trkpt>
      <trkpt lat="47.338767405599356" lon="11.259939093142748">
        <ele>1329.640625</ele>
        <time>2014-03-08T13:04:47Z</time>
      </trkpt>
      <trkpt lat="47.338890871033072" lon="11.259951246902347">
        <ele>1329.159912109375</ele>
        <time>2014-03-08T13:04:53Z</time>
      </trkpt>
      <trkpt lat="47.338962955400348" lon="11.259956527501345">
        <ele>1330.121337890625</ele>
        <time>2014-03-08T13:05:04Z</time>
      </trkpt>
      <trkpt lat="47.339069657027721" lon="11.259994246065617">
        <ele>1329.640625</ele>
        <time>2014-03-08T13:05:14Z</time>
      </trkpt>
      <trkpt lat="47.339255651459098" lon="11.260156352072954">
        <ele>1327.718017578125</ele>
        <time>2014-03-08T13:05:22Z</time>
      </trkpt>
      <trkpt lat="47.339565865695477" lon="11.260380735620856">
        <ele>1325.314697265625</ele>
        <time>2014-03-08T13:05:30Z</time>
      </trkpt>
      <trkpt lat="47.339871218428016" lon="11.260627750307322">
        <ele>1321.949951171875</ele>
        <time>2014-03-08T13:05:37Z</time>
      </trkpt>
      <trkpt lat="47.339916648343205" lon="11.260665133595467">
        <ele>1321.949951171875</ele>
        <time>2014-03-08T13:05:38Z</time>
      </trkpt>
      <trkpt lat="47.340049417689443" lon="11.260767644271255">
        <ele>1320.508056640625</ele>
        <time>2014-03-08T13:05:41Z</time>
      </trkpt>
      <trkpt lat="47.340367510914803" lon="11.260951040312648">
        <ele>1317.1435546875</ele>
        <time>2014-03-08T13:05:50Z</time>
      </trkpt>
      <trkpt lat="47.340483432635665" lon="11.261062687262893">
        <ele>1316.662841796875</ele>
        <time>2014-03-08T13:05:55Z</time>
      </trkpt>
      <trkpt lat="47.340506399050355" lon="11.261092191562057">
        <ele>1318.104736328125</ele>
        <time>2014-03-08T13:06:06Z</time>
      </trkpt>
      <trkpt lat="47.340570352971554" lon="11.261128652840853">
        <ele>1318.104736328125</ele>
        <time>2014-03-08T13:06:15Z</time>
      </trkpt>
      <trkpt lat="47.340588876977563" lon="11.261135190725327">
        <ele>1318.104736328125</ele>
        <time>2014-03-08T13:06:17Z</time>
      </trkpt>
      <trkpt lat="47.340730112046003" lon="11.261114487424493">
        <ele>1318.104736328125</ele>
        <time>2014-03-08T13:06:27Z</time>
      </trkpt>
      <trkpt lat="47.340782582759857" lon="11.261029578745365">
        <ele>1318.104736328125</ele>
        <time>2014-03-08T13:06:32Z</time>
      </trkpt>
      <trkpt lat="47.340851565822959" lon="11.260986411944032">
        <ele>1317.6240234375</ele>
        <time>2014-03-08T13:06:38Z</time>
      </trkpt>
      <trkpt lat="47.340932870283723" lon="11.260900665074587">
        <ele>1317.1435546875</ele>
        <time>2014-03-08T13:06:43Z</time>
      </trkpt>
      <trkpt lat="47.340997159481049" lon="11.26082656905055">
        <ele>1316.662841796875</ele>
        <time>2014-03-08T13:06:48Z</time>
      </trkpt>
      <trkpt lat="47.341085840016603" lon="11.260708551853895">
        <ele>1316.18212890625</ele>
        <time>2014-03-08T13:06:56Z</time>
      </trkpt>
      <trkpt lat="47.34115700237453" lon="11.260632779449224">
        <ele>1316.18212890625</ele>
        <time>2014-03-08T13:07:03Z</time>
      </trkpt>
      <trkpt lat="47.341267559677362" lon="11.260553319007158">
        <ele>1315.70166015625</ele>
        <time>2014-03-08T13:07:09Z</time>
      </trkpt>
      <trkpt lat="47.341400077566504" lon="11.260462123900652">
        <ele>1315.220947265625</ele>
        <time>2014-03-08T13:07:16Z</time>
      </trkpt>
      <trkpt lat="47.341535780578852" lon="11.260298425331712">
        <ele>1314.259521484375</ele>
        <time>2014-03-08T13:07:24Z</time>
      </trkpt>
      <trkpt lat="47.341678440570831" lon="11.260151071473956">
        <ele>1313.29833984375</ele>
        <time>2014-03-08T13:07:31Z</time>
      </trkpt>
      <trkpt lat="47.341750441119075" lon="11.260096253827214">
        <ele>1313.29833984375</ele>
        <time>2014-03-08T13:07:38Z</time>
      </trkpt>
      <trkpt lat="47.341877594590187" lon="11.260053338482976">
        <ele>1313.29833984375</ele>
        <time>2014-03-08T13:07:46Z</time>
      </trkpt>
      <trkpt lat="47.342070546001196" lon="11.259924173355103">
        <ele>1312.817626953125</ele>
        <time>2014-03-08T13:07:54Z</time>
      </trkpt>
      <trkpt lat="47.342177079990506" lon="11.259765671566129">
        <ele>1311.8564453125</ele>
        <time>2014-03-08T13:08:02Z</time>
      </trkpt>
      <trkpt lat="47.342376653105021" lon="11.259711440652609">
        <ele>1311.375732421875</ele>
        <time>2014-03-08T13:08:10Z</time>
      </trkpt>
      <trkpt lat="47.342497771605849" lon="11.259730383753777">
        <ele>1310.414306640625</ele>
        <time>2014-03-08T13:08:14Z</time>
      </trkpt>
      <trkpt lat="47.342595253139734" lon="11.259716553613544">
        <ele>1310.414306640625</ele>
        <time>2014-03-08T13:08:22Z</time>
      </trkpt>
      <trkpt lat="47.342674965038896" lon="11.259739017114043">
        <ele>1309.93359375</ele>
        <time>2014-03-08T13:08:26Z</time>
      </trkpt>
      <trkpt lat="47.342838244512677" lon="11.259862734004855">
        <ele>1309.93359375</ele>
        <time>2014-03-08T13:08:35Z</time>
      </trkpt>
      <trkpt lat="47.342881662771106" lon="11.259885532781482">
        <ele>1308.972412109375</ele>
        <time>2014-03-08T13:08:37Z</time>
      </trkpt>
      <trkpt lat="47.343048043549061" lon="11.259924340993166">
        <ele>1308.49169921875</ele>
        <time>2014-03-08T13:08:45Z</time>
      </trkpt>
      <trkpt lat="47.343262368813157" lon="11.259974464774132">
        <ele>1307.049560546875</ele>
        <time>2014-03-08T13:08:51Z</time>
      </trkpt>
      <trkpt lat="47.343454733490944" lon="11.25998318195343">
        <ele>1307.049560546875</ele>
        <time>2014-03-08T13:08:59Z</time>
      </trkpt>
      <trkpt lat="47.343542324379086" lon="11.259915037080646">
        <ele>1305.607666015625</ele>
        <time>2014-03-08T13:09:06Z</time>
      </trkpt>
      <trkpt lat="47.343650115653872" lon="11.259834403172135">
        <ele>1306.088134765625</ele>
        <time>2014-03-08T13:09:15Z</time>
      </trkpt>
      <trkpt lat="47.343805935233831" lon="11.259700627997518">
        <ele>1305.607666015625</ele>
        <time>2014-03-08T13:09:24Z</time>
      </trkpt>
      <trkpt lat="47.343846503645182" lon="11.259649330750108">
        <ele>1304.646240234375</ele>
        <time>2014-03-08T13:09:26Z</time>
      </trkpt>
      <trkpt lat="47.344112629070878" lon="11.259451685473323">
        <ele>1303.204345703125</ele>
        <time>2014-03-08T13:09:35Z</time>
      </trkpt>
      <trkpt lat="47.344272052869201" lon="11.259343139827251">
        <ele>1301.762451171875</ele>
        <time>2014-03-08T13:09:41Z</time>
      </trkpt>
      <trkpt lat="47.344458885490894" lon="11.259162342175841">
        <ele>1301.28173828125</ele>
        <time>2014-03-08T13:09:53Z</time>
      </trkpt>
      <trkpt lat="47.34455393627286" lon="11.259089335799217">
        <ele>1301.762451171875</ele>
        <time>2014-03-08T13:10:03Z</time>
      </trkpt>
      <trkpt lat="47.344692572951317" lon="11.259024878963828">
        <ele>1301.28173828125</ele>
        <time>2014-03-08T13:10:17Z</time>
      </trkpt>
      <trkpt lat="47.344843028113246" lon="11.25897659920156">
        <ele>1301.762451171875</ele>
        <time>2014-03-08T13:10:33Z</time>
      </trkpt>
      <trkpt lat="47.344951322302222" lon="11.25893116928637">
        <ele>1301.762451171875</ele>
        <time>2014-03-08T13:10:46Z</time>
      </trkpt>
      <trkpt lat="47.345106471329927" lon="11.258858162909746">
        <ele>1301.762451171875</ele>
        <time>2014-03-08T13:11:00Z</time>
      </trkpt>
      <trkpt lat="47.345236055552959" lon="11.258800495415926">
        <ele>1301.28173828125</ele>
        <time>2014-03-08T13:11:12Z</time>
      </trkpt>
      <trkpt lat="47.345445770770311" lon="11.258711563423276">
        <ele>1301.28173828125</ele>
        <time>2014-03-08T13:11:24Z</time>
      </trkpt>
      <trkpt lat="47.345582982525229" lon="11.258654901757836">
        <ele>1300.801025390625</ele>
        <time>2014-03-08T13:11:34Z</time>
      </trkpt>
      <trkpt lat="47.345711058005691" lon="11.258605448529124">
        <ele>1300.801025390625</ele>
        <time>2014-03-08T13:11:48Z</time>
      </trkpt>
      <trkpt lat="47.345827901735902" lon="11.258565550670028">
        <ele>1301.762451171875</ele>
        <time>2014-03-08T13:11:59Z</time>
      </trkpt>
      <trkpt lat="47.345961090177298" lon="11.258515845984221">
        <ele>1300.801025390625</ele>
        <time>2014-03-08T13:12:11Z</time>
      </trkpt>
      <trkpt lat="47.346068043261766" lon="11.258523892611265">
        <ele>1301.28173828125</ele>
        <time>2014-03-08T13:12:22Z</time>
      </trkpt>
      <trkpt lat="47.346216989681125" lon="11.258539482951164">
        <ele>1301.762451171875</ele>
        <time>2014-03-08T13:12:39Z</time>
      </trkpt>
      <trkpt lat="47.346344897523522" lon="11.258519701659679">
        <ele>1301.762451171875</ele>
        <time>2014-03-08T13:12:52Z</time>
      </trkpt>
      <trkpt lat="47.346507254987955" lon="11.258481815457344">
        <ele>1301.762451171875</ele>
        <time>2014-03-08T13:13:10Z</time>
      </trkpt>
      <trkpt lat="47.346664080396295" lon="11.258434792980552">
        <ele>1302.7236328125</ele>
        <time>2014-03-08T13:13:29Z</time>
      </trkpt>
      <trkpt lat="47.346776314079762" lon="11.258419873192906">
        <ele>1302.7236328125</ele>
        <time>2014-03-08T13:13:41Z</time>
      </trkpt>
      <trkpt lat="47.346884608268738" lon="11.258432613685727">
        <ele>1302.7236328125</ele>
        <time>2014-03-08T13:13:50Z</time>
      </trkpt>
      <trkpt lat="47.347004553303123" lon="11.258453736081719">
        <ele>1303.204345703125</ele>
        <time>2014-03-08T13:13:59Z</time>
      </trkpt>
      <trkpt lat="47.347059538587928" lon="11.258484749123454">
        <ele>1303.68505859375</ele>
        <time>2014-03-08T13:14:07Z</time>
      </trkpt>
      <trkpt lat="47.347195241600275" lon="11.258506206795573">
        <ele>1303.204345703125</ele>
        <time>2014-03-08T13:14:20Z</time>
      </trkpt>
      <trkpt lat="47.347312923520803" lon="11.258537052199244">
        <ele>1303.204345703125</ele>
        <time>2014-03-08T13:14:29Z</time>
      </trkpt>
      <trkpt lat="47.347452146932483" lon="11.258563455194235">
        <ele>1303.204345703125</ele>
        <time>2014-03-08T13:14:38Z</time>
      </trkpt>
      <trkpt lat="47.347536804154515" lon="11.258525736629963">
        <ele>1302.7236328125</ele>
        <time>2014-03-08T13:14:48Z</time>
      </trkpt>
      <trkpt lat="47.347648199647665" lon="11.258452897891402">
        <ele>1304.165771484375</ele>
        <time>2014-03-08T13:15:00Z</time>
      </trkpt>
      <trkpt lat="47.347686169669032" lon="11.258403528481722">
        <ele>1303.68505859375</ele>
        <time>2014-03-08T13:15:07Z</time>
      </trkpt>
      <trkpt lat="47.347710309550166" lon="11.258303532376885">
        <ele>1304.646240234375</ele>
        <time>2014-03-08T13:15:16Z</time>
      </trkpt>
      <trkpt lat="47.347724307328463" lon="11.258220719173551">
        <ele>1303.68505859375</ele>
        <time>2014-03-08T13:15:22Z</time>
      </trkpt>
      <trkpt lat="47.347744004800916" lon="11.257992815226316">
        <ele>1304.646240234375</ele>
        <time>2014-03-08T13:15:37Z</time>
      </trkpt>
      <trkpt lat="47.347755739465356" lon="11.257906313985586">
        <ele>1305.607666015625</ele>
        <time>2014-03-08T13:15:43Z</time>
      </trkpt>
      <trkpt lat="47.347809970378876" lon="11.257749991491437">
        <ele>1304.646240234375</ele>
        <time>2014-03-08T13:15:55Z</time>
      </trkpt>
      <trkpt lat="47.347883898764849" lon="11.257645720615983">
        <ele>1304.646240234375</ele>
        <time>2014-03-08T13:16:03Z</time>
      </trkpt>
      <trkpt lat="47.347945086658001" lon="11.257558381184936">
        <ele>1304.646240234375</ele>
        <time>2014-03-08T13:16:11Z</time>
      </trkpt>
      <trkpt lat="47.34805447049439" lon="11.257494930177927">
        <ele>1304.646240234375</ele>
        <time>2014-03-08T13:16:20Z</time>
      </trkpt>
      <trkpt lat="47.348202578723431" lon="11.257380181923509">
        <ele>1303.68505859375</ele>
        <time>2014-03-08T13:16:29Z</time>
      </trkpt>
      <trkpt lat="47.348297461867332" lon="11.257256297394633">
        <ele>1304.165771484375</ele>
        <time>2014-03-08T13:16:41Z</time>
      </trkpt>
      <trkpt lat="47.348449844866991" lon="11.257041553035378">
        <ele>1304.165771484375</ele>
        <time>2014-03-08T13:16:59Z</time>
      </trkpt>
      <trkpt lat="47.348550092428923" lon="11.256939461454749">
        <ele>1304.165771484375</ele>
        <time>2014-03-08T13:17:07Z</time>
      </trkpt>
      <trkpt lat="47.348609520122409" lon="11.256816666573286">
        <ele>1304.646240234375</ele>
        <time>2014-03-08T13:17:18Z</time>
      </trkpt>
      <trkpt lat="47.348696356639266" lon="11.256605107337236">
        <ele>1305.126953125</ele>
        <time>2014-03-08T13:17:34Z</time>
      </trkpt>
      <trkpt lat="47.348773386329412" lon="11.256523802876472">
        <ele>1304.646240234375</ele>
        <time>2014-03-08T13:17:43Z</time>
      </trkpt>
      <trkpt lat="47.348881512880325" lon="11.256470577791333">
        <ele>1304.646240234375</ele>
        <time>2014-03-08T13:17:50Z</time>
      </trkpt>
      <trkpt lat="47.348996261134744" lon="11.256387177854776">
        <ele>1305.126953125</ele>
        <time>2014-03-08T13:17:58Z</time>
      </trkpt>
      <trkpt lat="47.349113775417209" lon="11.256323307752609">
        <ele>1304.646240234375</ele>
        <time>2014-03-08T13:18:11Z</time>
      </trkpt>
      <trkpt lat="47.349179992452264" lon="11.256307885050774">
        <ele>1304.646240234375</ele>
        <time>2014-03-08T13:18:20Z</time>
      </trkpt>
      <trkpt lat="47.349285520613194" lon="11.256239656358957">
        <ele>1304.646240234375</ele>
        <time>2014-03-08T13:18:32Z</time>
      </trkpt>
      <trkpt lat="47.349377470090985" lon="11.256198333576322">
        <ele>1305.126953125</ele>
        <time>2014-03-08T13:18:41Z</time>
      </trkpt>
      <trkpt lat="47.349508730694652" lon="11.25615474767983">
        <ele>1304.646240234375</ele>
        <time>2014-03-08T13:18:53Z</time>
      </trkpt>
      <trkpt lat="47.349621634930372" lon="11.25611275434494">
        <ele>1304.165771484375</ele>
        <time>2014-03-08T13:19:02Z</time>
      </trkpt>
      <trkpt lat="47.349686678498983" lon="11.25609272159636">
        <ele>1304.646240234375</ele>
        <time>2014-03-08T13:19:08Z</time>
      </trkpt>
      <trkpt lat="47.349834199994802" lon="11.256043771281838">
        <ele>1305.126953125</ele>
        <time>2014-03-08T13:19:22Z</time>
      </trkpt>
      <trkpt lat="47.349922209978104" lon="11.2560233194381">
        <ele>1305.126953125</ele>
        <time>2014-03-08T13:19:32Z</time>
      </trkpt>
      <trkpt lat="47.350033521652222" lon="11.256008902564645">
        <ele>1305.607666015625</ele>
        <time>2014-03-08T13:19:44Z</time>
      </trkpt>
      <trkpt lat="47.350092111155391" lon="11.255999263375998">
        <ele>1306.56884765625</ele>
        <time>2014-03-08T13:19:52Z</time>
      </trkpt>
      <trkpt lat="47.350172661244869" lon="11.256010327488184">
        <ele>1307.049560546875</ele>
        <time>2014-03-08T13:20:04Z</time>
      </trkpt>
      <trkpt lat="47.350179199129343" lon="11.256000436842442">
        <ele>1307.049560546875</ele>
        <time>2014-03-08T13:20:18Z</time>
      </trkpt>
      <trkpt lat="47.350248852744699" lon="11.256008315831423">
        <ele>1306.088134765625</ele>
        <time>2014-03-08T13:20:28Z</time>
      </trkpt>
      <trkpt lat="47.350466195493937" lon="11.255981996655464">
        <ele>1305.126953125</ele>
        <time>2014-03-08T13:20:36Z</time>
      </trkpt>
      <trkpt lat="47.350717401131988" lon="11.255849562585354">
        <ele>1303.204345703125</ele>
        <time>2014-03-08T13:20:44Z</time>
      </trkpt>
      <trkpt lat="47.350990986451507" lon="11.255775718018413">
        <ele>1301.28173828125</ele>
        <time>2014-03-08T13:20:51Z</time>
      </trkpt>
      <trkpt lat="47.351225093007088" lon="11.255810335278511">
        <ele>1300.801025390625</ele>
        <time>2014-03-08T13:21:00Z</time>
      </trkpt>
      <trkpt lat="47.351452326402068" lon="11.255845203995705">
        <ele>1299.83984375</ele>
        <time>2014-03-08T13:21:12Z</time>
      </trkpt>
      <trkpt lat="47.351620718836784" lon="11.255836989730597">
        <ele>1296.955810546875</ele>
        <time>2014-03-08T13:21:18Z</time>
      </trkpt>
      <trkpt lat="47.351660616695881" lon="11.255822321400046">
        <ele>1296.475341796875</ele>
        <time>2014-03-08T13:21:19Z</time>
      </trkpt>
      <trkpt lat="47.351759523153305" lon="11.25579172745347">
        <ele>1295.513916015625</ele>
        <time>2014-03-08T13:21:21Z</time>
      </trkpt>
      <trkpt lat="47.352200578898191" lon="11.255805306136608">
        <ele>1291.66845703125</ele>
        <time>2014-03-08T13:21:27Z</time>
      </trkpt>
      <trkpt lat="47.35226453281939" lon="11.255808994174004">
        <ele>1291.66845703125</ele>
        <time>2014-03-08T13:21:28Z</time>
      </trkpt>
      <trkpt lat="47.352463267743587" lon="11.255818298086524">
        <ele>1290.70703125</ele>
        <time>2014-03-08T13:21:31Z</time>
      </trkpt>
      <trkpt lat="47.352565694600344" lon="11.25583179295063">
        <ele>1289.26513671875</ele>
        <time>2014-03-08T13:21:33Z</time>
      </trkpt>
      <trkpt lat="47.352699553593993" lon="11.255870601162314">
        <ele>1288.303955078125</ele>
        <time>2014-03-08T13:21:36Z</time>
      </trkpt>
      <trkpt lat="47.352818408980966" lon="11.255938913673162">
        <ele>1286.86181640625</ele>
        <time>2014-03-08T13:21:39Z</time>
      </trkpt>
      <trkpt lat="47.353037847205997" lon="11.256109150126576">
        <ele>1285.419921875</ele>
        <time>2014-03-08T13:21:47Z</time>
      </trkpt>
      <trkpt lat="47.3532310500741" lon="11.25621928833425">
        <ele>1283.497314453125</ele>
        <time>2014-03-08T13:21:54Z</time>
      </trkpt>
      <trkpt lat="47.353521566838026" lon="11.256319703534245">
        <ele>1282.055419921875</ele>
        <time>2014-03-08T13:22:02Z</time>
      </trkpt>
      <trkpt lat="47.353690629824996" lon="11.256374605000019">
        <ele>1280.613525390625</ele>
        <time>2014-03-08T13:22:10Z</time>
      </trkpt>
      <trkpt lat="47.353762798011303" lon="11.256389943882823">
        <ele>1280.1328125</ele>
        <time>2014-03-08T13:22:12Z</time>
      </trkpt>
      <trkpt lat="47.35407535918057" lon="11.256488095968962">
        <ele>1275.806640625</ele>
        <time>2014-03-08T13:22:18Z</time>
      </trkpt>
      <trkpt lat="47.354455394670367" lon="11.256527658551931">
        <ele>1271.96142578125</ele>
        <time>2014-03-08T13:22:23Z</time>
      </trkpt>
      <trkpt lat="47.354709869250655" lon="11.256527155637741">
        <ele>1269.07763671875</ele>
        <time>2014-03-08T13:22:26Z</time>
      </trkpt>
      <trkpt lat="47.354994686320424" lon="11.256404612213373">
        <ele>1264.27099609375</ele>
        <time>2014-03-08T13:22:30Z</time>
      </trkpt>
      <trkpt lat="47.355043468996882" lon="11.256365804001689">
        <ele>1263.790283203125</ele>
        <time>2014-03-08T13:22:31Z</time>
      </trkpt>
      <trkpt lat="47.355085713788867" lon="11.256329175084829">
        <ele>1262.8291015625</ele>
        <time>2014-03-08T13:22:32Z</time>
      </trkpt>
      <trkpt lat="47.355249496176839" lon="11.256143096834421">
        <ele>1259.46435546875</ele>
        <time>2014-03-08T13:22:36Z</time>
      </trkpt>
      <trkpt lat="47.355962712317705" lon="11.256144354119897">
        <ele>1256.099609375</ele>
        <time>2014-03-08T13:22:48Z</time>
      </trkpt>
      <trkpt lat="47.356087518855929" lon="11.25615181401372">
        <ele>1248.4091796875</ele>
        <time>2014-03-08T13:22:50Z</time>
      </trkpt>
      <trkpt lat="47.356519522145391" lon="11.256014937534928">
        <ele>1244.56396484375</ele>
        <time>2014-03-08T13:22:57Z</time>
      </trkpt>
      <trkpt lat="47.356689004227519" lon="11.256209313869476">
        <ele>1236.873291015625</ele>
        <time>2014-03-08T13:23:00Z</time>
      </trkpt>
      <trkpt lat="47.356806434690952" lon="11.256446186453104">
        <ele>1233.5087890625</ele>
        <time>2014-03-08T13:23:03Z</time>
      </trkpt>
      <trkpt lat="47.356965523213148" lon="11.256478875875473">
        <ele>1231.105712890625</ele>
        <time>2014-03-08T13:23:06Z</time>
      </trkpt>
      <trkpt lat="47.357025202363729" lon="11.256453059613705">
        <ele>1230.144287109375</ele>
        <time>2014-03-08T13:23:07Z</time>
      </trkpt>
      <trkpt lat="47.357356455177069" lon="11.256477786228061">
        <ele>1225.33740234375</ele>
        <time>2014-03-08T13:23:12Z</time>
      </trkpt>
      <trkpt lat="47.357430551201105" lon="11.256489437073469">
        <ele>1223.8955078125</ele>
        <time>2014-03-08T13:23:13Z</time>
      </trkpt>
      <trkpt lat="47.357689049094915" lon="11.256609885022044">
        <ele>1219.089111328125</ele>
        <time>2014-03-08T13:23:17Z</time>
      </trkpt>
      <trkpt lat="47.3578573577106" lon="11.25668884254992">
        <ele>1215.243896484375</ele>
        <time>2014-03-08T13:23:20Z</time>
      </trkpt>
      <trkpt lat="47.357905805110931" lon="11.256707115098834">
        <ele>1214.76318359375</ele>
        <time>2014-03-08T13:23:21Z</time>
      </trkpt>
      <trkpt lat="47.358089787885547" lon="11.256769141182303">
        <ele>1211.879150390625</ele>
        <time>2014-03-08T13:23:25Z</time>
      </trkpt>
      <trkpt lat="47.358330013230443" lon="11.256790850311518">
        <ele>1208.033935546875</ele>
        <time>2014-03-08T13:23:29Z</time>
      </trkpt>
      <trkpt lat="47.358451886102557" lon="11.256780792027712">
        <ele>1206.591796875</ele>
        <time>2014-03-08T13:23:31Z</time>
      </trkpt>
      <trkpt lat="47.35859370790422" lon="11.256843572482467">
        <ele>1205.630615234375</ele>
        <time>2014-03-08T13:23:34Z</time>
      </trkpt>
      <trkpt lat="47.358593791723251" lon="11.256873076781631">
        <ele>1204.188720703125</ele>
        <time>2014-03-08T13:23:40Z</time>
      </trkpt>
      <trkpt lat="47.358591612428427" lon="11.256876848638058">
        <ele>1204.188720703125</ele>
        <time>2014-03-08T13:23:50Z</time>
      </trkpt>
      <trkpt lat="47.358657410368323" lon="11.256755730137229">
        <ele>1202.74658203125</ele>
        <time>2014-03-08T13:23:57Z</time>
      </trkpt>
      <trkpt lat="47.358913226053119" lon="11.25653981231153">
        <ele>1201.3046875</ele>
        <time>2014-03-08T13:24:04Z</time>
      </trkpt>
      <trkpt lat="47.359110955148935" lon="11.256458004936576">
        <ele>1200.823974609375</ele>
        <time>2014-03-08T13:24:11Z</time>
      </trkpt>
      <trkpt lat="47.359363250434399" lon="11.256535621359944">
        <ele>1200.343505859375</ele>
        <time>2014-03-08T13:24:21Z</time>
      </trkpt>
      <trkpt lat="47.359582856297493" lon="11.256596893072128">
        <ele>1198.9013671875</ele>
        <time>2014-03-08T13:24:29Z</time>
      </trkpt>
      <trkpt lat="47.359765497967601" lon="11.256557162851095">
        <ele>1196.978759765625</ele>
        <time>2014-03-08T13:24:38Z</time>
      </trkpt>
      <trkpt lat="47.359843114390969" lon="11.256531178951263">
        <ele>1196.978759765625</ele>
        <time>2014-03-08T13:24:49Z</time>
      </trkpt>
      <trkpt lat="47.360053835436702" lon="11.256465716287494">
        <ele>1196.017578125</ele>
        <time>2014-03-08T13:24:59Z</time>
      </trkpt>
      <trkpt lat="47.360078059136868" lon="11.256455155089498">
        <ele>1196.017578125</ele>
        <time>2014-03-08T13:25:00Z</time>
      </trkpt>
      <trkpt lat="47.360255923122168" lon="11.256253570318222">
        <ele>1195.055908203125</ele>
        <time>2014-03-08T13:25:08Z</time>
      </trkpt>
      <trkpt lat="47.360405623912811" lon="11.255942769348621">
        <ele>1194.5751953125</ele>
        <time>2014-03-08T13:25:18Z</time>
      </trkpt>
      <trkpt lat="47.360589355230331" lon="11.255731210112572">
        <ele>1193.614013671875</ele>
        <time>2014-03-08T13:25:28Z</time>
      </trkpt>
      <trkpt lat="47.360763866454363" lon="11.255587879568338">
        <ele>1192.172119140625</ele>
        <time>2014-03-08T13:25:37Z</time>
      </trkpt>
      <trkpt lat="47.360904682427645" lon="11.25552442856133">
        <ele>1191.69140625</ele>
        <time>2014-03-08T13:25:47Z</time>
      </trkpt>
      <trkpt lat="47.361107692122459" lon="11.25546533614397">
        <ele>1190.72998046875</ele>
        <time>2014-03-08T13:25:53Z</time>
      </trkpt>
      <trkpt lat="47.3614751547575" lon="11.255336925387383">
        <ele>1187.365478515625</ele>
        <time>2014-03-08T13:26:01Z</time>
      </trkpt>
      <trkpt lat="47.36170238815248" lon="11.255341200158">
        <ele>1186.404296875</ele>
        <time>2014-03-08T13:26:06Z</time>
      </trkpt>
      <trkpt lat="47.362057948485017" lon="11.25517163425684">
        <ele>1184.0009765625</ele>
        <time>2014-03-08T13:26:15Z</time>
      </trkpt>
      <trkpt lat="47.362097343429923" lon="11.255143890157342">
        <ele>1184.0009765625</ele>
        <time>2014-03-08T13:26:16Z</time>
      </trkpt>
      <trkpt lat="47.362555498257279" lon="11.254846500232816">
        <ele>1180.636474609375</ele>
        <time>2014-03-08T13:26:27Z</time>
      </trkpt>
      <trkpt lat="47.362927403301001" lon="11.254580458626151">
        <ele>1177.271728515625</ele>
        <time>2014-03-08T13:26:35Z</time>
      </trkpt>
      <trkpt lat="47.363105770200491" lon="11.254393542185426">
        <ele>1177.752197265625</ele>
        <time>2014-03-08T13:26:39Z</time>
      </trkpt>
      <trkpt lat="47.363252202048898" lon="11.25414652749896">
        <ele>1174.868408203125</ele>
        <time>2014-03-08T13:26:43Z</time>
      </trkpt>
      <trkpt lat="47.363425623625517" lon="11.253947289660573">
        <ele>1171.984375</ele>
        <time>2014-03-08T13:26:47Z</time>
      </trkpt>
      <trkpt lat="47.363611366599798" lon="11.253835977986455">
        <ele>1170.061767578125</ele>
        <time>2014-03-08T13:26:51Z</time>
      </trkpt>
      <trkpt lat="47.363769449293613" lon="11.253718882799149">
        <ele>1169.1005859375</ele>
        <time>2014-03-08T13:26:55Z</time>
      </trkpt>
      <trkpt lat="47.363848490640521" lon="11.253643948584795">
        <ele>1168.13916015625</ele>
        <time>2014-03-08T13:26:57Z</time>
      </trkpt>
      <trkpt lat="47.364089218899608" lon="11.253299620002508">
        <ele>1166.216552734375</ele>
        <time>2014-03-08T13:27:03Z</time>
      </trkpt>
      <trkpt lat="47.364402869716287" lon="11.252899132668972">
        <ele>1162.37109375</ele>
        <time>2014-03-08T13:27:09Z</time>
      </trkpt>
      <trkpt lat="47.364453161135316" lon="11.252832915633917">
        <ele>1162.37109375</ele>
        <time>2014-03-08T13:27:10Z</time>
      </trkpt>
      <trkpt lat="47.364602442830801" lon="11.252655386924744">
        <ele>1160.92919921875</ele>
        <time>2014-03-08T13:27:13Z</time>
      </trkpt>
      <trkpt lat="47.364791538566351" lon="11.252457909286022">
        <ele>1160.448486328125</ele>
        <time>2014-03-08T13:27:18Z</time>
      </trkpt>
      <trkpt lat="47.364860186353326" lon="11.252387166023254">
        <ele>1159.006591796875</ele>
        <time>2014-03-08T13:27:20Z</time>
      </trkpt>
      <trkpt lat="47.365210633724928" lon="11.252122800797224">
        <ele>1155.64208984375</ele>
        <time>2014-03-08T13:27:30Z</time>
      </trkpt>
      <trkpt lat="47.365502743050456" lon="11.251927586272359">
        <ele>1153.719482421875</ele>
        <time>2014-03-08T13:27:37Z</time>
      </trkpt>
      <trkpt lat="47.365627298131585" lon="11.251751650124788">
        <ele>1152.758056640625</ele>
        <time>2014-03-08T13:27:42Z</time>
      </trkpt>
      <trkpt lat="47.365716397762299" lon="11.251561464741826">
        <ele>1151.316162109375</ele>
        <time>2014-03-08T13:27:47Z</time>
      </trkpt>
      <trkpt lat="47.365876408293843" lon="11.251389551907778">
        <ele>1149.874267578125</ele>
        <time>2014-03-08T13:27:51Z</time>
      </trkpt>
      <trkpt lat="47.366090314462781" lon="11.251286119222641">
        <ele>1147.470703125</ele>
        <time>2014-03-08T13:27:55Z</time>
      </trkpt>
      <trkpt lat="47.366380244493484" lon="11.25098411925137">
        <ele>1143.144775390625</ele>
        <time>2014-03-08T13:28:02Z</time>
      </trkpt>
      <trkpt lat="47.366418549790978" lon="11.250932822003961">
        <ele>1143.62548828125</ele>
        <time>2014-03-08T13:28:03Z</time>
      </trkpt>
      <trkpt lat="47.366602029651403" lon="11.250831317156553">
        <ele>1142.664306640625</ele>
        <time>2014-03-08T13:28:07Z</time>
      </trkpt>
      <trkpt lat="47.366854827851057" lon="11.250849002972245">
        <ele>1142.18359375</ele>
        <time>2014-03-08T13:28:12Z</time>
      </trkpt>
      <trkpt lat="47.367116678506136" lon="11.250700391829014">
        <ele>1139.7802734375</ele>
        <time>2014-03-08T13:28:19Z</time>
      </trkpt>
      <trkpt lat="47.367152804508805" lon="11.250506266951561">
        <ele>1139.7802734375</ele>
        <time>2014-03-08T13:28:24Z</time>
      </trkpt>
      <trkpt lat="47.367127407342196" lon="11.250316249206662">
        <ele>1139.299560546875</ele>
        <time>2014-03-08T13:28:32Z</time>
      </trkpt>
      <trkpt lat="47.367150709033012" lon="11.250225473195314">
        <ele>1139.7802734375</ele>
        <time>2014-03-08T13:28:41Z</time>
      </trkpt>
      <trkpt lat="47.367291022092104" lon="11.2500518001616">
        <ele>1138.33837890625</ele>
        <time>2014-03-08T13:28:51Z</time>
      </trkpt>
      <trkpt lat="47.367565780878067" lon="11.249813921749592">
        <ele>1135.454345703125</ele>
        <time>2014-03-08T13:28:58Z</time>
      </trkpt>
      <trkpt lat="47.367882030084729" lon="11.249526757746935">
        <ele>1134.012451171875</ele>
        <time>2014-03-08T13:29:04Z</time>
      </trkpt>
      <trkpt lat="47.368138767778873" lon="11.249364400282502">
        <ele>1131.12841796875</ele>
        <time>2014-03-08T13:29:08Z</time>
      </trkpt>
      <trkpt lat="47.368202721700072" lon="11.249329531565309">
        <ele>1131.12841796875</ele>
        <time>2014-03-08T13:29:09Z</time>
      </trkpt>
      <trkpt lat="47.368500614538789" lon="11.249022837728262">
        <ele>1127.283203125</ele>
        <time>2014-03-08T13:29:15Z</time>
      </trkpt>
      <trkpt lat="47.368548726662993" lon="11.248965170234442">
        <ele>1126.802490234375</ele>
        <time>2014-03-08T13:29:16Z</time>
      </trkpt>
      <trkpt lat="47.369028925895691" lon="11.248534172773361">
        <ele>1123.43798828125</ele>
        <time>2014-03-08T13:29:25Z</time>
      </trkpt>
      <trkpt lat="47.369183655828238" lon="11.248379023745656">
        <ele>1121.995849609375</ele>
        <time>2014-03-08T13:29:28Z</time>
      </trkpt>
      <trkpt lat="47.3694481048733" lon="11.247927406802773">
        <ele>1119.5927734375</ele>
        <time>2014-03-08T13:29:34Z</time>
      </trkpt>
      <trkpt lat="47.369569642469287" lon="11.247684163972735">
        <ele>1117.669921875</ele>
        <time>2014-03-08T13:29:37Z</time>
      </trkpt>
      <trkpt lat="47.369856555014849" lon="11.247337488457561">
        <ele>1115.2666015625</ele>
        <time>2014-03-08T13:29:43Z</time>
      </trkpt>
      <trkpt lat="47.370069036260247" lon="11.247160462662578">
        <ele>1114.785888671875</ele>
        <time>2014-03-08T13:29:48Z</time>
      </trkpt>
      <trkpt lat="47.370150927454233" lon="11.247077398002148">
        <ele>1113.824462890625</ele>
        <time>2014-03-08T13:29:50Z</time>
      </trkpt>
      <trkpt lat="47.370202476158738" lon="11.246948149055243">
        <ele>1113.343994140625</ele>
        <time>2014-03-08T13:29:52Z</time>
      </trkpt>
      <trkpt lat="47.370270034298301" lon="11.24646283686161">
        <ele>1110.940673828125</ele>
        <time>2014-03-08T13:29:57Z</time>
      </trkpt>
      <trkpt lat="47.370251091197133" lon="11.245927400887012">
        <ele>1106.61474609375</ele>
        <time>2014-03-08T13:30:02Z</time>
      </trkpt>
      <trkpt lat="47.370233405381441" lon="11.245822459459305">
        <ele>1107.095458984375</ele>
        <time>2014-03-08T13:30:03Z</time>
      </trkpt>
      <trkpt lat="47.370282104238868" lon="11.24543278478086">
        <ele>1104.692138671875</ele>
        <time>2014-03-08T13:30:07Z</time>
      </trkpt>
      <trkpt lat="47.370335916057229" lon="11.245361622422934">
        <ele>1103.73095703125</ele>
        <time>2014-03-08T13:30:08Z</time>
      </trkpt>
      <trkpt lat="47.370460387319326" lon="11.245242767035961">
        <ele>1102.288818359375</ele>
        <time>2014-03-08T13:30:10Z</time>
      </trkpt>
      <trkpt lat="47.370567759498954" lon="11.245099101215601">
        <ele>1101.808349609375</ele>
        <time>2014-03-08T13:30:12Z</time>
      </trkpt>
      <trkpt lat="47.37065359018743" lon="11.244806824252009">
        <ele>1099.885498046875</ele>
        <time>2014-03-08T13:30:15Z</time>
      </trkpt>
      <trkpt lat="47.37086514942348" lon="11.244550421833992">
        <ele>1097.482177734375</ele>
        <time>2014-03-08T13:30:19Z</time>
      </trkpt>
      <trkpt lat="47.371033458039165" lon="11.244262168183923">
        <ele>1096.040283203125</ele>
        <time>2014-03-08T13:30:23Z</time>
      </trkpt>
      <trkpt lat="47.37116270698607" lon="11.243969555944204">
        <ele>1093.15625</ele>
        <time>2014-03-08T13:30:27Z</time>
      </trkpt>
      <trkpt lat="47.371603259816766" lon="11.2435657158494">
        <ele>1090.7529296875</ele>
        <time>2014-03-08T13:30:35Z</time>
      </trkpt>
      <trkpt lat="47.371930489316583" lon="11.243446609005332">
        <ele>1088.349853515625</ele>
        <time>2014-03-08T13:30:40Z</time>
      </trkpt>
      <trkpt lat="47.372112963348627" lon="11.243362287059426">
        <ele>1086.90771484375</ele>
        <time>2014-03-08T13:30:43Z</time>
      </trkpt>
      <trkpt lat="47.37222989089787" lon="11.243294896557927">
        <ele>1085.946533203125</ele>
        <time>2014-03-08T13:30:45Z</time>
      </trkpt>
      <trkpt lat="47.372365677729249" lon="11.243260782212019">
        <ele>1084.504638671875</ele>
        <time>2014-03-08T13:30:47Z</time>
      </trkpt>
      <trkpt lat="47.372675389051437" lon="11.243101861327887">
        <ele>1081.620361328125</ele>
        <time>2014-03-08T13:30:52Z</time>
      </trkpt>
      <trkpt lat="47.372872699052095" lon="11.242900360375643">
        <ele>1080.178466796875</ele>
        <time>2014-03-08T13:30:56Z</time>
      </trkpt>
      <trkpt lat="47.373161874711514" lon="11.242640353739262">
        <ele>1077.294677734375</ele>
        <time>2014-03-08T13:31:03Z</time>
      </trkpt>
      <trkpt lat="47.373382151126862" lon="11.24254840426147">
        <ele>1075.371826171875</ele>
        <time>2014-03-08T13:31:07Z</time>
      </trkpt>
      <trkpt lat="47.37361122854054" lon="11.242385376244783">
        <ele>1073.449462890625</ele>
        <time>2014-03-08T13:31:12Z</time>
      </trkpt>
      <trkpt lat="47.37378372810781" lon="11.242422172799706">
        <ele>1072.00732421875</ele>
        <time>2014-03-08T13:31:16Z</time>
      </trkpt>
      <trkpt lat="47.373946839943528" lon="11.24233734793961">
        <ele>1070.5654296875</ele>
        <time>2014-03-08T13:31:22Z</time>
      </trkpt>
      <trkpt lat="47.374234171584249" lon="11.24207591637969">
        <ele>1068.162109375</ele>
        <time>2014-03-08T13:31:30Z</time>
      </trkpt>
      <trkpt lat="47.374458722770214" lon="11.241813059896231">
        <ele>1065.278076171875</ele>
        <time>2014-03-08T13:31:36Z</time>
      </trkpt>
      <trkpt lat="47.374672461301088" lon="11.241640644147992">
        <ele>1061.91357421875</ele>
        <time>2014-03-08T13:31:40Z</time>
      </trkpt>
      <trkpt lat="47.374842781573534" lon="11.24155112542212">
        <ele>1061.432861328125</ele>
        <time>2014-03-08T13:31:43Z</time>
      </trkpt>
      <trkpt lat="47.37501653842628" lon="11.241539726033807">
        <ele>1059.029541015625</ele>
        <time>2014-03-08T13:31:47Z</time>
      </trkpt>
      <trkpt lat="47.374992147088051" lon="11.241561351343989">
        <ele>1059.029541015625</ele>
        <time>2014-03-08T13:31:54Z</time>
      </trkpt>
      <trkpt lat="47.375000780448318" lon="11.241570487618446">
        <ele>1059.029541015625</ele>
        <time>2014-03-08T13:32:03Z</time>
      </trkpt>
      <trkpt lat="47.375001786276698" lon="11.24156579375267">
        <ele>1059.029541015625</ele>
        <time>2014-03-08T13:32:12Z</time>
      </trkpt>
      <trkpt lat="47.375004552304745" lon="11.24157308600843">
        <ele>1059.51025390625</ele>
        <time>2014-03-08T13:32:28Z</time>
      </trkpt>
      <trkpt lat="47.375002121552825" lon="11.241556825116277">
        <ele>1058.068359375</ele>
        <time>2014-03-08T13:32:39Z</time>
      </trkpt>
      <trkpt lat="47.375003211200237" lon="11.241565207019448">
        <ele>1059.51025390625</ele>
        <time>2014-03-08T13:32:52Z</time>
      </trkpt>
      <trkpt lat="47.375053754076362" lon="11.241496978327632">
        <ele>1058.548828125</ele>
        <time>2014-03-08T13:32:58Z</time>
      </trkpt>
      <trkpt lat="47.375117121264338" lon="11.241371165961027">
        <ele>1057.10693359375</ele>
        <time>2014-03-08T13:33:07Z</time>
      </trkpt>
      <trkpt lat="47.375155342742801" lon="11.241292711347342">
        <ele>1056.1455078125</ele>
        <time>2014-03-08T13:33:13Z</time>
      </trkpt>
      <trkpt lat="47.375230947509408" lon="11.241219034418464">
        <ele>1055.184326171875</ele>
        <time>2014-03-08T13:33:21Z</time>
      </trkpt>
      <trkpt lat="47.375322477892041" lon="11.241120379418135">
        <ele>1053.26171875</ele>
        <time>2014-03-08T13:33:31Z</time>
      </trkpt>
      <trkpt lat="47.37539280205965" lon="11.241066986694932">
        <ele>1051.819580078125</ele>
        <time>2014-03-08T13:33:37Z</time>
      </trkpt>
      <trkpt lat="47.375480309128761" lon="11.240988112986088">
        <ele>1050.377685546875</ele>
        <time>2014-03-08T13:33:44Z</time>
      </trkpt>
      <trkpt lat="47.375544011592865" lon="11.240918878465891">
        <ele>1049.89697265625</ele>
        <time>2014-03-08T13:33:50Z</time>
      </trkpt>
      <trkpt lat="47.375563541427255" lon="11.240868084132671">
        <ele>1049.416259765625</ele>
        <time>2014-03-08T13:33:53Z</time>
      </trkpt>
      <trkpt lat="47.375590447336435" lon="11.240851152688265">
        <ele>1048.454833984375</ele>
        <time>2014-03-08T13:33:55Z</time>
      </trkpt>
      <trkpt lat="47.375656496733427" lon="11.240789126604795">
        <ele>1047.012939453125</ele>
        <time>2014-03-08T13:34:01Z</time>
      </trkpt>
      <trkpt lat="47.37574509344995" lon="11.240697512403131">
        <ele>1045.09033203125</ele>
        <time>2014-03-08T13:34:09Z</time>
      </trkpt>
      <trkpt lat="47.375806448981166" lon="11.24066524207592">
        <ele>1044.609619140625</ele>
        <time>2014-03-08T13:34:13Z</time>
      </trkpt>
      <trkpt lat="47.37584182061255" lon="11.240630624815822">
        <ele>1044.129150390625</ele>
        <time>2014-03-08T13:34:16Z</time>
      </trkpt>
      <trkpt lat="47.375907870009542" lon="11.240580333396792">
        <ele>1042.687255859375</ele>
        <time>2014-03-08T13:34:21Z</time>
      </trkpt>
      <trkpt lat="47.375943660736084" lon="11.240566754713655">
        <ele>1042.687255859375</ele>
        <time>2014-03-08T13:34:23Z</time>
      </trkpt>
      <trkpt lat="47.375977272167802" lon="11.240357207134366">
        <ele>1039.80322265625</ele>
        <time>2014-03-08T13:34:32Z</time>
      </trkpt>
      <trkpt lat="47.375986240804195" lon="11.240343544632196">
        <ele>1039.80322265625</ele>
        <time>2014-03-08T13:34:33Z</time>
      </trkpt>
      <trkpt lat="47.376021277159452" lon="11.240284368395805">
        <ele>1039.322509765625</ele>
        <time>2014-03-08T13:34:37Z</time>
      </trkpt>
      <trkpt lat="47.376067880541086" lon="11.24014925211668">
        <ele>1036.919189453125</ele>
        <time>2014-03-08T13:34:44Z</time>
      </trkpt>
      <trkpt lat="47.376120015978813" lon="11.239991253241897">
        <ele>1036.438720703125</ele>
        <time>2014-03-08T13:34:53Z</time>
      </trkpt>
      <trkpt lat="47.376130074262619" lon="11.239913050085306">
        <ele>1034.99658203125</ele>
        <time>2014-03-08T13:34:57Z</time>
      </trkpt>
      <trkpt lat="47.376155639067292" lon="11.239837864413857">
        <ele>1033.554443359375</ele>
        <time>2014-03-08T13:35:03Z</time>
      </trkpt>
      <trkpt lat="47.376141389831901" lon="11.239790674299002">
        <ele>1034.03515625</ele>
        <time>2014-03-08T13:35:12Z</time>
      </trkpt>
      <trkpt lat="47.376126972958446" lon="11.239691684022546">
        <ele>1034.03515625</ele>
        <time>2014-03-08T13:35:21Z</time>
      </trkpt>
      <trkpt lat="47.376116830855608" lon="11.239331597462296">
        <ele>1033.07373046875</ele>
        <time>2014-03-08T13:35:27Z</time>
      </trkpt>
      <trkpt lat="47.376117249950767" lon="11.239176951348782">
        <ele>1032.112548828125</ele>
        <time>2014-03-08T13:35:30Z</time>
      </trkpt>
      <trkpt lat="47.376103503629565" lon="11.238478319719434">
        <ele>1028.748046875</ele>
        <time>2014-03-08T13:35:40Z</time>
      </trkpt>
      <trkpt lat="47.376170391216874" lon="11.238224264234304">
        <ele>1027.30615234375</ele>
        <time>2014-03-08T13:35:43Z</time>
      </trkpt>
      <trkpt lat="47.376191513612866" lon="11.238141367211938">
        <ele>1026.825439453125</ele>
        <time>2014-03-08T13:35:44Z</time>
      </trkpt>
      <trkpt lat="47.376195872202516" lon="11.23796358704567">
        <ele>1025.864013671875</ele>
        <time>2014-03-08T13:35:48Z</time>
      </trkpt>
      <trkpt lat="47.376194531098008" lon="11.238004574552178">
        <ele>1024.90283203125</ele>
        <time>2014-03-08T13:35:56Z</time>
      </trkpt>
      <trkpt lat="47.376192938536406" lon="11.238007256761193">
        <ele>1019.615478515625</ele>
        <time>2014-03-08T13:36:04Z</time>
      </trkpt>
      <trkpt lat="47.376186065375805" lon="11.23800122179091">
        <ele>1024.422119140625</ele>
        <time>2014-03-08T13:36:05Z</time>
      </trkpt>
      <trkpt lat="47.376185227185488" lon="11.237998623400927">
        <ele>1024.422119140625</ele>
        <time>2014-03-08T13:36:16Z</time>
      </trkpt>
      <trkpt lat="47.37618338316679" lon="11.237993929535151">
        <ele>1021.0576171875</ele>
        <time>2014-03-08T13:37:08Z</time>
      </trkpt>
      <trkpt lat="47.37618338316679" lon="11.237994013354182">
        <ele>1022.018798828125</ele>
        <time>2014-03-08T13:37:09Z</time>
      </trkpt>
      <trkpt lat="47.376183299347758" lon="11.237994013354182">
        <ele>1027.30615234375</ele>
        <time>2014-03-08T13:37:10Z</time>
      </trkpt>
      <trkpt lat="47.376183299347758" lon="11.237994013354182">
        <ele>1024.422119140625</ele>
        <time>2014-03-08T13:37:11Z</time>
      </trkpt>
      <trkpt lat="47.376183299347758" lon="11.237994097173214">
        <ele>1019.615478515625</ele>
        <time>2014-03-08T13:37:13Z</time>
      </trkpt>
      <trkpt lat="47.376183299347758" lon="11.237994097173214">
        <ele>1023.4609375</ele>
        <time>2014-03-08T13:37:14Z</time>
      </trkpt>
      <trkpt lat="47.376183299347758" lon="11.237994097173214">
        <ele>1026.825439453125</ele>
        <time>2014-03-08T13:37:15Z</time>
      </trkpt>
      <trkpt lat="47.376183299347758" lon="11.237994180992246">
        <ele>1023.94140625</ele>
        <time>2014-03-08T13:37:16Z</time>
      </trkpt>
      <trkpt lat="47.376183215528727" lon="11.237994180992246">
        <ele>1028.267333984375</ele>
        <time>2014-03-08T13:37:21Z</time>
      </trkpt>
      <trkpt lat="47.376183215528727" lon="11.237994180992246">
        <ele>1024.90283203125</ele>
        <time>2014-03-08T13:37:22Z</time>
      </trkpt>
      <trkpt lat="47.37619411200285" lon="11.238007424399257">
        <ele>1024.422119140625</ele>
        <time>2014-03-08T13:37:51Z</time>
      </trkpt>
      <trkpt lat="47.376194782555103" lon="11.238008597865701">
        <ele>1025.38330078125</ele>
        <time>2014-03-08T13:38:23Z</time>
      </trkpt>
    </trkseg>
  </trk>

</gpx>
